<?xml version="1.0" encoding="UTF-8" standalone="no" ?>
<gpx xmlns="http://www.topografix.com/GPX/1/1" xmlns:xsi="http://www.w3.org/2001/XMLSchema-instance" xsi:schemaLocation="http://www.topografix.com/GPX/1/1 http://www.topografix.com/GPX/1/1/gpx.xsd" version="1.1" creator="VisuGPX - https://www.visugpx.com">
  <metadata>
    <name>Cirque de Boundoulaou </name>
    <desc><![CDATA[Départ du parking de la mairie de Creilles.
Très beau circuit, cascade à proximité du village, et magnifiques vues sur le viaduc.]]></desc>
  </metadata>
  <trk>
    <name><![CDATA[2017-04-20 Cirque de Boundoulaou  Creissels]]></name>
    <trkseg>
      <trkpt lat="44.08536" lon="3.06139">
        <ele>443.79</ele>
        <time>2017-04-20T06:53:34Z</time>
      </trkpt>
      <trkpt lat="44.08534" lon="3.0614">
        <ele>383.22</ele>
        <time>2017-04-20T06:53:43Z</time>
      </trkpt>
      <trkpt lat="44.08534" lon="3.06141">
        <ele>383.22</ele>
        <time>2017-04-20T06:53:46Z</time>
      </trkpt>
      <trkpt lat="44.08534" lon="3.06142">
        <ele>383.22</ele>
        <time>2017-04-20T06:54:06Z</time>
      </trkpt>
      <trkpt lat="44.08535" lon="3.06137">
        <ele>382.74</ele>
        <time>2017-04-20T06:54:21Z</time>
      </trkpt>
      <trkpt lat="44.08533" lon="3.06138">
        <ele>383.22</ele>
        <time>2017-04-20T06:54:41Z</time>
      </trkpt>
      <trkpt lat="44.08533" lon="3.0614">
        <ele>382.74</ele>
        <time>2017-04-20T06:55:04Z</time>
      </trkpt>
      <trkpt lat="44.08532" lon="3.06143">
        <ele>382.74</ele>
        <time>2017-04-20T06:55:28Z</time>
      </trkpt>
      <trkpt lat="44.08532" lon="3.06139">
        <ele>382.74</ele>
        <time>2017-04-20T06:55:51Z</time>
      </trkpt>
      <trkpt lat="44.08533" lon="3.06139">
        <ele>382.74</ele>
        <time>2017-04-20T06:56:11Z</time>
      </trkpt>
      <trkpt lat="44.08531" lon="3.06147">
        <ele>382.74</ele>
        <time>2017-04-20T06:56:24Z</time>
      </trkpt>
      <trkpt lat="44.08528" lon="3.0615">
        <ele>382.74</ele>
        <time>2017-04-20T06:56:38Z</time>
      </trkpt>
      <trkpt lat="44.08528" lon="3.06152">
        <ele>382.74</ele>
        <time>2017-04-20T06:56:40Z</time>
      </trkpt>
      <trkpt lat="44.08525" lon="3.06159">
        <ele>384.18</ele>
        <time>2017-04-20T06:56:45Z</time>
      </trkpt>
      <trkpt lat="44.08519" lon="3.06168">
        <ele>384.18</ele>
        <time>2017-04-20T06:56:58Z</time>
      </trkpt>
      <trkpt lat="44.08513" lon="3.06178">
        <ele>384.18</ele>
        <time>2017-04-20T06:57:10Z</time>
      </trkpt>
      <trkpt lat="44.08511" lon="3.06187">
        <ele>384.18</ele>
        <time>2017-04-20T06:57:25Z</time>
      </trkpt>
      <trkpt lat="44.08513" lon="3.06188">
        <ele>378.9</ele>
        <time>2017-04-20T06:57:33Z</time>
      </trkpt>
      <trkpt lat="44.08513" lon="3.06188">
        <ele>388.03</ele>
        <time>2017-04-20T06:57:34Z</time>
      </trkpt>
      <trkpt lat="44.08513" lon="3.06189">
        <ele>383.7</ele>
        <time>2017-04-20T06:57:35Z</time>
      </trkpt>
      <trkpt lat="44.08507" lon="3.06196">
        <ele>383.22</ele>
        <time>2017-04-20T06:57:52Z</time>
      </trkpt>
      <trkpt lat="44.08495" lon="3.06213">
        <ele>384.66</ele>
        <time>2017-04-20T06:58:05Z</time>
      </trkpt>
      <trkpt lat="44.0849" lon="3.0622">
        <ele>384.66</ele>
        <time>2017-04-20T06:58:10Z</time>
      </trkpt>
      <trkpt lat="44.0849" lon="3.06223">
        <ele>385.63</ele>
        <time>2017-04-20T06:58:12Z</time>
      </trkpt>
      <trkpt lat="44.0849" lon="3.06234">
        <ele>386.11</ele>
        <time>2017-04-20T06:58:18Z</time>
      </trkpt>
      <trkpt lat="44.08491" lon="3.06258">
        <ele>387.55</ele>
        <time>2017-04-20T06:58:33Z</time>
      </trkpt>
      <trkpt lat="44.0849" lon="3.06268">
        <ele>388.51</ele>
        <time>2017-04-20T06:58:46Z</time>
      </trkpt>
      <trkpt lat="44.08476" lon="3.06262">
        <ele>389.47</ele>
        <time>2017-04-20T06:59:00Z</time>
      </trkpt>
      <trkpt lat="44.08474" lon="3.06264">
        <ele>388.51</ele>
        <time>2017-04-20T06:59:02Z</time>
      </trkpt>
      <trkpt lat="44.08472" lon="3.06264">
        <ele>391.87</ele>
        <time>2017-04-20T06:59:03Z</time>
      </trkpt>
      <trkpt lat="44.08469" lon="3.06265">
        <ele>387.55</ele>
        <time>2017-04-20T06:59:06Z</time>
      </trkpt>
      <trkpt lat="44.08468" lon="3.06264">
        <ele>390.91</ele>
        <time>2017-04-20T06:59:07Z</time>
      </trkpt>
      <trkpt lat="44.08468" lon="3.06264">
        <ele>396.68</ele>
        <time>2017-04-20T06:59:08Z</time>
      </trkpt>
      <trkpt lat="44.08467" lon="3.06264">
        <ele>390.91</ele>
        <time>2017-04-20T06:59:09Z</time>
      </trkpt>
      <trkpt lat="44.08464" lon="3.06259">
        <ele>390.91</ele>
        <time>2017-04-20T06:59:14Z</time>
      </trkpt>
      <trkpt lat="44.08456" lon="3.06251">
        <ele>392.36</ele>
        <time>2017-04-20T06:59:21Z</time>
      </trkpt>
      <trkpt lat="44.08447" lon="3.06259">
        <ele>393.8</ele>
        <time>2017-04-20T06:59:35Z</time>
      </trkpt>
      <trkpt lat="44.08439" lon="3.06266">
        <ele>395.24</ele>
        <time>2017-04-20T06:59:49Z</time>
      </trkpt>
      <trkpt lat="44.08427" lon="3.06277">
        <ele>396.68</ele>
        <time>2017-04-20T07:00:03Z</time>
      </trkpt>
      <trkpt lat="44.08416" lon="3.06279">
        <ele>397.64</ele>
        <time>2017-04-20T07:00:13Z</time>
      </trkpt>
      <trkpt lat="44.08399" lon="3.06277">
        <ele>399.57</ele>
        <time>2017-04-20T07:00:28Z</time>
      </trkpt>
      <trkpt lat="44.08394" lon="3.06276">
        <ele>398.12</ele>
        <time>2017-04-20T07:00:31Z</time>
      </trkpt>
      <trkpt lat="44.08392" lon="3.06276">
        <ele>401.01</ele>
        <time>2017-04-20T07:00:33Z</time>
      </trkpt>
      <trkpt lat="44.08379" lon="3.06271">
        <ele>398.6</ele>
        <time>2017-04-20T07:00:48Z</time>
      </trkpt>
      <trkpt lat="44.08378" lon="3.0627">
        <ele>402.45</ele>
        <time>2017-04-20T07:00:49Z</time>
      </trkpt>
      <trkpt lat="44.08377" lon="3.06268">
        <ele>398.12</ele>
        <time>2017-04-20T07:00:51Z</time>
      </trkpt>
      <trkpt lat="44.08377" lon="3.06267">
        <ele>401.01</ele>
        <time>2017-04-20T07:00:52Z</time>
      </trkpt>
      <trkpt lat="44.08376" lon="3.06265">
        <ele>406.77</ele>
        <time>2017-04-20T07:00:56Z</time>
      </trkpt>
      <trkpt lat="44.08376" lon="3.06265">
        <ele>403.41</ele>
        <time>2017-04-20T07:00:57Z</time>
      </trkpt>
      <trkpt lat="44.08376" lon="3.06265">
        <ele>401.97</ele>
        <time>2017-04-20T07:00:59Z</time>
      </trkpt>
      <trkpt lat="44.08375" lon="3.06265">
        <ele>398.12</ele>
        <time>2017-04-20T07:01:01Z</time>
      </trkpt>
      <trkpt lat="44.08374" lon="3.06265">
        <ele>404.85</ele>
        <time>2017-04-20T07:01:02Z</time>
      </trkpt>
      <trkpt lat="44.08374" lon="3.06266">
        <ele>401.97</ele>
        <time>2017-04-20T07:01:03Z</time>
      </trkpt>
      <trkpt lat="44.08369" lon="3.06272">
        <ele>401.97</ele>
        <time>2017-04-20T07:01:16Z</time>
      </trkpt>
      <trkpt lat="44.08362" lon="3.06272">
        <ele>401.97</ele>
        <time>2017-04-20T07:01:25Z</time>
      </trkpt>
      <trkpt lat="44.08354" lon="3.06276">
        <ele>400.05</ele>
        <time>2017-04-20T07:01:35Z</time>
      </trkpt>
      <trkpt lat="44.08352" lon="3.06277">
        <ele>401.97</ele>
        <time>2017-04-20T07:01:37Z</time>
      </trkpt>
      <trkpt lat="44.08351" lon="3.06278">
        <ele>401.49</ele>
        <time>2017-04-20T07:01:39Z</time>
      </trkpt>
      <trkpt lat="44.08347" lon="3.06279">
        <ele>402.93</ele>
        <time>2017-04-20T07:01:42Z</time>
      </trkpt>
      <trkpt lat="44.08346" lon="3.06279">
        <ele>401.01</ele>
        <time>2017-04-20T07:01:43Z</time>
      </trkpt>
      <trkpt lat="44.08344" lon="3.06281">
        <ele>397.64</ele>
        <time>2017-04-20T07:01:44Z</time>
      </trkpt>
      <trkpt lat="44.08342" lon="3.06282">
        <ele>400.05</ele>
        <time>2017-04-20T07:01:45Z</time>
      </trkpt>
      <trkpt lat="44.08338" lon="3.06283">
        <ele>403.89</ele>
        <time>2017-04-20T07:01:47Z</time>
      </trkpt>
      <trkpt lat="44.08337" lon="3.06284">
        <ele>400.05</ele>
        <time>2017-04-20T07:01:48Z</time>
      </trkpt>
      <trkpt lat="44.08335" lon="3.06285">
        <ele>400.05</ele>
        <time>2017-04-20T07:01:49Z</time>
      </trkpt>
      <trkpt lat="44.08323" lon="3.0629">
        <ele>400.53</ele>
        <time>2017-04-20T07:01:59Z</time>
      </trkpt>
      <trkpt lat="44.08321" lon="3.0629">
        <ele>400.53</ele>
        <time>2017-04-20T07:02:02Z</time>
      </trkpt>
      <trkpt lat="44.08299" lon="3.06297">
        <ele>400.53</ele>
        <time>2017-04-20T07:02:18Z</time>
      </trkpt>
      <trkpt lat="44.08295" lon="3.06299">
        <ele>400.53</ele>
        <time>2017-04-20T07:02:22Z</time>
      </trkpt>
      <trkpt lat="44.08273" lon="3.063">
        <ele>400.53</ele>
        <time>2017-04-20T07:02:39Z</time>
      </trkpt>
      <trkpt lat="44.08268" lon="3.06299">
        <ele>401.49</ele>
        <time>2017-04-20T07:02:43Z</time>
      </trkpt>
      <trkpt lat="44.08262" lon="3.06299">
        <ele>401.49</ele>
        <time>2017-04-20T07:02:49Z</time>
      </trkpt>
      <trkpt lat="44.08254" lon="3.06298">
        <ele>401.49</ele>
        <time>2017-04-20T07:02:55Z</time>
      </trkpt>
      <trkpt lat="44.08247" lon="3.06293">
        <ele>401.97</ele>
        <time>2017-04-20T07:03:02Z</time>
      </trkpt>
      <trkpt lat="44.08242" lon="3.06287">
        <ele>401.97</ele>
        <time>2017-04-20T07:03:13Z</time>
      </trkpt>
      <trkpt lat="44.0824" lon="3.06285">
        <ele>401.97</ele>
        <time>2017-04-20T07:03:15Z</time>
      </trkpt>
      <trkpt lat="44.08224" lon="3.06271">
        <ele>402.93</ele>
        <time>2017-04-20T07:03:31Z</time>
      </trkpt>
      <trkpt lat="44.08209" lon="3.06256">
        <ele>403.89</ele>
        <time>2017-04-20T07:03:46Z</time>
      </trkpt>
      <trkpt lat="44.08207" lon="3.06255">
        <ele>403.41</ele>
        <time>2017-04-20T07:03:48Z</time>
      </trkpt>
      <trkpt lat="44.08199" lon="3.06251">
        <ele>403.41</ele>
        <time>2017-04-20T07:04:01Z</time>
      </trkpt>
      <trkpt lat="44.08196" lon="3.0625">
        <ele>403.41</ele>
        <time>2017-04-20T07:04:14Z</time>
      </trkpt>
      <trkpt lat="44.08186" lon="3.06249">
        <ele>403.89</ele>
        <time>2017-04-20T07:04:22Z</time>
      </trkpt>
      <trkpt lat="44.08175" lon="3.06237">
        <ele>404.37</ele>
        <time>2017-04-20T07:04:37Z</time>
      </trkpt>
      <trkpt lat="44.08155" lon="3.0623">
        <ele>404.85</ele>
        <time>2017-04-20T07:04:51Z</time>
      </trkpt>
      <trkpt lat="44.08144" lon="3.06222">
        <ele>404.85</ele>
        <time>2017-04-20T07:05:02Z</time>
      </trkpt>
      <trkpt lat="44.08136" lon="3.06212">
        <ele>406.77</ele>
        <time>2017-04-20T07:05:11Z</time>
      </trkpt>
      <trkpt lat="44.08132" lon="3.06208">
        <ele>406.77</ele>
        <time>2017-04-20T07:05:16Z</time>
      </trkpt>
      <trkpt lat="44.08112" lon="3.06195">
        <ele>407.26</ele>
        <time>2017-04-20T07:05:31Z</time>
      </trkpt>
      <trkpt lat="44.081" lon="3.06182">
        <ele>408.22</ele>
        <time>2017-04-20T07:05:44Z</time>
      </trkpt>
      <trkpt lat="44.08084" lon="3.06174">
        <ele>408.7</ele>
        <time>2017-04-20T07:06:00Z</time>
      </trkpt>
      <trkpt lat="44.08063" lon="3.06166">
        <ele>409.66</ele>
        <time>2017-04-20T07:06:18Z</time>
      </trkpt>
      <trkpt lat="44.08057" lon="3.06161">
        <ele>410.62</ele>
        <time>2017-04-20T07:06:26Z</time>
      </trkpt>
      <trkpt lat="44.08048" lon="3.06156">
        <ele>413.5</ele>
        <time>2017-04-20T07:06:34Z</time>
      </trkpt>
      <trkpt lat="44.08044" lon="3.06154">
        <ele>412.06</ele>
        <time>2017-04-20T07:06:37Z</time>
      </trkpt>
      <trkpt lat="44.08033" lon="3.06151">
        <ele>411.58</ele>
        <time>2017-04-20T07:06:50Z</time>
      </trkpt>
      <trkpt lat="44.08026" lon="3.06151">
        <ele>413.02</ele>
        <time>2017-04-20T07:07:01Z</time>
      </trkpt>
      <trkpt lat="44.08014" lon="3.06146">
        <ele>413.5</ele>
        <time>2017-04-20T07:07:13Z</time>
      </trkpt>
      <trkpt lat="44.07999" lon="3.06141">
        <ele>416.39</ele>
        <time>2017-04-20T07:07:26Z</time>
      </trkpt>
      <trkpt lat="44.07994" lon="3.06138">
        <ele>417.35</ele>
        <time>2017-04-20T07:07:32Z</time>
      </trkpt>
      <trkpt lat="44.07992" lon="3.06134">
        <ele>417.35</ele>
        <time>2017-04-20T07:07:36Z</time>
      </trkpt>
      <trkpt lat="44.07985" lon="3.06122">
        <ele>417.35</ele>
        <time>2017-04-20T07:07:51Z</time>
      </trkpt>
      <trkpt lat="44.07983" lon="3.06124">
        <ele>417.35</ele>
        <time>2017-04-20T07:08:05Z</time>
      </trkpt>
      <trkpt lat="44.07981" lon="3.0612">
        <ele>417.35</ele>
        <time>2017-04-20T07:08:17Z</time>
      </trkpt>
      <trkpt lat="44.07981" lon="3.06117">
        <ele>418.31</ele>
        <time>2017-04-20T07:08:19Z</time>
      </trkpt>
      <trkpt lat="44.07981" lon="3.06117">
        <ele>421.19</ele>
        <time>2017-04-20T07:08:20Z</time>
      </trkpt>
      <trkpt lat="44.0798" lon="3.06117">
        <ele>418.31</ele>
        <time>2017-04-20T07:08:21Z</time>
      </trkpt>
      <trkpt lat="44.07977" lon="3.06112">
        <ele>419.27</ele>
        <time>2017-04-20T07:08:27Z</time>
      </trkpt>
      <trkpt lat="44.07971" lon="3.06105">
        <ele>422.16</ele>
        <time>2017-04-20T07:08:40Z</time>
      </trkpt>
      <trkpt lat="44.07966" lon="3.06096">
        <ele>425.04</ele>
        <time>2017-04-20T07:08:52Z</time>
      </trkpt>
      <trkpt lat="44.07966" lon="3.06089">
        <ele>427.92</ele>
        <time>2017-04-20T07:09:01Z</time>
      </trkpt>
      <trkpt lat="44.07963" lon="3.06082">
        <ele>429.37</ele>
        <time>2017-04-20T07:09:09Z</time>
      </trkpt>
      <trkpt lat="44.07961" lon="3.06066">
        <ele>431.77</ele>
        <time>2017-04-20T07:09:25Z</time>
      </trkpt>
      <trkpt lat="44.07965" lon="3.06059">
        <ele>432.73</ele>
        <time>2017-04-20T07:09:43Z</time>
      </trkpt>
      <trkpt lat="44.07966" lon="3.06053">
        <ele>432.73</ele>
        <time>2017-04-20T07:10:08Z</time>
      </trkpt>
      <trkpt lat="44.07967" lon="3.06051">
        <ele>432.25</ele>
        <time>2017-04-20T07:10:29Z</time>
      </trkpt>
      <trkpt lat="44.07966" lon="3.06054">
        <ele>432.73</ele>
        <time>2017-04-20T07:10:48Z</time>
      </trkpt>
      <trkpt lat="44.07963" lon="3.06059">
        <ele>433.69</ele>
        <time>2017-04-20T07:11:05Z</time>
      </trkpt>
      <trkpt lat="44.07964" lon="3.06062">
        <ele>433.69</ele>
        <time>2017-04-20T07:11:22Z</time>
      </trkpt>
      <trkpt lat="44.07973" lon="3.06066">
        <ele>434.17</ele>
        <time>2017-04-20T07:11:37Z</time>
      </trkpt>
      <trkpt lat="44.07968" lon="3.06066">
        <ele>434.17</ele>
        <time>2017-04-20T07:11:54Z</time>
      </trkpt>
      <trkpt lat="44.07964" lon="3.06062">
        <ele>433.69</ele>
        <time>2017-04-20T07:12:11Z</time>
      </trkpt>
      <trkpt lat="44.07967" lon="3.06066">
        <ele>433.69</ele>
        <time>2017-04-20T07:12:30Z</time>
      </trkpt>
      <trkpt lat="44.07969" lon="3.06064">
        <ele>434.17</ele>
        <time>2017-04-20T07:12:47Z</time>
      </trkpt>
      <trkpt lat="44.0797" lon="3.06063">
        <ele>434.17</ele>
        <time>2017-04-20T07:13:15Z</time>
      </trkpt>
      <trkpt lat="44.07974" lon="3.06057">
        <ele>434.17</ele>
        <time>2017-04-20T07:13:33Z</time>
      </trkpt>
      <trkpt lat="44.07969" lon="3.06057">
        <ele>434.17</ele>
        <time>2017-04-20T07:13:45Z</time>
      </trkpt>
      <trkpt lat="44.07963" lon="3.0606">
        <ele>434.17</ele>
        <time>2017-04-20T07:13:57Z</time>
      </trkpt>
      <trkpt lat="44.07966" lon="3.06067">
        <ele>434.17</ele>
        <time>2017-04-20T07:14:19Z</time>
      </trkpt>
      <trkpt lat="44.07963" lon="3.0607">
        <ele>432.73</ele>
        <time>2017-04-20T07:14:33Z</time>
      </trkpt>
      <trkpt lat="44.07964" lon="3.06075">
        <ele>429.85</ele>
        <time>2017-04-20T07:14:45Z</time>
      </trkpt>
      <trkpt lat="44.07962" lon="3.06083">
        <ele>428.4</ele>
        <time>2017-04-20T07:15:00Z</time>
      </trkpt>
      <trkpt lat="44.07956" lon="3.06088">
        <ele>425.04</ele>
        <time>2017-04-20T07:15:15Z</time>
      </trkpt>
      <trkpt lat="44.07965" lon="3.06101">
        <ele>422.16</ele>
        <time>2017-04-20T07:15:27Z</time>
      </trkpt>
      <trkpt lat="44.07974" lon="3.0611">
        <ele>418.79</ele>
        <time>2017-04-20T07:15:38Z</time>
      </trkpt>
      <trkpt lat="44.07982" lon="3.06115">
        <ele>415.43</ele>
        <time>2017-04-20T07:15:51Z</time>
      </trkpt>
      <trkpt lat="44.07982" lon="3.0612">
        <ele>415.91</ele>
        <time>2017-04-20T07:16:03Z</time>
      </trkpt>
      <trkpt lat="44.07991" lon="3.06124">
        <ele>415.91</ele>
        <time>2017-04-20T07:16:14Z</time>
      </trkpt>
      <trkpt lat="44.07999" lon="3.0614">
        <ele>415.91</ele>
        <time>2017-04-20T07:16:28Z</time>
      </trkpt>
      <trkpt lat="44.07996" lon="3.0615">
        <ele>418.79</ele>
        <time>2017-04-20T07:16:43Z</time>
      </trkpt>
      <trkpt lat="44.07996" lon="3.06151">
        <ele>418.79</ele>
        <time>2017-04-20T07:17:05Z</time>
      </trkpt>
      <trkpt lat="44.07991" lon="3.06152">
        <ele>423.6</ele>
        <time>2017-04-20T07:17:23Z</time>
      </trkpt>
      <trkpt lat="44.0799" lon="3.06153">
        <ele>419.27</ele>
        <time>2017-04-20T07:17:24Z</time>
      </trkpt>
      <trkpt lat="44.07985" lon="3.06146">
        <ele>420.71</ele>
        <time>2017-04-20T07:17:34Z</time>
      </trkpt>
      <trkpt lat="44.07981" lon="3.06144">
        <ele>422.64</ele>
        <time>2017-04-20T07:17:47Z</time>
      </trkpt>
      <trkpt lat="44.07975" lon="3.06139">
        <ele>425.04</ele>
        <time>2017-04-20T07:18:00Z</time>
      </trkpt>
      <trkpt lat="44.07969" lon="3.06139">
        <ele>426.96</ele>
        <time>2017-04-20T07:18:17Z</time>
      </trkpt>
      <trkpt lat="44.0796" lon="3.06141">
        <ele>428.89</ele>
        <time>2017-04-20T07:18:29Z</time>
      </trkpt>
      <trkpt lat="44.07948" lon="3.06146">
        <ele>431.77</ele>
        <time>2017-04-20T07:18:44Z</time>
      </trkpt>
      <trkpt lat="44.07941" lon="3.0615">
        <ele>434.17</ele>
        <time>2017-04-20T07:18:59Z</time>
      </trkpt>
      <trkpt lat="44.07929" lon="3.06159">
        <ele>436.58</ele>
        <time>2017-04-20T07:19:12Z</time>
      </trkpt>
      <trkpt lat="44.07927" lon="3.06164">
        <ele>437.06</ele>
        <time>2017-04-20T07:19:19Z</time>
      </trkpt>
      <trkpt lat="44.07926" lon="3.06165">
        <ele>437.06</ele>
        <time>2017-04-20T07:19:20Z</time>
      </trkpt>
      <trkpt lat="44.07921" lon="3.06162">
        <ele>438.02</ele>
        <time>2017-04-20T07:19:33Z</time>
      </trkpt>
      <trkpt lat="44.07914" lon="3.06157">
        <ele>438.98</ele>
        <time>2017-04-20T07:19:46Z</time>
      </trkpt>
      <trkpt lat="44.07911" lon="3.06158">
        <ele>441.86</ele>
        <time>2017-04-20T07:19:52Z</time>
      </trkpt>
      <trkpt lat="44.07911" lon="3.06153">
        <ele>442.82</ele>
        <time>2017-04-20T07:20:04Z</time>
      </trkpt>
      <trkpt lat="44.07914" lon="3.06154">
        <ele>442.34</ele>
        <time>2017-04-20T07:20:26Z</time>
      </trkpt>
      <trkpt lat="44.07914" lon="3.06153">
        <ele>441.38</ele>
        <time>2017-04-20T07:20:40Z</time>
      </trkpt>
      <trkpt lat="44.07916" lon="3.06157">
        <ele>441.38</ele>
        <time>2017-04-20T07:20:46Z</time>
      </trkpt>
      <trkpt lat="44.07918" lon="3.06157">
        <ele>440.9</ele>
        <time>2017-04-20T07:20:47Z</time>
      </trkpt>
      <trkpt lat="44.0792" lon="3.06158">
        <ele>440.42</ele>
        <time>2017-04-20T07:20:48Z</time>
      </trkpt>
      <trkpt lat="44.07921" lon="3.06158">
        <ele>439.94</ele>
        <time>2017-04-20T07:20:49Z</time>
      </trkpt>
      <trkpt lat="44.07923" lon="3.06159">
        <ele>438.98</ele>
        <time>2017-04-20T07:20:50Z</time>
      </trkpt>
      <trkpt lat="44.07924" lon="3.0616">
        <ele>438.98</ele>
        <time>2017-04-20T07:20:51Z</time>
      </trkpt>
      <trkpt lat="44.07925" lon="3.06162">
        <ele>438.5</ele>
        <time>2017-04-20T07:20:53Z</time>
      </trkpt>
      <trkpt lat="44.07925" lon="3.06163">
        <ele>438.5</ele>
        <time>2017-04-20T07:20:54Z</time>
      </trkpt>
      <trkpt lat="44.07924" lon="3.06165">
        <ele>438.5</ele>
        <time>2017-04-20T07:20:55Z</time>
      </trkpt>
      <trkpt lat="44.07922" lon="3.06169">
        <ele>439.94</ele>
        <time>2017-04-20T07:20:58Z</time>
      </trkpt>
      <trkpt lat="44.07921" lon="3.06171">
        <ele>440.9</ele>
        <time>2017-04-20T07:21:00Z</time>
      </trkpt>
      <trkpt lat="44.0792" lon="3.06173">
        <ele>440.9</ele>
        <time>2017-04-20T07:21:01Z</time>
      </trkpt>
      <trkpt lat="44.07916" lon="3.06181">
        <ele>442.82</ele>
        <time>2017-04-20T07:21:07Z</time>
      </trkpt>
      <trkpt lat="44.07915" lon="3.06182">
        <ele>443.79</ele>
        <time>2017-04-20T07:21:08Z</time>
      </trkpt>
      <trkpt lat="44.07913" lon="3.06197">
        <ele>447.15</ele>
        <time>2017-04-20T07:21:19Z</time>
      </trkpt>
      <trkpt lat="44.07911" lon="3.06199">
        <ele>447.15</ele>
        <time>2017-04-20T07:21:20Z</time>
      </trkpt>
      <trkpt lat="44.07906" lon="3.06209">
        <ele>450.52</ele>
        <time>2017-04-20T07:21:31Z</time>
      </trkpt>
      <trkpt lat="44.07904" lon="3.06207">
        <ele>451</ele>
        <time>2017-04-20T07:21:33Z</time>
      </trkpt>
      <trkpt lat="44.07899" lon="3.06205">
        <ele>453.4</ele>
        <time>2017-04-20T07:21:39Z</time>
      </trkpt>
      <trkpt lat="44.07888" lon="3.06201">
        <ele>456.28</ele>
        <time>2017-04-20T07:21:50Z</time>
      </trkpt>
      <trkpt lat="44.07876" lon="3.06197">
        <ele>458.69</ele>
        <time>2017-04-20T07:21:59Z</time>
      </trkpt>
      <trkpt lat="44.07874" lon="3.06197">
        <ele>458.69</ele>
        <time>2017-04-20T07:22:00Z</time>
      </trkpt>
      <trkpt lat="44.07865" lon="3.06191">
        <ele>461.09</ele>
        <time>2017-04-20T07:22:08Z</time>
      </trkpt>
      <trkpt lat="44.07857" lon="3.06181">
        <ele>463.97</ele>
        <time>2017-04-20T07:22:20Z</time>
      </trkpt>
      <trkpt lat="44.07854" lon="3.06172">
        <ele>466.38</ele>
        <time>2017-04-20T07:22:32Z</time>
      </trkpt>
      <trkpt lat="44.07853" lon="3.06161">
        <ele>469.74</ele>
        <time>2017-04-20T07:22:43Z</time>
      </trkpt>
      <trkpt lat="44.07859" lon="3.06149">
        <ele>471.66</ele>
        <time>2017-04-20T07:22:56Z</time>
      </trkpt>
      <trkpt lat="44.07862" lon="3.06139">
        <ele>473.59</ele>
        <time>2017-04-20T07:23:07Z</time>
      </trkpt>
      <trkpt lat="44.0786" lon="3.06128">
        <ele>476.47</ele>
        <time>2017-04-20T07:23:22Z</time>
      </trkpt>
      <trkpt lat="44.07857" lon="3.06114">
        <ele>478.87</ele>
        <time>2017-04-20T07:23:38Z</time>
      </trkpt>
      <trkpt lat="44.07858" lon="3.06109">
        <ele>479.84</ele>
        <time>2017-04-20T07:23:53Z</time>
      </trkpt>
      <trkpt lat="44.0786" lon="3.06107">
        <ele>479.84</ele>
        <time>2017-04-20T07:23:59Z</time>
      </trkpt>
      <trkpt lat="44.0786" lon="3.06102">
        <ele>479.84</ele>
        <time>2017-04-20T07:24:14Z</time>
      </trkpt>
      <trkpt lat="44.07859" lon="3.06098">
        <ele>479.84</ele>
        <time>2017-04-20T07:24:24Z</time>
      </trkpt>
      <trkpt lat="44.07852" lon="3.06075">
        <ele>480.32</ele>
        <time>2017-04-20T07:24:40Z</time>
      </trkpt>
      <trkpt lat="44.07846" lon="3.06055">
        <ele>479.84</ele>
        <time>2017-04-20T07:24:56Z</time>
      </trkpt>
      <trkpt lat="44.07848" lon="3.06053">
        <ele>480.32</ele>
        <time>2017-04-20T07:25:14Z</time>
      </trkpt>
      <trkpt lat="44.07847" lon="3.06048">
        <ele>480.32</ele>
        <time>2017-04-20T07:25:33Z</time>
      </trkpt>
      <trkpt lat="44.07843" lon="3.06024">
        <ele>480.32</ele>
        <time>2017-04-20T07:25:47Z</time>
      </trkpt>
      <trkpt lat="44.07843" lon="3.06015">
        <ele>480.8</ele>
        <time>2017-04-20T07:25:54Z</time>
      </trkpt>
      <trkpt lat="44.07845" lon="3.06014">
        <ele>479.35</ele>
        <time>2017-04-20T07:26:03Z</time>
      </trkpt>
      <trkpt lat="44.07842" lon="3.06011">
        <ele>479.35</ele>
        <time>2017-04-20T07:26:09Z</time>
      </trkpt>
      <trkpt lat="44.0784" lon="3.0601">
        <ele>479.35</ele>
        <time>2017-04-20T07:26:10Z</time>
      </trkpt>
      <trkpt lat="44.07839" lon="3.06008">
        <ele>480.8</ele>
        <time>2017-04-20T07:26:11Z</time>
      </trkpt>
      <trkpt lat="44.07838" lon="3.06007">
        <ele>480.8</ele>
        <time>2017-04-20T07:26:12Z</time>
      </trkpt>
      <trkpt lat="44.07837" lon="3.06006">
        <ele>481.28</ele>
        <time>2017-04-20T07:26:13Z</time>
      </trkpt>
      <trkpt lat="44.07836" lon="3.06005">
        <ele>481.28</ele>
        <time>2017-04-20T07:26:14Z</time>
      </trkpt>
      <trkpt lat="44.07824" lon="3.05991">
        <ele>482.24</ele>
        <time>2017-04-20T07:26:29Z</time>
      </trkpt>
      <trkpt lat="44.07824" lon="3.05994">
        <ele>482.24</ele>
        <time>2017-04-20T07:26:35Z</time>
      </trkpt>
      <trkpt lat="44.07822" lon="3.05993">
        <ele>482.24</ele>
        <time>2017-04-20T07:26:37Z</time>
      </trkpt>
      <trkpt lat="44.07821" lon="3.05992">
        <ele>482.24</ele>
        <time>2017-04-20T07:26:38Z</time>
      </trkpt>
      <trkpt lat="44.07812" lon="3.05972">
        <ele>480.32</ele>
        <time>2017-04-20T07:26:53Z</time>
      </trkpt>
      <trkpt lat="44.07811" lon="3.05968">
        <ele>480.32</ele>
        <time>2017-04-20T07:26:57Z</time>
      </trkpt>
      <trkpt lat="44.0781" lon="3.05954">
        <ele>481.76</ele>
        <time>2017-04-20T07:27:10Z</time>
      </trkpt>
      <trkpt lat="44.07809" lon="3.05951">
        <ele>477.43</ele>
        <time>2017-04-20T07:27:27Z</time>
      </trkpt>
      <trkpt lat="44.0781" lon="3.05948">
        <ele>485.12</ele>
        <time>2017-04-20T07:27:28Z</time>
      </trkpt>
      <trkpt lat="44.07809" lon="3.0595">
        <ele>480.8</ele>
        <time>2017-04-20T07:27:29Z</time>
      </trkpt>
      <trkpt lat="44.07812" lon="3.05946">
        <ele>480.32</ele>
        <time>2017-04-20T07:27:43Z</time>
      </trkpt>
      <trkpt lat="44.07814" lon="3.05946">
        <ele>480.32</ele>
        <time>2017-04-20T07:28:09Z</time>
      </trkpt>
      <trkpt lat="44.0782" lon="3.0594">
        <ele>480.32</ele>
        <time>2017-04-20T07:28:25Z</time>
      </trkpt>
      <trkpt lat="44.07832" lon="3.05926">
        <ele>480.32</ele>
        <time>2017-04-20T07:28:42Z</time>
      </trkpt>
      <trkpt lat="44.0784" lon="3.05917">
        <ele>479.35</ele>
        <time>2017-04-20T07:28:53Z</time>
      </trkpt>
      <trkpt lat="44.07851" lon="3.05905">
        <ele>479.35</ele>
        <time>2017-04-20T07:29:06Z</time>
      </trkpt>
      <trkpt lat="44.0786" lon="3.05883">
        <ele>479.35</ele>
        <time>2017-04-20T07:29:21Z</time>
      </trkpt>
      <trkpt lat="44.07861" lon="3.05882">
        <ele>479.35</ele>
        <time>2017-04-20T07:29:22Z</time>
      </trkpt>
      <trkpt lat="44.07861" lon="3.0588">
        <ele>479.35</ele>
        <time>2017-04-20T07:29:23Z</time>
      </trkpt>
      <trkpt lat="44.07872" lon="3.05859">
        <ele>479.35</ele>
        <time>2017-04-20T07:29:38Z</time>
      </trkpt>
      <trkpt lat="44.07878" lon="3.05835">
        <ele>479.35</ele>
        <time>2017-04-20T07:29:52Z</time>
      </trkpt>
      <trkpt lat="44.07878" lon="3.05832">
        <ele>479.35</ele>
        <time>2017-04-20T07:29:54Z</time>
      </trkpt>
      <trkpt lat="44.07879" lon="3.05827">
        <ele>479.35</ele>
        <time>2017-04-20T07:29:59Z</time>
      </trkpt>
      <trkpt lat="44.07887" lon="3.05814">
        <ele>479.35</ele>
        <time>2017-04-20T07:30:12Z</time>
      </trkpt>
      <trkpt lat="44.07888" lon="3.05811">
        <ele>478.39</ele>
        <time>2017-04-20T07:30:29Z</time>
      </trkpt>
      <trkpt lat="44.07888" lon="3.05811">
        <ele>480.32</ele>
        <time>2017-04-20T07:30:34Z</time>
      </trkpt>
      <trkpt lat="44.07884" lon="3.05816">
        <ele>478.87</ele>
        <time>2017-04-20T07:30:48Z</time>
      </trkpt>
      <trkpt lat="44.07882" lon="3.05816">
        <ele>478.87</ele>
        <time>2017-04-20T07:30:51Z</time>
      </trkpt>
      <trkpt lat="44.0788" lon="3.05817">
        <ele>478.87</ele>
        <time>2017-04-20T07:30:53Z</time>
      </trkpt>
      <trkpt lat="44.07879" lon="3.05818">
        <ele>478.87</ele>
        <time>2017-04-20T07:30:54Z</time>
      </trkpt>
      <trkpt lat="44.0787" lon="3.05822">
        <ele>478.87</ele>
        <time>2017-04-20T07:31:01Z</time>
      </trkpt>
      <trkpt lat="44.07869" lon="3.05823">
        <ele>478.87</ele>
        <time>2017-04-20T07:31:02Z</time>
      </trkpt>
      <trkpt lat="44.07868" lon="3.05823">
        <ele>480.32</ele>
        <time>2017-04-20T07:31:03Z</time>
      </trkpt>
      <trkpt lat="44.07857" lon="3.05827">
        <ele>480.8</ele>
        <time>2017-04-20T07:31:12Z</time>
      </trkpt>
      <trkpt lat="44.07848" lon="3.05827">
        <ele>482.24</ele>
        <time>2017-04-20T07:31:19Z</time>
      </trkpt>
      <trkpt lat="44.07845" lon="3.05828">
        <ele>482.72</ele>
        <time>2017-04-20T07:31:33Z</time>
      </trkpt>
      <trkpt lat="44.07845" lon="3.05828">
        <ele>482.24</ele>
        <time>2017-04-20T07:31:51Z</time>
      </trkpt>
      <trkpt lat="44.07849" lon="3.05827">
        <ele>481.28</ele>
        <time>2017-04-20T07:31:58Z</time>
      </trkpt>
      <trkpt lat="44.07849" lon="3.05827">
        <ele>484.64</ele>
        <time>2017-04-20T07:31:59Z</time>
      </trkpt>
      <trkpt lat="44.07849" lon="3.05827">
        <ele>481.76</ele>
        <time>2017-04-20T07:32:00Z</time>
      </trkpt>
      <trkpt lat="44.07858" lon="3.05825">
        <ele>480.8</ele>
        <time>2017-04-20T07:32:17Z</time>
      </trkpt>
      <trkpt lat="44.07859" lon="3.05824">
        <ele>480.8</ele>
        <time>2017-04-20T07:32:41Z</time>
      </trkpt>
      <trkpt lat="44.07859" lon="3.05824">
        <ele>480.8</ele>
        <time>2017-04-20T07:33:11Z</time>
      </trkpt>
      <trkpt lat="44.0786" lon="3.05823">
        <ele>480.8</ele>
        <time>2017-04-20T07:33:21Z</time>
      </trkpt>
      <trkpt lat="44.07862" lon="3.05823">
        <ele>480.32</ele>
        <time>2017-04-20T07:33:22Z</time>
      </trkpt>
      <trkpt lat="44.07865" lon="3.05824">
        <ele>480.32</ele>
        <time>2017-04-20T07:33:32Z</time>
      </trkpt>
      <trkpt lat="44.07867" lon="3.05824">
        <ele>480.32</ele>
        <time>2017-04-20T07:33:33Z</time>
      </trkpt>
      <trkpt lat="44.07868" lon="3.05823">
        <ele>480.32</ele>
        <time>2017-04-20T07:33:34Z</time>
      </trkpt>
      <trkpt lat="44.0787" lon="3.05823">
        <ele>479.84</ele>
        <time>2017-04-20T07:33:35Z</time>
      </trkpt>
      <trkpt lat="44.07873" lon="3.05821">
        <ele>479.84</ele>
        <time>2017-04-20T07:33:36Z</time>
      </trkpt>
      <trkpt lat="44.07879" lon="3.05819">
        <ele>479.84</ele>
        <time>2017-04-20T07:33:45Z</time>
      </trkpt>
      <trkpt lat="44.07897" lon="3.05811">
        <ele>478.87</ele>
        <time>2017-04-20T07:33:59Z</time>
      </trkpt>
      <trkpt lat="44.07898" lon="3.05812">
        <ele>478.39</ele>
        <time>2017-04-20T07:34:15Z</time>
      </trkpt>
      <trkpt lat="44.07909" lon="3.05805">
        <ele>478.39</ele>
        <time>2017-04-20T07:34:36Z</time>
      </trkpt>
      <trkpt lat="44.07928" lon="3.05797">
        <ele>477.91</ele>
        <time>2017-04-20T07:34:51Z</time>
      </trkpt>
      <trkpt lat="44.07948" lon="3.05792">
        <ele>477.43</ele>
        <time>2017-04-20T07:35:06Z</time>
      </trkpt>
      <trkpt lat="44.07974" lon="3.0578">
        <ele>477.43</ele>
        <time>2017-04-20T07:35:24Z</time>
      </trkpt>
      <trkpt lat="44.07988" lon="3.05771">
        <ele>475.99</ele>
        <time>2017-04-20T07:35:34Z</time>
      </trkpt>
      <trkpt lat="44.08011" lon="3.05752">
        <ele>475.99</ele>
        <time>2017-04-20T07:35:53Z</time>
      </trkpt>
      <trkpt lat="44.08011" lon="3.05751">
        <ele>475.51</ele>
        <time>2017-04-20T07:35:54Z</time>
      </trkpt>
      <trkpt lat="44.08012" lon="3.05749">
        <ele>475.51</ele>
        <time>2017-04-20T07:35:55Z</time>
      </trkpt>
      <trkpt lat="44.08015" lon="3.05749">
        <ele>475.51</ele>
        <time>2017-04-20T07:36:05Z</time>
      </trkpt>
      <trkpt lat="44.08016" lon="3.05746">
        <ele>475.03</ele>
        <time>2017-04-20T07:36:30Z</time>
      </trkpt>
      <trkpt lat="44.08015" lon="3.05745">
        <ele>475.03</ele>
        <time>2017-04-20T07:36:42Z</time>
      </trkpt>
      <trkpt lat="44.08013" lon="3.05743">
        <ele>475.03</ele>
        <time>2017-04-20T07:36:52Z</time>
      </trkpt>
      <trkpt lat="44.08012" lon="3.05741">
        <ele>475.03</ele>
        <time>2017-04-20T07:36:53Z</time>
      </trkpt>
      <trkpt lat="44.08" lon="3.05708">
        <ele>475.03</ele>
        <time>2017-04-20T07:37:13Z</time>
      </trkpt>
      <trkpt lat="44.0799" lon="3.05676">
        <ele>474.07</ele>
        <time>2017-04-20T07:37:32Z</time>
      </trkpt>
      <trkpt lat="44.07983" lon="3.05666">
        <ele>473.11</ele>
        <time>2017-04-20T07:37:39Z</time>
      </trkpt>
      <trkpt lat="44.07981" lon="3.05666">
        <ele>472.14</ele>
        <time>2017-04-20T07:37:40Z</time>
      </trkpt>
      <trkpt lat="44.0798" lon="3.05668">
        <ele>475.99</ele>
        <time>2017-04-20T07:37:41Z</time>
      </trkpt>
      <trkpt lat="44.07976" lon="3.05666">
        <ele>473.59</ele>
        <time>2017-04-20T07:37:43Z</time>
      </trkpt>
      <trkpt lat="44.07976" lon="3.05665">
        <ele>473.59</ele>
        <time>2017-04-20T07:37:44Z</time>
      </trkpt>
      <trkpt lat="44.07975" lon="3.05663">
        <ele>473.59</ele>
        <time>2017-04-20T07:37:45Z</time>
      </trkpt>
      <trkpt lat="44.07954" lon="3.05634">
        <ele>472.63</ele>
        <time>2017-04-20T07:38:04Z</time>
      </trkpt>
      <trkpt lat="44.07935" lon="3.05614">
        <ele>471.18</ele>
        <time>2017-04-20T07:38:22Z</time>
      </trkpt>
      <trkpt lat="44.0793" lon="3.05605">
        <ele>470.7</ele>
        <time>2017-04-20T07:38:38Z</time>
      </trkpt>
      <trkpt lat="44.07922" lon="3.05598">
        <ele>470.22</ele>
        <time>2017-04-20T07:38:51Z</time>
      </trkpt>
      <trkpt lat="44.07917" lon="3.05595">
        <ele>470.22</ele>
        <time>2017-04-20T07:38:55Z</time>
      </trkpt>
      <trkpt lat="44.07916" lon="3.05594">
        <ele>470.22</ele>
        <time>2017-04-20T07:38:56Z</time>
      </trkpt>
      <trkpt lat="44.07914" lon="3.05594">
        <ele>470.22</ele>
        <time>2017-04-20T07:38:57Z</time>
      </trkpt>
      <trkpt lat="44.07913" lon="3.05593">
        <ele>470.22</ele>
        <time>2017-04-20T07:38:58Z</time>
      </trkpt>
      <trkpt lat="44.07911" lon="3.05591">
        <ele>470.22</ele>
        <time>2017-04-20T07:38:59Z</time>
      </trkpt>
      <trkpt lat="44.0791" lon="3.0559">
        <ele>469.74</ele>
        <time>2017-04-20T07:39:00Z</time>
      </trkpt>
      <trkpt lat="44.07908" lon="3.05589">
        <ele>469.74</ele>
        <time>2017-04-20T07:39:01Z</time>
      </trkpt>
      <trkpt lat="44.07906" lon="3.05588">
        <ele>469.74</ele>
        <time>2017-04-20T07:39:02Z</time>
      </trkpt>
      <trkpt lat="44.07904" lon="3.05587">
        <ele>469.74</ele>
        <time>2017-04-20T07:39:03Z</time>
      </trkpt>
      <trkpt lat="44.07883" lon="3.05577">
        <ele>469.26</ele>
        <time>2017-04-20T07:39:21Z</time>
      </trkpt>
      <trkpt lat="44.07882" lon="3.05576">
        <ele>469.26</ele>
        <time>2017-04-20T07:39:50Z</time>
      </trkpt>
      <trkpt lat="44.07881" lon="3.05575">
        <ele>469.26</ele>
        <time>2017-04-20T07:40:06Z</time>
      </trkpt>
      <trkpt lat="44.07855" lon="3.05569">
        <ele>467.82</ele>
        <time>2017-04-20T07:40:22Z</time>
      </trkpt>
      <trkpt lat="44.07836" lon="3.05559">
        <ele>466.86</ele>
        <time>2017-04-20T07:40:35Z</time>
      </trkpt>
      <trkpt lat="44.07814" lon="3.05544">
        <ele>465.42</ele>
        <time>2017-04-20T07:40:53Z</time>
      </trkpt>
      <trkpt lat="44.0781" lon="3.05543">
        <ele>464.93</ele>
        <time>2017-04-20T07:40:57Z</time>
      </trkpt>
      <trkpt lat="44.07809" lon="3.05542">
        <ele>464.93</ele>
        <time>2017-04-20T07:40:58Z</time>
      </trkpt>
      <trkpt lat="44.07804" lon="3.05541">
        <ele>463.97</ele>
        <time>2017-04-20T07:41:13Z</time>
      </trkpt>
      <trkpt lat="44.07805" lon="3.05541">
        <ele>462.05</ele>
        <time>2017-04-20T07:41:18Z</time>
      </trkpt>
      <trkpt lat="44.07805" lon="3.05541">
        <ele>463.97</ele>
        <time>2017-04-20T07:41:20Z</time>
      </trkpt>
      <trkpt lat="44.07804" lon="3.05542">
        <ele>468.3</ele>
        <time>2017-04-20T07:41:21Z</time>
      </trkpt>
      <trkpt lat="44.07802" lon="3.05545">
        <ele>463.49</ele>
        <time>2017-04-20T07:41:33Z</time>
      </trkpt>
      <trkpt lat="44.07788" lon="3.05541">
        <ele>461.09</ele>
        <time>2017-04-20T07:41:50Z</time>
      </trkpt>
      <trkpt lat="44.0779" lon="3.0554">
        <ele>461.09</ele>
        <time>2017-04-20T07:42:02Z</time>
      </trkpt>
      <trkpt lat="44.07795" lon="3.05539">
        <ele>461.09</ele>
        <time>2017-04-20T07:42:20Z</time>
      </trkpt>
      <trkpt lat="44.07796" lon="3.05542">
        <ele>462.05</ele>
        <time>2017-04-20T07:42:34Z</time>
      </trkpt>
      <trkpt lat="44.07796" lon="3.05542">
        <ele>462.05</ele>
        <time>2017-04-20T07:42:36Z</time>
      </trkpt>
      <trkpt lat="44.07791" lon="3.05542">
        <ele>461.09</ele>
        <time>2017-04-20T07:42:41Z</time>
      </trkpt>
      <trkpt lat="44.07776" lon="3.05547">
        <ele>457.24</ele>
        <time>2017-04-20T07:42:53Z</time>
      </trkpt>
      <trkpt lat="44.07765" lon="3.05546">
        <ele>454.36</ele>
        <time>2017-04-20T07:43:02Z</time>
      </trkpt>
      <trkpt lat="44.07753" lon="3.05541">
        <ele>451</ele>
        <time>2017-04-20T07:43:13Z</time>
      </trkpt>
      <trkpt lat="44.07746" lon="3.05539">
        <ele>448.59</ele>
        <time>2017-04-20T07:43:20Z</time>
      </trkpt>
      <trkpt lat="44.07732" lon="3.05528">
        <ele>445.23</ele>
        <time>2017-04-20T07:43:32Z</time>
      </trkpt>
      <trkpt lat="44.0773" lon="3.05522">
        <ele>444.75</ele>
        <time>2017-04-20T07:43:35Z</time>
      </trkpt>
      <trkpt lat="44.07723" lon="3.05503">
        <ele>443.31</ele>
        <time>2017-04-20T07:43:46Z</time>
      </trkpt>
      <trkpt lat="44.07698" lon="3.05481">
        <ele>441.86</ele>
        <time>2017-04-20T07:44:06Z</time>
      </trkpt>
      <trkpt lat="44.07686" lon="3.05468">
        <ele>441.86</ele>
        <time>2017-04-20T07:44:17Z</time>
      </trkpt>
      <trkpt lat="44.0767" lon="3.05449">
        <ele>444.27</ele>
        <time>2017-04-20T07:44:34Z</time>
      </trkpt>
      <trkpt lat="44.07651" lon="3.05429">
        <ele>445.23</ele>
        <time>2017-04-20T07:44:50Z</time>
      </trkpt>
      <trkpt lat="44.07635" lon="3.05407">
        <ele>445.23</ele>
        <time>2017-04-20T07:45:07Z</time>
      </trkpt>
      <trkpt lat="44.07623" lon="3.05385">
        <ele>445.23</ele>
        <time>2017-04-20T07:45:22Z</time>
      </trkpt>
      <trkpt lat="44.07606" lon="3.05363">
        <ele>444.27</ele>
        <time>2017-04-20T07:45:39Z</time>
      </trkpt>
      <trkpt lat="44.07583" lon="3.05355">
        <ele>441.86</ele>
        <time>2017-04-20T07:45:55Z</time>
      </trkpt>
      <trkpt lat="44.07562" lon="3.05338">
        <ele>439.46</ele>
        <time>2017-04-20T07:46:13Z</time>
      </trkpt>
      <trkpt lat="44.07559" lon="3.05336">
        <ele>438.98</ele>
        <time>2017-04-20T07:46:16Z</time>
      </trkpt>
      <trkpt lat="44.07545" lon="3.05315">
        <ele>436.1</ele>
        <time>2017-04-20T07:46:32Z</time>
      </trkpt>
      <trkpt lat="44.07529" lon="3.05296">
        <ele>433.21</ele>
        <time>2017-04-20T07:46:48Z</time>
      </trkpt>
      <trkpt lat="44.07507" lon="3.05282">
        <ele>430.33</ele>
        <time>2017-04-20T07:47:06Z</time>
      </trkpt>
      <trkpt lat="44.07487" lon="3.05282">
        <ele>427.92</ele>
        <time>2017-04-20T07:47:21Z</time>
      </trkpt>
      <trkpt lat="44.07473" lon="3.05278">
        <ele>418.31</ele>
        <time>2017-04-20T07:47:31Z</time>
      </trkpt>
      <trkpt lat="44.07472" lon="3.05278">
        <ele>421.19</ele>
        <time>2017-04-20T07:47:32Z</time>
      </trkpt>
      <trkpt lat="44.0747" lon="3.05277">
        <ele>431.77</ele>
        <time>2017-04-20T07:47:33Z</time>
      </trkpt>
      <trkpt lat="44.07468" lon="3.05276">
        <ele>426.48</ele>
        <time>2017-04-20T07:47:34Z</time>
      </trkpt>
      <trkpt lat="44.07446" lon="3.05266">
        <ele>426</ele>
        <time>2017-04-20T07:47:51Z</time>
      </trkpt>
      <trkpt lat="44.07422" lon="3.05258">
        <ele>425.04</ele>
        <time>2017-04-20T07:48:08Z</time>
      </trkpt>
      <trkpt lat="44.07397" lon="3.05249">
        <ele>424.08</ele>
        <time>2017-04-20T07:48:25Z</time>
      </trkpt>
      <trkpt lat="44.07374" lon="3.05237">
        <ele>422.64</ele>
        <time>2017-04-20T07:48:42Z</time>
      </trkpt>
      <trkpt lat="44.07353" lon="3.05215">
        <ele>421.68</ele>
        <time>2017-04-20T07:49:01Z</time>
      </trkpt>
      <trkpt lat="44.0735" lon="3.05211">
        <ele>417.83</ele>
        <time>2017-04-20T07:49:04Z</time>
      </trkpt>
      <trkpt lat="44.07349" lon="3.0521">
        <ele>423.12</ele>
        <time>2017-04-20T07:49:05Z</time>
      </trkpt>
      <trkpt lat="44.07347" lon="3.05209">
        <ele>419.75</ele>
        <time>2017-04-20T07:49:07Z</time>
      </trkpt>
      <trkpt lat="44.07345" lon="3.05208">
        <ele>422.16</ele>
        <time>2017-04-20T07:49:09Z</time>
      </trkpt>
      <trkpt lat="44.07319" lon="3.05195">
        <ele>417.83</ele>
        <time>2017-04-20T07:49:27Z</time>
      </trkpt>
      <trkpt lat="44.07299" lon="3.05196">
        <ele>416.39</ele>
        <time>2017-04-20T07:49:41Z</time>
      </trkpt>
      <trkpt lat="44.07278" lon="3.05199">
        <ele>414.95</ele>
        <time>2017-04-20T07:49:55Z</time>
      </trkpt>
      <trkpt lat="44.07258" lon="3.05203">
        <ele>413.98</ele>
        <time>2017-04-20T07:50:10Z</time>
      </trkpt>
      <trkpt lat="44.07254" lon="3.05204">
        <ele>413.98</ele>
        <time>2017-04-20T07:50:13Z</time>
      </trkpt>
      <trkpt lat="44.0724" lon="3.05205">
        <ele>413.5</ele>
        <time>2017-04-20T07:50:23Z</time>
      </trkpt>
      <trkpt lat="44.07231" lon="3.05209">
        <ele>413.5</ele>
        <time>2017-04-20T07:50:28Z</time>
      </trkpt>
      <trkpt lat="44.07221" lon="3.05216">
        <ele>412.54</ele>
        <time>2017-04-20T07:50:37Z</time>
      </trkpt>
      <trkpt lat="44.07217" lon="3.05219">
        <ele>412.54</ele>
        <time>2017-04-20T07:50:41Z</time>
      </trkpt>
      <trkpt lat="44.07195" lon="3.0522">
        <ele>410.62</ele>
        <time>2017-04-20T07:50:56Z</time>
      </trkpt>
      <trkpt lat="44.0719" lon="3.05219">
        <ele>410.62</ele>
        <time>2017-04-20T07:50:59Z</time>
      </trkpt>
      <trkpt lat="44.07162" lon="3.05215">
        <ele>409.18</ele>
        <time>2017-04-20T07:51:19Z</time>
      </trkpt>
      <trkpt lat="44.07142" lon="3.05211">
        <ele>408.22</ele>
        <time>2017-04-20T07:51:34Z</time>
      </trkpt>
      <trkpt lat="44.07124" lon="3.05204">
        <ele>407.74</ele>
        <time>2017-04-20T07:51:47Z</time>
      </trkpt>
      <trkpt lat="44.07105" lon="3.05195">
        <ele>407.74</ele>
        <time>2017-04-20T07:52:02Z</time>
      </trkpt>
      <trkpt lat="44.07089" lon="3.05186">
        <ele>407.74</ele>
        <time>2017-04-20T07:52:13Z</time>
      </trkpt>
      <trkpt lat="44.07066" lon="3.05177">
        <ele>406.77</ele>
        <time>2017-04-20T07:52:30Z</time>
      </trkpt>
      <trkpt lat="44.07043" lon="3.05169">
        <ele>405.33</ele>
        <time>2017-04-20T07:52:46Z</time>
      </trkpt>
      <trkpt lat="44.07024" lon="3.05155">
        <ele>402.93</ele>
        <time>2017-04-20T07:53:01Z</time>
      </trkpt>
      <trkpt lat="44.07015" lon="3.05139">
        <ele>400.05</ele>
        <time>2017-04-20T07:53:16Z</time>
      </trkpt>
      <trkpt lat="44.07019" lon="3.05112">
        <ele>396.2</ele>
        <time>2017-04-20T07:53:31Z</time>
      </trkpt>
      <trkpt lat="44.07023" lon="3.051">
        <ele>394.28</ele>
        <time>2017-04-20T07:53:38Z</time>
      </trkpt>
      <trkpt lat="44.07024" lon="3.05093">
        <ele>393.32</ele>
        <time>2017-04-20T07:53:42Z</time>
      </trkpt>
      <trkpt lat="44.07027" lon="3.05082">
        <ele>392.36</ele>
        <time>2017-04-20T07:53:50Z</time>
      </trkpt>
      <trkpt lat="44.07028" lon="3.05065">
        <ele>391.87</ele>
        <time>2017-04-20T07:53:58Z</time>
      </trkpt>
      <trkpt lat="44.07031" lon="3.05057">
        <ele>391.87</ele>
        <time>2017-04-20T07:54:02Z</time>
      </trkpt>
      <trkpt lat="44.07034" lon="3.05047">
        <ele>395.72</ele>
        <time>2017-04-20T07:54:06Z</time>
      </trkpt>
      <trkpt lat="44.07035" lon="3.05045">
        <ele>393.32</ele>
        <time>2017-04-20T07:54:07Z</time>
      </trkpt>
      <trkpt lat="44.07048" lon="3.05023">
        <ele>394.28</ele>
        <time>2017-04-20T07:54:23Z</time>
      </trkpt>
      <trkpt lat="44.07054" lon="3.05011">
        <ele>395.24</ele>
        <time>2017-04-20T07:54:32Z</time>
      </trkpt>
      <trkpt lat="44.07058" lon="3.05008">
        <ele>394.76</ele>
        <time>2017-04-20T07:54:42Z</time>
      </trkpt>
      <trkpt lat="44.07061" lon="3.05009">
        <ele>397.64</ele>
        <time>2017-04-20T07:54:46Z</time>
      </trkpt>
      <trkpt lat="44.07062" lon="3.05009">
        <ele>395.24</ele>
        <time>2017-04-20T07:54:55Z</time>
      </trkpt>
      <trkpt lat="44.07065" lon="3.05009">
        <ele>395.24</ele>
        <time>2017-04-20T07:55:17Z</time>
      </trkpt>
      <trkpt lat="44.07064" lon="3.05004">
        <ele>395.24</ele>
        <time>2017-04-20T07:55:36Z</time>
      </trkpt>
      <trkpt lat="44.07054" lon="3.05001">
        <ele>394.76</ele>
        <time>2017-04-20T07:55:50Z</time>
      </trkpt>
      <trkpt lat="44.07045" lon="3.04994">
        <ele>395.72</ele>
        <time>2017-04-20T07:56:05Z</time>
      </trkpt>
      <trkpt lat="44.07032" lon="3.04984">
        <ele>399.08</ele>
        <time>2017-04-20T07:56:27Z</time>
      </trkpt>
      <trkpt lat="44.07029" lon="3.04983">
        <ele>399.08</ele>
        <time>2017-04-20T07:56:49Z</time>
      </trkpt>
      <trkpt lat="44.07031" lon="3.04988">
        <ele>397.64</ele>
        <time>2017-04-20T07:56:55Z</time>
      </trkpt>
      <trkpt lat="44.07029" lon="3.04985">
        <ele>397.16</ele>
        <time>2017-04-20T07:57:09Z</time>
      </trkpt>
      <trkpt lat="44.07028" lon="3.04985">
        <ele>396.68</ele>
        <time>2017-04-20T07:57:22Z</time>
      </trkpt>
      <trkpt lat="44.07025" lon="3.0498">
        <ele>396.68</ele>
        <time>2017-04-20T07:57:35Z</time>
      </trkpt>
      <trkpt lat="44.07022" lon="3.04979">
        <ele>396.68</ele>
        <time>2017-04-20T07:57:54Z</time>
      </trkpt>
      <trkpt lat="44.07015" lon="3.04972">
        <ele>398.6</ele>
        <time>2017-04-20T07:58:07Z</time>
      </trkpt>
      <trkpt lat="44.07006" lon="3.04965">
        <ele>400.05</ele>
        <time>2017-04-20T07:58:20Z</time>
      </trkpt>
      <trkpt lat="44.07001" lon="3.04959">
        <ele>400.53</ele>
        <time>2017-04-20T07:58:28Z</time>
      </trkpt>
      <trkpt lat="44.0699" lon="3.04946">
        <ele>401.01</ele>
        <time>2017-04-20T07:58:41Z</time>
      </trkpt>
      <trkpt lat="44.06977" lon="3.04936">
        <ele>401.01</ele>
        <time>2017-04-20T07:58:53Z</time>
      </trkpt>
      <trkpt lat="44.06976" lon="3.04935">
        <ele>401.01</ele>
        <time>2017-04-20T07:58:54Z</time>
      </trkpt>
      <trkpt lat="44.06967" lon="3.04927">
        <ele>401.49</ele>
        <time>2017-04-20T07:59:05Z</time>
      </trkpt>
      <trkpt lat="44.06957" lon="3.04917">
        <ele>401.49</ele>
        <time>2017-04-20T07:59:17Z</time>
      </trkpt>
      <trkpt lat="44.06941" lon="3.04909">
        <ele>401.49</ele>
        <time>2017-04-20T07:59:29Z</time>
      </trkpt>
      <trkpt lat="44.06923" lon="3.04898">
        <ele>401.49</ele>
        <time>2017-04-20T07:59:40Z</time>
      </trkpt>
      <trkpt lat="44.06915" lon="3.04896">
        <ele>401.97</ele>
        <time>2017-04-20T07:59:46Z</time>
      </trkpt>
      <trkpt lat="44.06909" lon="3.04895">
        <ele>401.97</ele>
        <time>2017-04-20T07:59:52Z</time>
      </trkpt>
      <trkpt lat="44.06892" lon="3.0489">
        <ele>401.97</ele>
        <time>2017-04-20T08:00:07Z</time>
      </trkpt>
      <trkpt lat="44.06889" lon="3.04888">
        <ele>402.45</ele>
        <time>2017-04-20T08:00:10Z</time>
      </trkpt>
      <trkpt lat="44.06879" lon="3.04877">
        <ele>402.45</ele>
        <time>2017-04-20T08:00:24Z</time>
      </trkpt>
      <trkpt lat="44.06862" lon="3.04862">
        <ele>402.93</ele>
        <time>2017-04-20T08:00:39Z</time>
      </trkpt>
      <trkpt lat="44.06849" lon="3.04848">
        <ele>404.85</ele>
        <time>2017-04-20T08:00:52Z</time>
      </trkpt>
      <trkpt lat="44.06838" lon="3.04834">
        <ele>406.29</ele>
        <time>2017-04-20T08:01:06Z</time>
      </trkpt>
      <trkpt lat="44.06833" lon="3.04825">
        <ele>407.74</ele>
        <time>2017-04-20T08:01:16Z</time>
      </trkpt>
      <trkpt lat="44.06831" lon="3.0482">
        <ele>408.7</ele>
        <time>2017-04-20T08:01:29Z</time>
      </trkpt>
      <trkpt lat="44.0683" lon="3.04811">
        <ele>411.1</ele>
        <time>2017-04-20T08:01:41Z</time>
      </trkpt>
      <trkpt lat="44.06833" lon="3.04802">
        <ele>412.54</ele>
        <time>2017-04-20T08:01:58Z</time>
      </trkpt>
      <trkpt lat="44.06836" lon="3.04798">
        <ele>412.54</ele>
        <time>2017-04-20T08:02:10Z</time>
      </trkpt>
      <trkpt lat="44.06837" lon="3.04796">
        <ele>412.54</ele>
        <time>2017-04-20T08:02:11Z</time>
      </trkpt>
      <trkpt lat="44.06843" lon="3.04782">
        <ele>413.98</ele>
        <time>2017-04-20T08:02:26Z</time>
      </trkpt>
      <trkpt lat="44.06853" lon="3.04774">
        <ele>415.91</ele>
        <time>2017-04-20T08:02:41Z</time>
      </trkpt>
      <trkpt lat="44.06853" lon="3.04774">
        <ele>415.91</ele>
        <time>2017-04-20T08:02:54Z</time>
      </trkpt>
      <trkpt lat="44.06854" lon="3.04775">
        <ele>416.39</ele>
        <time>2017-04-20T08:03:19Z</time>
      </trkpt>
      <trkpt lat="44.06855" lon="3.04775">
        <ele>416.39</ele>
        <time>2017-04-20T08:03:40Z</time>
      </trkpt>
      <trkpt lat="44.06855" lon="3.04771">
        <ele>416.39</ele>
        <time>2017-04-20T08:04:04Z</time>
      </trkpt>
      <trkpt lat="44.06857" lon="3.04768">
        <ele>416.39</ele>
        <time>2017-04-20T08:04:08Z</time>
      </trkpt>
      <trkpt lat="44.06857" lon="3.04768">
        <ele>416.39</ele>
        <time>2017-04-20T08:04:09Z</time>
      </trkpt>
      <trkpt lat="44.06862" lon="3.04764">
        <ele>417.83</ele>
        <time>2017-04-20T08:04:21Z</time>
      </trkpt>
      <trkpt lat="44.06862" lon="3.04763">
        <ele>418.31</ele>
        <time>2017-04-20T08:04:24Z</time>
      </trkpt>
      <trkpt lat="44.06868" lon="3.04755">
        <ele>420.23</ele>
        <time>2017-04-20T08:04:36Z</time>
      </trkpt>
      <trkpt lat="44.0687" lon="3.04752">
        <ele>420.71</ele>
        <time>2017-04-20T08:04:41Z</time>
      </trkpt>
      <trkpt lat="44.06871" lon="3.04751">
        <ele>421.19</ele>
        <time>2017-04-20T08:04:42Z</time>
      </trkpt>
      <trkpt lat="44.06878" lon="3.04741">
        <ele>423.12</ele>
        <time>2017-04-20T08:04:54Z</time>
      </trkpt>
      <trkpt lat="44.0688" lon="3.04738">
        <ele>423.6</ele>
        <time>2017-04-20T08:05:06Z</time>
      </trkpt>
      <trkpt lat="44.06879" lon="3.04738">
        <ele>423.6</ele>
        <time>2017-04-20T08:05:22Z</time>
      </trkpt>
      <trkpt lat="44.06879" lon="3.04736">
        <ele>423.6</ele>
        <time>2017-04-20T08:05:36Z</time>
      </trkpt>
      <trkpt lat="44.06878" lon="3.04739">
        <ele>424.08</ele>
        <time>2017-04-20T08:06:01Z</time>
      </trkpt>
      <trkpt lat="44.0688" lon="3.0474">
        <ele>424.08</ele>
        <time>2017-04-20T08:06:20Z</time>
      </trkpt>
      <trkpt lat="44.0688" lon="3.04736">
        <ele>424.08</ele>
        <time>2017-04-20T08:06:33Z</time>
      </trkpt>
      <trkpt lat="44.06882" lon="3.04738">
        <ele>424.08</ele>
        <time>2017-04-20T08:06:50Z</time>
      </trkpt>
      <trkpt lat="44.06885" lon="3.04736">
        <ele>424.08</ele>
        <time>2017-04-20T08:07:13Z</time>
      </trkpt>
      <trkpt lat="44.06885" lon="3.04736">
        <ele>422.16</ele>
        <time>2017-04-20T08:07:28Z</time>
      </trkpt>
      <trkpt lat="44.06886" lon="3.04736">
        <ele>422.16</ele>
        <time>2017-04-20T08:07:29Z</time>
      </trkpt>
      <trkpt lat="44.06885" lon="3.04736">
        <ele>426.96</ele>
        <time>2017-04-20T08:07:31Z</time>
      </trkpt>
      <trkpt lat="44.06879" lon="3.04737">
        <ele>424.56</ele>
        <time>2017-04-20T08:07:47Z</time>
      </trkpt>
      <trkpt lat="44.06878" lon="3.04737">
        <ele>424.56</ele>
        <time>2017-04-20T08:08:08Z</time>
      </trkpt>
      <trkpt lat="44.06881" lon="3.04741">
        <ele>425.04</ele>
        <time>2017-04-20T08:08:37Z</time>
      </trkpt>
      <trkpt lat="44.06881" lon="3.04742">
        <ele>425.04</ele>
        <time>2017-04-20T08:09:01Z</time>
      </trkpt>
      <trkpt lat="44.0688" lon="3.04742">
        <ele>426.48</ele>
        <time>2017-04-20T08:09:14Z</time>
      </trkpt>
      <trkpt lat="44.06883" lon="3.0474">
        <ele>426.48</ele>
        <time>2017-04-20T08:09:42Z</time>
      </trkpt>
      <trkpt lat="44.06882" lon="3.04741">
        <ele>426.48</ele>
        <time>2017-04-20T08:09:58Z</time>
      </trkpt>
      <trkpt lat="44.06881" lon="3.04741">
        <ele>425.04</ele>
        <time>2017-04-20T08:10:05Z</time>
      </trkpt>
      <trkpt lat="44.06882" lon="3.0474">
        <ele>428.4</ele>
        <time>2017-04-20T08:10:10Z</time>
      </trkpt>
      <trkpt lat="44.06881" lon="3.04741">
        <ele>426.96</ele>
        <time>2017-04-20T08:10:11Z</time>
      </trkpt>
      <trkpt lat="44.0688" lon="3.0474">
        <ele>426</ele>
        <time>2017-04-20T08:10:13Z</time>
      </trkpt>
      <trkpt lat="44.06878" lon="3.04731">
        <ele>426</ele>
        <time>2017-04-20T08:10:30Z</time>
      </trkpt>
      <trkpt lat="44.06881" lon="3.04734">
        <ele>426</ele>
        <time>2017-04-20T08:10:48Z</time>
      </trkpt>
      <trkpt lat="44.06886" lon="3.04734">
        <ele>426</ele>
        <time>2017-04-20T08:11:10Z</time>
      </trkpt>
      <trkpt lat="44.06892" lon="3.0473">
        <ele>428.4</ele>
        <time>2017-04-20T08:11:25Z</time>
      </trkpt>
      <trkpt lat="44.06899" lon="3.04721">
        <ele>431.77</ele>
        <time>2017-04-20T08:11:39Z</time>
      </trkpt>
      <trkpt lat="44.069" lon="3.04716">
        <ele>433.69</ele>
        <time>2017-04-20T08:11:45Z</time>
      </trkpt>
      <trkpt lat="44.06903" lon="3.04714">
        <ele>435.13</ele>
        <time>2017-04-20T08:11:51Z</time>
      </trkpt>
      <trkpt lat="44.06906" lon="3.04706">
        <ele>438.02</ele>
        <time>2017-04-20T08:12:08Z</time>
      </trkpt>
      <trkpt lat="44.06909" lon="3.04703">
        <ele>439.46</ele>
        <time>2017-04-20T08:12:24Z</time>
      </trkpt>
      <trkpt lat="44.06908" lon="3.04705">
        <ele>439.46</ele>
        <time>2017-04-20T08:12:41Z</time>
      </trkpt>
      <trkpt lat="44.06911" lon="3.04702">
        <ele>440.9</ele>
        <time>2017-04-20T08:13:03Z</time>
      </trkpt>
      <trkpt lat="44.06917" lon="3.04695">
        <ele>443.79</ele>
        <time>2017-04-20T08:13:14Z</time>
      </trkpt>
      <trkpt lat="44.0692" lon="3.04686">
        <ele>446.67</ele>
        <time>2017-04-20T08:13:29Z</time>
      </trkpt>
      <trkpt lat="44.06923" lon="3.0468">
        <ele>449.55</ele>
        <time>2017-04-20T08:13:43Z</time>
      </trkpt>
      <trkpt lat="44.06925" lon="3.04675">
        <ele>451.96</ele>
        <time>2017-04-20T08:13:56Z</time>
      </trkpt>
      <trkpt lat="44.06926" lon="3.04668">
        <ele>455.32</ele>
        <time>2017-04-20T08:14:08Z</time>
      </trkpt>
      <trkpt lat="44.06929" lon="3.04663">
        <ele>456.76</ele>
        <time>2017-04-20T08:14:21Z</time>
      </trkpt>
      <trkpt lat="44.06929" lon="3.04655">
        <ele>459.65</ele>
        <time>2017-04-20T08:14:37Z</time>
      </trkpt>
      <trkpt lat="44.06934" lon="3.04647">
        <ele>463.01</ele>
        <time>2017-04-20T08:14:51Z</time>
      </trkpt>
      <trkpt lat="44.06934" lon="3.04639">
        <ele>464.93</ele>
        <time>2017-04-20T08:15:04Z</time>
      </trkpt>
      <trkpt lat="44.06939" lon="3.04629">
        <ele>467.82</ele>
        <time>2017-04-20T08:15:21Z</time>
      </trkpt>
      <trkpt lat="44.06942" lon="3.04631">
        <ele>468.3</ele>
        <time>2017-04-20T08:15:42Z</time>
      </trkpt>
      <trkpt lat="44.06941" lon="3.04632">
        <ele>471.18</ele>
        <time>2017-04-20T08:15:44Z</time>
      </trkpt>
      <trkpt lat="44.06942" lon="3.04622">
        <ele>471.18</ele>
        <time>2017-04-20T08:15:54Z</time>
      </trkpt>
      <trkpt lat="44.06943" lon="3.04614">
        <ele>474.07</ele>
        <time>2017-04-20T08:16:07Z</time>
      </trkpt>
      <trkpt lat="44.06945" lon="3.04608">
        <ele>476.47</ele>
        <time>2017-04-20T08:16:25Z</time>
      </trkpt>
      <trkpt lat="44.06946" lon="3.04599">
        <ele>479.35</ele>
        <time>2017-04-20T08:16:40Z</time>
      </trkpt>
      <trkpt lat="44.06948" lon="3.04595">
        <ele>481.28</ele>
        <time>2017-04-20T08:16:53Z</time>
      </trkpt>
      <trkpt lat="44.06948" lon="3.0459">
        <ele>483.2</ele>
        <time>2017-04-20T08:17:12Z</time>
      </trkpt>
      <trkpt lat="44.0695" lon="3.04587">
        <ele>485.6</ele>
        <time>2017-04-20T08:17:25Z</time>
      </trkpt>
      <trkpt lat="44.06947" lon="3.04587">
        <ele>487.05</ele>
        <time>2017-04-20T08:17:33Z</time>
      </trkpt>
      <trkpt lat="44.06949" lon="3.04582">
        <ele>487.05</ele>
        <time>2017-04-20T08:17:42Z</time>
      </trkpt>
      <trkpt lat="44.06953" lon="3.04579">
        <ele>489.45</ele>
        <time>2017-04-20T08:17:59Z</time>
      </trkpt>
      <trkpt lat="44.06957" lon="3.04572">
        <ele>492.33</ele>
        <time>2017-04-20T08:18:19Z</time>
      </trkpt>
      <trkpt lat="44.06957" lon="3.04566">
        <ele>494.26</ele>
        <time>2017-04-20T08:18:35Z</time>
      </trkpt>
      <trkpt lat="44.06959" lon="3.04559">
        <ele>496.66</ele>
        <time>2017-04-20T08:18:49Z</time>
      </trkpt>
      <trkpt lat="44.06959" lon="3.04556">
        <ele>498.1</ele>
        <time>2017-04-20T08:19:05Z</time>
      </trkpt>
      <trkpt lat="44.0696" lon="3.04548">
        <ele>500.5</ele>
        <time>2017-04-20T08:19:18Z</time>
      </trkpt>
      <trkpt lat="44.06964" lon="3.04543">
        <ele>502.91</ele>
        <time>2017-04-20T08:19:33Z</time>
      </trkpt>
      <trkpt lat="44.06963" lon="3.04537">
        <ele>504.83</ele>
        <time>2017-04-20T08:19:46Z</time>
      </trkpt>
      <trkpt lat="44.06965" lon="3.04535">
        <ele>506.75</ele>
        <time>2017-04-20T08:20:02Z</time>
      </trkpt>
      <trkpt lat="44.06968" lon="3.04529">
        <ele>509.16</ele>
        <time>2017-04-20T08:20:17Z</time>
      </trkpt>
      <trkpt lat="44.06968" lon="3.04527">
        <ele>510.12</ele>
        <time>2017-04-20T08:20:41Z</time>
      </trkpt>
      <trkpt lat="44.06971" lon="3.04521">
        <ele>512.52</ele>
        <time>2017-04-20T08:20:57Z</time>
      </trkpt>
      <trkpt lat="44.06972" lon="3.04517">
        <ele>514.44</ele>
        <time>2017-04-20T08:21:13Z</time>
      </trkpt>
      <trkpt lat="44.06971" lon="3.04511">
        <ele>516.85</ele>
        <time>2017-04-20T08:21:27Z</time>
      </trkpt>
      <trkpt lat="44.06972" lon="3.04508">
        <ele>518.77</ele>
        <time>2017-04-20T08:21:43Z</time>
      </trkpt>
      <trkpt lat="44.06976" lon="3.045">
        <ele>522.13</ele>
        <time>2017-04-20T08:21:55Z</time>
      </trkpt>
      <trkpt lat="44.06979" lon="3.04493">
        <ele>525.02</ele>
        <time>2017-04-20T08:22:05Z</time>
      </trkpt>
      <trkpt lat="44.06981" lon="3.04488">
        <ele>527.9</ele>
        <time>2017-04-20T08:22:15Z</time>
      </trkpt>
      <trkpt lat="44.06985" lon="3.04487">
        <ele>527.9</ele>
        <time>2017-04-20T08:22:28Z</time>
      </trkpt>
      <trkpt lat="44.06989" lon="3.04489">
        <ele>527.9</ele>
        <time>2017-04-20T08:22:45Z</time>
      </trkpt>
      <trkpt lat="44.06992" lon="3.04492">
        <ele>527.9</ele>
        <time>2017-04-20T08:22:57Z</time>
      </trkpt>
      <trkpt lat="44.06991" lon="3.04492">
        <ele>527.9</ele>
        <time>2017-04-20T08:23:12Z</time>
      </trkpt>
      <trkpt lat="44.06991" lon="3.04491">
        <ele>527.9</ele>
        <time>2017-04-20T08:23:32Z</time>
      </trkpt>
      <trkpt lat="44.06989" lon="3.04489">
        <ele>527.9</ele>
        <time>2017-04-20T08:23:51Z</time>
      </trkpt>
      <trkpt lat="44.06989" lon="3.04489">
        <ele>527.9</ele>
        <time>2017-04-20T08:24:11Z</time>
      </trkpt>
      <trkpt lat="44.06989" lon="3.04491">
        <ele>527.9</ele>
        <time>2017-04-20T08:24:30Z</time>
      </trkpt>
      <trkpt lat="44.06988" lon="3.04491">
        <ele>527.9</ele>
        <time>2017-04-20T08:24:49Z</time>
      </trkpt>
      <trkpt lat="44.06989" lon="3.04491">
        <ele>527.9</ele>
        <time>2017-04-20T08:25:15Z</time>
      </trkpt>
      <trkpt lat="44.06992" lon="3.04493">
        <ele>528.38</ele>
        <time>2017-04-20T08:25:29Z</time>
      </trkpt>
      <trkpt lat="44.06994" lon="3.04493">
        <ele>528.38</ele>
        <time>2017-04-20T08:25:30Z</time>
      </trkpt>
      <trkpt lat="44.07008" lon="3.04489">
        <ele>525.98</ele>
        <time>2017-04-20T08:25:46Z</time>
      </trkpt>
      <trkpt lat="44.07017" lon="3.04486">
        <ele>525.02</ele>
        <time>2017-04-20T08:26:00Z</time>
      </trkpt>
      <trkpt lat="44.07032" lon="3.04479">
        <ele>522.61</ele>
        <time>2017-04-20T08:26:15Z</time>
      </trkpt>
      <trkpt lat="44.07033" lon="3.04478">
        <ele>522.61</ele>
        <time>2017-04-20T08:26:16Z</time>
      </trkpt>
      <trkpt lat="44.07034" lon="3.04478">
        <ele>522.13</ele>
        <time>2017-04-20T08:26:17Z</time>
      </trkpt>
      <trkpt lat="44.07035" lon="3.04477">
        <ele>522.13</ele>
        <time>2017-04-20T08:26:18Z</time>
      </trkpt>
      <trkpt lat="44.07036" lon="3.04477">
        <ele>522.13</ele>
        <time>2017-04-20T08:26:19Z</time>
      </trkpt>
      <trkpt lat="44.07047" lon="3.0447">
        <ele>518.77</ele>
        <time>2017-04-20T08:26:31Z</time>
      </trkpt>
      <trkpt lat="44.07056" lon="3.04463">
        <ele>519.25</ele>
        <time>2017-04-20T08:26:42Z</time>
      </trkpt>
      <trkpt lat="44.07061" lon="3.04458">
        <ele>518.29</ele>
        <time>2017-04-20T08:26:47Z</time>
      </trkpt>
      <trkpt lat="44.07072" lon="3.04447">
        <ele>516.85</ele>
        <time>2017-04-20T08:27:01Z</time>
      </trkpt>
      <trkpt lat="44.07077" lon="3.04444">
        <ele>515.88</ele>
        <time>2017-04-20T08:27:07Z</time>
      </trkpt>
      <trkpt lat="44.07078" lon="3.04444">
        <ele>515.88</ele>
        <time>2017-04-20T08:27:08Z</time>
      </trkpt>
      <trkpt lat="44.07095" lon="3.04439">
        <ele>513.96</ele>
        <time>2017-04-20T08:27:23Z</time>
      </trkpt>
      <trkpt lat="44.07111" lon="3.04435">
        <ele>512.04</ele>
        <time>2017-04-20T08:27:38Z</time>
      </trkpt>
      <trkpt lat="44.0713" lon="3.04431">
        <ele>510.12</ele>
        <time>2017-04-20T08:27:55Z</time>
      </trkpt>
      <trkpt lat="44.07134" lon="3.04429">
        <ele>511.08</ele>
        <time>2017-04-20T08:28:02Z</time>
      </trkpt>
      <trkpt lat="44.0713" lon="3.04422">
        <ele>511.56</ele>
        <time>2017-04-20T08:28:11Z</time>
      </trkpt>
      <trkpt lat="44.07135" lon="3.04429">
        <ele>509.64</ele>
        <time>2017-04-20T08:28:18Z</time>
      </trkpt>
      <trkpt lat="44.07143" lon="3.0443">
        <ele>508.19</ele>
        <time>2017-04-20T08:28:27Z</time>
      </trkpt>
      <trkpt lat="44.07144" lon="3.0443">
        <ele>507.71</ele>
        <time>2017-04-20T08:28:28Z</time>
      </trkpt>
      <trkpt lat="44.07163" lon="3.04426">
        <ele>505.79</ele>
        <time>2017-04-20T08:28:43Z</time>
      </trkpt>
      <trkpt lat="44.07184" lon="3.04422">
        <ele>503.39</ele>
        <time>2017-04-20T08:28:57Z</time>
      </trkpt>
      <trkpt lat="44.07202" lon="3.04418">
        <ele>501.46</ele>
        <time>2017-04-20T08:29:11Z</time>
      </trkpt>
      <trkpt lat="44.07221" lon="3.04412">
        <ele>499.54</ele>
        <time>2017-04-20T08:29:27Z</time>
      </trkpt>
      <trkpt lat="44.07239" lon="3.04401">
        <ele>496.66</ele>
        <time>2017-04-20T08:29:43Z</time>
      </trkpt>
      <trkpt lat="44.07247" lon="3.04396">
        <ele>495.22</ele>
        <time>2017-04-20T08:29:51Z</time>
      </trkpt>
      <trkpt lat="44.07259" lon="3.04387">
        <ele>492.81</ele>
        <time>2017-04-20T08:30:05Z</time>
      </trkpt>
      <trkpt lat="44.0726" lon="3.04378">
        <ele>492.81</ele>
        <time>2017-04-20T08:30:11Z</time>
      </trkpt>
      <trkpt lat="44.07262" lon="3.04359">
        <ele>492.33</ele>
        <time>2017-04-20T08:30:23Z</time>
      </trkpt>
      <trkpt lat="44.07263" lon="3.04355">
        <ele>494.26</ele>
        <time>2017-04-20T08:30:26Z</time>
      </trkpt>
      <trkpt lat="44.07267" lon="3.0434">
        <ele>489.93</ele>
        <time>2017-04-20T08:30:36Z</time>
      </trkpt>
      <trkpt lat="44.07268" lon="3.04338">
        <ele>495.7</ele>
        <time>2017-04-20T08:30:37Z</time>
      </trkpt>
      <trkpt lat="44.07269" lon="3.04336">
        <ele>488.01</ele>
        <time>2017-04-20T08:30:38Z</time>
      </trkpt>
      <trkpt lat="44.07269" lon="3.04334">
        <ele>499.54</ele>
        <time>2017-04-20T08:30:39Z</time>
      </trkpt>
      <trkpt lat="44.0727" lon="3.04331">
        <ele>493.29</ele>
        <time>2017-04-20T08:30:40Z</time>
      </trkpt>
      <trkpt lat="44.0727" lon="3.04327">
        <ele>493.29</ele>
        <time>2017-04-20T08:30:49Z</time>
      </trkpt>
      <trkpt lat="44.07269" lon="3.04327">
        <ele>493.29</ele>
        <time>2017-04-20T08:31:02Z</time>
      </trkpt>
      <trkpt lat="44.07269" lon="3.04328">
        <ele>493.29</ele>
        <time>2017-04-20T08:31:28Z</time>
      </trkpt>
      <trkpt lat="44.07273" lon="3.04317">
        <ele>493.29</ele>
        <time>2017-04-20T08:31:49Z</time>
      </trkpt>
      <trkpt lat="44.07278" lon="3.043">
        <ele>494.26</ele>
        <time>2017-04-20T08:32:02Z</time>
      </trkpt>
      <trkpt lat="44.07282" lon="3.04283">
        <ele>495.7</ele>
        <time>2017-04-20T08:32:16Z</time>
      </trkpt>
      <trkpt lat="44.07286" lon="3.04264">
        <ele>498.58</ele>
        <time>2017-04-20T08:32:32Z</time>
      </trkpt>
      <trkpt lat="44.07289" lon="3.0425">
        <ele>500.98</ele>
        <time>2017-04-20T08:32:46Z</time>
      </trkpt>
      <trkpt lat="44.07292" lon="3.04237">
        <ele>503.87</ele>
        <time>2017-04-20T08:33:01Z</time>
      </trkpt>
      <trkpt lat="44.07294" lon="3.0423">
        <ele>505.31</ele>
        <time>2017-04-20T08:33:15Z</time>
      </trkpt>
      <trkpt lat="44.07298" lon="3.04214">
        <ele>507.23</ele>
        <time>2017-04-20T08:33:29Z</time>
      </trkpt>
      <trkpt lat="44.07303" lon="3.04192">
        <ele>508.67</ele>
        <time>2017-04-20T08:33:46Z</time>
      </trkpt>
      <trkpt lat="44.07305" lon="3.04183">
        <ele>509.16</ele>
        <time>2017-04-20T08:33:53Z</time>
      </trkpt>
      <trkpt lat="44.07305" lon="3.04178">
        <ele>511.08</ele>
        <time>2017-04-20T08:33:57Z</time>
      </trkpt>
      <trkpt lat="44.07304" lon="3.04176">
        <ele>509.64</ele>
        <time>2017-04-20T08:33:58Z</time>
      </trkpt>
      <trkpt lat="44.07304" lon="3.04174">
        <ele>508.67</ele>
        <time>2017-04-20T08:33:59Z</time>
      </trkpt>
      <trkpt lat="44.07303" lon="3.04173">
        <ele>513.48</ele>
        <time>2017-04-20T08:34:02Z</time>
      </trkpt>
      <trkpt lat="44.07309" lon="3.04166">
        <ele>510.6</ele>
        <time>2017-04-20T08:34:16Z</time>
      </trkpt>
      <trkpt lat="44.07313" lon="3.04161">
        <ele>512.04</ele>
        <time>2017-04-20T08:34:31Z</time>
      </trkpt>
      <trkpt lat="44.07312" lon="3.0416">
        <ele>512.04</ele>
        <time>2017-04-20T08:34:32Z</time>
      </trkpt>
      <trkpt lat="44.07315" lon="3.04141">
        <ele>515.4</ele>
        <time>2017-04-20T08:34:46Z</time>
      </trkpt>
      <trkpt lat="44.07319" lon="3.04124">
        <ele>517.33</ele>
        <time>2017-04-20T08:35:00Z</time>
      </trkpt>
      <trkpt lat="44.07321" lon="3.04117">
        <ele>517.81</ele>
        <time>2017-04-20T08:35:13Z</time>
      </trkpt>
      <trkpt lat="44.07322" lon="3.04116">
        <ele>518.29</ele>
        <time>2017-04-20T08:35:27Z</time>
      </trkpt>
      <trkpt lat="44.07321" lon="3.04117">
        <ele>518.29</ele>
        <time>2017-04-20T08:35:43Z</time>
      </trkpt>
      <trkpt lat="44.0732" lon="3.04115">
        <ele>517.81</ele>
        <time>2017-04-20T08:36:12Z</time>
      </trkpt>
      <trkpt lat="44.07323" lon="3.04119">
        <ele>516.37</ele>
        <time>2017-04-20T08:36:22Z</time>
      </trkpt>
      <trkpt lat="44.07324" lon="3.04121">
        <ele>516.37</ele>
        <time>2017-04-20T08:36:30Z</time>
      </trkpt>
      <trkpt lat="44.07326" lon="3.04123">
        <ele>515.4</ele>
        <time>2017-04-20T08:36:43Z</time>
      </trkpt>
      <trkpt lat="44.07323" lon="3.0412">
        <ele>515.4</ele>
        <time>2017-04-20T08:37:02Z</time>
      </trkpt>
      <trkpt lat="44.07322" lon="3.04117">
        <ele>516.85</ele>
        <time>2017-04-20T08:37:06Z</time>
      </trkpt>
      <trkpt lat="44.07323" lon="3.04116">
        <ele>516.85</ele>
        <time>2017-04-20T08:37:10Z</time>
      </trkpt>
      <trkpt lat="44.07324" lon="3.04115">
        <ele>510.12</ele>
        <time>2017-04-20T08:37:13Z</time>
      </trkpt>
      <trkpt lat="44.07324" lon="3.04116">
        <ele>524.54</ele>
        <time>2017-04-20T08:37:14Z</time>
      </trkpt>
      <trkpt lat="44.07324" lon="3.04116">
        <ele>516.37</ele>
        <time>2017-04-20T08:37:15Z</time>
      </trkpt>
      <trkpt lat="44.07324" lon="3.04112">
        <ele>514.92</ele>
        <time>2017-04-20T08:37:24Z</time>
      </trkpt>
      <trkpt lat="44.07325" lon="3.0411">
        <ele>518.29</ele>
        <time>2017-04-20T08:37:25Z</time>
      </trkpt>
      <trkpt lat="44.07325" lon="3.04112">
        <ele>516.37</ele>
        <time>2017-04-20T08:37:26Z</time>
      </trkpt>
      <trkpt lat="44.07324" lon="3.04106">
        <ele>518.77</ele>
        <time>2017-04-20T08:37:34Z</time>
      </trkpt>
      <trkpt lat="44.07328" lon="3.04102">
        <ele>518.77</ele>
        <time>2017-04-20T08:37:42Z</time>
      </trkpt>
      <trkpt lat="44.0733" lon="3.04102">
        <ele>517.33</ele>
        <time>2017-04-20T08:37:46Z</time>
      </trkpt>
      <trkpt lat="44.07328" lon="3.04103">
        <ele>516.85</ele>
        <time>2017-04-20T08:38:15Z</time>
      </trkpt>
      <trkpt lat="44.07327" lon="3.041">
        <ele>516.85</ele>
        <time>2017-04-20T08:38:18Z</time>
      </trkpt>
      <trkpt lat="44.07327" lon="3.04097">
        <ele>516.85</ele>
        <time>2017-04-20T08:38:20Z</time>
      </trkpt>
      <trkpt lat="44.07328" lon="3.04095">
        <ele>516.85</ele>
        <time>2017-04-20T08:38:21Z</time>
      </trkpt>
      <trkpt lat="44.07329" lon="3.04091">
        <ele>516.37</ele>
        <time>2017-04-20T08:38:23Z</time>
      </trkpt>
      <trkpt lat="44.07329" lon="3.0409">
        <ele>518.77</ele>
        <time>2017-04-20T08:38:24Z</time>
      </trkpt>
      <trkpt lat="44.0733" lon="3.04088">
        <ele>518.77</ele>
        <time>2017-04-20T08:38:25Z</time>
      </trkpt>
      <trkpt lat="44.0733" lon="3.04086">
        <ele>518.77</ele>
        <time>2017-04-20T08:38:26Z</time>
      </trkpt>
      <trkpt lat="44.07331" lon="3.04084">
        <ele>517.33</ele>
        <time>2017-04-20T08:38:27Z</time>
      </trkpt>
      <trkpt lat="44.07331" lon="3.04082">
        <ele>516.37</ele>
        <time>2017-04-20T08:38:28Z</time>
      </trkpt>
      <trkpt lat="44.07333" lon="3.04081">
        <ele>512.52</ele>
        <time>2017-04-20T08:38:29Z</time>
      </trkpt>
      <trkpt lat="44.07334" lon="3.04079">
        <ele>521.65</ele>
        <time>2017-04-20T08:38:30Z</time>
      </trkpt>
      <trkpt lat="44.07334" lon="3.04079">
        <ele>515.88</ele>
        <time>2017-04-20T08:38:31Z</time>
      </trkpt>
      <trkpt lat="44.07334" lon="3.04077">
        <ele>515.88</ele>
        <time>2017-04-20T08:38:32Z</time>
      </trkpt>
      <trkpt lat="44.07338" lon="3.0406">
        <ele>514.92</ele>
        <time>2017-04-20T08:38:41Z</time>
      </trkpt>
      <trkpt lat="44.07333" lon="3.04049">
        <ele>515.88</ele>
        <time>2017-04-20T08:38:51Z</time>
      </trkpt>
      <trkpt lat="44.07329" lon="3.04047">
        <ele>517.81</ele>
        <time>2017-04-20T08:38:56Z</time>
      </trkpt>
      <trkpt lat="44.07321" lon="3.04036">
        <ele>521.17</ele>
        <time>2017-04-20T08:39:08Z</time>
      </trkpt>
      <trkpt lat="44.07314" lon="3.04025">
        <ele>524.06</ele>
        <time>2017-04-20T08:39:21Z</time>
      </trkpt>
      <trkpt lat="44.07311" lon="3.04022">
        <ele>525.02</ele>
        <time>2017-04-20T08:39:36Z</time>
      </trkpt>
      <trkpt lat="44.07311" lon="3.04023">
        <ele>525.02</ele>
        <time>2017-04-20T08:39:40Z</time>
      </trkpt>
      <trkpt lat="44.07308" lon="3.04026">
        <ele>525.5</ele>
        <time>2017-04-20T08:39:44Z</time>
      </trkpt>
      <trkpt lat="44.07307" lon="3.04027">
        <ele>525.5</ele>
        <time>2017-04-20T08:39:45Z</time>
      </trkpt>
      <trkpt lat="44.07306" lon="3.04028">
        <ele>525.5</ele>
        <time>2017-04-20T08:39:46Z</time>
      </trkpt>
      <trkpt lat="44.07305" lon="3.04029">
        <ele>525.98</ele>
        <time>2017-04-20T08:39:47Z</time>
      </trkpt>
      <trkpt lat="44.07305" lon="3.04031">
        <ele>525.98</ele>
        <time>2017-04-20T08:39:48Z</time>
      </trkpt>
      <trkpt lat="44.07305" lon="3.04032">
        <ele>525.98</ele>
        <time>2017-04-20T08:39:49Z</time>
      </trkpt>
      <trkpt lat="44.07305" lon="3.04034">
        <ele>525.98</ele>
        <time>2017-04-20T08:39:50Z</time>
      </trkpt>
      <trkpt lat="44.07306" lon="3.04049">
        <ele>527.9</ele>
        <time>2017-04-20T08:40:02Z</time>
      </trkpt>
      <trkpt lat="44.07305" lon="3.04055">
        <ele>528.86</ele>
        <time>2017-04-20T08:40:07Z</time>
      </trkpt>
      <trkpt lat="44.07298" lon="3.04074">
        <ele>531.27</ele>
        <time>2017-04-20T08:40:22Z</time>
      </trkpt>
      <trkpt lat="44.07292" lon="3.04083">
        <ele>534.15</ele>
        <time>2017-04-20T08:40:38Z</time>
      </trkpt>
      <trkpt lat="44.07284" lon="3.04097">
        <ele>536.07</ele>
        <time>2017-04-20T08:40:53Z</time>
      </trkpt>
      <trkpt lat="44.07278" lon="3.04108">
        <ele>538.48</ele>
        <time>2017-04-20T08:41:08Z</time>
      </trkpt>
      <trkpt lat="44.07269" lon="3.04118">
        <ele>540.88</ele>
        <time>2017-04-20T08:41:26Z</time>
      </trkpt>
      <trkpt lat="44.07263" lon="3.04124">
        <ele>543.28</ele>
        <time>2017-04-20T08:41:42Z</time>
      </trkpt>
      <trkpt lat="44.07262" lon="3.04124">
        <ele>545.2</ele>
        <time>2017-04-20T08:41:59Z</time>
      </trkpt>
      <trkpt lat="44.07255" lon="3.0413">
        <ele>545.2</ele>
        <time>2017-04-20T08:42:11Z</time>
      </trkpt>
      <trkpt lat="44.07246" lon="3.04138">
        <ele>547.61</ele>
        <time>2017-04-20T08:42:26Z</time>
      </trkpt>
      <trkpt lat="44.07237" lon="3.04145">
        <ele>550.97</ele>
        <time>2017-04-20T08:42:41Z</time>
      </trkpt>
      <trkpt lat="44.07225" lon="3.04155">
        <ele>553.86</ele>
        <time>2017-04-20T08:42:57Z</time>
      </trkpt>
      <trkpt lat="44.07217" lon="3.0416">
        <ele>555.78</ele>
        <time>2017-04-20T08:43:14Z</time>
      </trkpt>
      <trkpt lat="44.07211" lon="3.04163">
        <ele>558.66</ele>
        <time>2017-04-20T08:43:29Z</time>
      </trkpt>
      <trkpt lat="44.07209" lon="3.04165">
        <ele>559.62</ele>
        <time>2017-04-20T08:43:50Z</time>
      </trkpt>
      <trkpt lat="44.07211" lon="3.04164">
        <ele>560.11</ele>
        <time>2017-04-20T08:44:23Z</time>
      </trkpt>
      <trkpt lat="44.07204" lon="3.04166">
        <ele>562.51</ele>
        <time>2017-04-20T08:44:44Z</time>
      </trkpt>
      <trkpt lat="44.07197" lon="3.04171">
        <ele>563.95</ele>
        <time>2017-04-20T08:44:53Z</time>
      </trkpt>
      <trkpt lat="44.07193" lon="3.0417">
        <ele>568.28</ele>
        <time>2017-04-20T08:44:57Z</time>
      </trkpt>
      <trkpt lat="44.07192" lon="3.04169">
        <ele>565.39</ele>
        <time>2017-04-20T08:44:59Z</time>
      </trkpt>
      <trkpt lat="44.07188" lon="3.0417">
        <ele>566.83</ele>
        <time>2017-04-20T08:45:04Z</time>
      </trkpt>
      <trkpt lat="44.07174" lon="3.0418">
        <ele>570.2</ele>
        <time>2017-04-20T08:45:20Z</time>
      </trkpt>
      <trkpt lat="44.07162" lon="3.04187">
        <ele>572.6</ele>
        <time>2017-04-20T08:45:35Z</time>
      </trkpt>
      <trkpt lat="44.07151" lon="3.04191">
        <ele>575.01</ele>
        <time>2017-04-20T08:45:51Z</time>
      </trkpt>
      <trkpt lat="44.07141" lon="3.04197">
        <ele>577.41</ele>
        <time>2017-04-20T08:46:06Z</time>
      </trkpt>
      <trkpt lat="44.07136" lon="3.042">
        <ele>577.89</ele>
        <time>2017-04-20T08:46:21Z</time>
      </trkpt>
      <trkpt lat="44.07131" lon="3.04203">
        <ele>578.37</ele>
        <time>2017-04-20T08:46:46Z</time>
      </trkpt>
      <trkpt lat="44.07122" lon="3.04205">
        <ele>580.29</ele>
        <time>2017-04-20T08:47:03Z</time>
      </trkpt>
      <trkpt lat="44.07111" lon="3.04209">
        <ele>583.18</ele>
        <time>2017-04-20T08:47:19Z</time>
      </trkpt>
      <trkpt lat="44.07109" lon="3.04212">
        <ele>583.18</ele>
        <time>2017-04-20T08:47:42Z</time>
      </trkpt>
      <trkpt lat="44.07108" lon="3.04212">
        <ele>582.7</ele>
        <time>2017-04-20T08:48:04Z</time>
      </trkpt>
      <trkpt lat="44.0711" lon="3.0421">
        <ele>582.7</ele>
        <time>2017-04-20T08:48:21Z</time>
      </trkpt>
      <trkpt lat="44.071" lon="3.04212">
        <ele>585.1</ele>
        <time>2017-04-20T08:48:36Z</time>
      </trkpt>
      <trkpt lat="44.07089" lon="3.04215">
        <ele>588.46</ele>
        <time>2017-04-20T08:48:50Z</time>
      </trkpt>
      <trkpt lat="44.07079" lon="3.04217">
        <ele>591.35</ele>
        <time>2017-04-20T08:49:06Z</time>
      </trkpt>
      <trkpt lat="44.07069" lon="3.0422">
        <ele>594.71</ele>
        <time>2017-04-20T08:49:23Z</time>
      </trkpt>
      <trkpt lat="44.07061" lon="3.04223">
        <ele>597.12</ele>
        <time>2017-04-20T08:49:38Z</time>
      </trkpt>
      <trkpt lat="44.07059" lon="3.04223">
        <ele>598.56</ele>
        <time>2017-04-20T08:49:44Z</time>
      </trkpt>
      <trkpt lat="44.07057" lon="3.04223">
        <ele>596.64</ele>
        <time>2017-04-20T08:49:51Z</time>
      </trkpt>
      <trkpt lat="44.07053" lon="3.04227">
        <ele>598.08</ele>
        <time>2017-04-20T08:50:11Z</time>
      </trkpt>
      <trkpt lat="44.07043" lon="3.04233">
        <ele>600.48</ele>
        <time>2017-04-20T08:50:27Z</time>
      </trkpt>
      <trkpt lat="44.07031" lon="3.04239">
        <ele>601.92</ele>
        <time>2017-04-20T08:50:42Z</time>
      </trkpt>
      <trkpt lat="44.07018" lon="3.04246">
        <ele>604.33</ele>
        <time>2017-04-20T08:50:58Z</time>
      </trkpt>
      <trkpt lat="44.07006" lon="3.04254">
        <ele>606.25</ele>
        <time>2017-04-20T08:51:14Z</time>
      </trkpt>
      <trkpt lat="44.06993" lon="3.04268">
        <ele>608.65</ele>
        <time>2017-04-20T08:51:32Z</time>
      </trkpt>
      <trkpt lat="44.06983" lon="3.04277">
        <ele>611.54</ele>
        <time>2017-04-20T08:51:51Z</time>
      </trkpt>
      <trkpt lat="44.0697" lon="3.04283">
        <ele>614.42</ele>
        <time>2017-04-20T08:52:16Z</time>
      </trkpt>
      <trkpt lat="44.06969" lon="3.04282">
        <ele>613.94</ele>
        <time>2017-04-20T08:52:37Z</time>
      </trkpt>
      <trkpt lat="44.06966" lon="3.04282">
        <ele>614.9</ele>
        <time>2017-04-20T08:52:54Z</time>
      </trkpt>
      <trkpt lat="44.06965" lon="3.04285">
        <ele>615.38</ele>
        <time>2017-04-20T08:53:06Z</time>
      </trkpt>
      <trkpt lat="44.06966" lon="3.04289">
        <ele>613.46</ele>
        <time>2017-04-20T08:53:20Z</time>
      </trkpt>
      <trkpt lat="44.06965" lon="3.0429">
        <ele>613.46</ele>
        <time>2017-04-20T08:53:38Z</time>
      </trkpt>
      <trkpt lat="44.06965" lon="3.04286">
        <ele>614.42</ele>
        <time>2017-04-20T08:53:57Z</time>
      </trkpt>
      <trkpt lat="44.06962" lon="3.04283">
        <ele>614.9</ele>
        <time>2017-04-20T08:54:17Z</time>
      </trkpt>
      <trkpt lat="44.06955" lon="3.04278">
        <ele>617.3</ele>
        <time>2017-04-20T08:54:27Z</time>
      </trkpt>
      <trkpt lat="44.06945" lon="3.04265">
        <ele>619.71</ele>
        <time>2017-04-20T08:54:40Z</time>
      </trkpt>
      <trkpt lat="44.0693" lon="3.04257">
        <ele>621.15</ele>
        <time>2017-04-20T08:54:54Z</time>
      </trkpt>
      <trkpt lat="44.06922" lon="3.04255">
        <ele>623.07</ele>
        <time>2017-04-20T08:55:02Z</time>
      </trkpt>
      <trkpt lat="44.06911" lon="3.04256">
        <ele>624.51</ele>
        <time>2017-04-20T08:55:14Z</time>
      </trkpt>
      <trkpt lat="44.06903" lon="3.04255">
        <ele>625.96</ele>
        <time>2017-04-20T08:55:27Z</time>
      </trkpt>
      <trkpt lat="44.06894" lon="3.04255">
        <ele>625.96</ele>
        <time>2017-04-20T08:55:49Z</time>
      </trkpt>
      <trkpt lat="44.06884" lon="3.04255">
        <ele>627.4</ele>
        <time>2017-04-20T08:56:05Z</time>
      </trkpt>
      <trkpt lat="44.06879" lon="3.04253">
        <ele>627.4</ele>
        <time>2017-04-20T08:56:20Z</time>
      </trkpt>
      <trkpt lat="44.06876" lon="3.04254">
        <ele>628.36</ele>
        <time>2017-04-20T08:56:35Z</time>
      </trkpt>
      <trkpt lat="44.06876" lon="3.04258">
        <ele>628.36</ele>
        <time>2017-04-20T08:57:03Z</time>
      </trkpt>
      <trkpt lat="44.06875" lon="3.04257">
        <ele>628.36</ele>
        <time>2017-04-20T08:57:24Z</time>
      </trkpt>
      <trkpt lat="44.06875" lon="3.04263">
        <ele>628.36</ele>
        <time>2017-04-20T08:57:42Z</time>
      </trkpt>
      <trkpt lat="44.06876" lon="3.04262">
        <ele>628.36</ele>
        <time>2017-04-20T08:58:02Z</time>
      </trkpt>
      <trkpt lat="44.06876" lon="3.04259">
        <ele>628.36</ele>
        <time>2017-04-20T08:58:19Z</time>
      </trkpt>
      <trkpt lat="44.06877" lon="3.04255">
        <ele>628.36</ele>
        <time>2017-04-20T08:58:32Z</time>
      </trkpt>
      <trkpt lat="44.06878" lon="3.04253">
        <ele>628.84</ele>
        <time>2017-04-20T08:58:56Z</time>
      </trkpt>
      <trkpt lat="44.06877" lon="3.04249">
        <ele>629.32</ele>
        <time>2017-04-20T08:59:11Z</time>
      </trkpt>
      <trkpt lat="44.06877" lon="3.04249">
        <ele>629.32</ele>
        <time>2017-04-20T08:59:29Z</time>
      </trkpt>
      <trkpt lat="44.06876" lon="3.0425">
        <ele>628.84</ele>
        <time>2017-04-20T08:59:47Z</time>
      </trkpt>
      <trkpt lat="44.06876" lon="3.0425">
        <ele>628.84</ele>
        <time>2017-04-20T09:00:10Z</time>
      </trkpt>
      <trkpt lat="44.06876" lon="3.0425">
        <ele>624.51</ele>
        <time>2017-04-20T09:00:16Z</time>
      </trkpt>
      <trkpt lat="44.06876" lon="3.04251">
        <ele>633.17</ele>
        <time>2017-04-20T09:00:17Z</time>
      </trkpt>
      <trkpt lat="44.06876" lon="3.04251">
        <ele>628.36</ele>
        <time>2017-04-20T09:00:18Z</time>
      </trkpt>
      <trkpt lat="44.06878" lon="3.04249">
        <ele>628.36</ele>
        <time>2017-04-20T09:00:42Z</time>
      </trkpt>
      <trkpt lat="44.06878" lon="3.0425">
        <ele>628.36</ele>
        <time>2017-04-20T09:01:08Z</time>
      </trkpt>
      <trkpt lat="44.06879" lon="3.04248">
        <ele>628.36</ele>
        <time>2017-04-20T09:01:37Z</time>
      </trkpt>
      <trkpt lat="44.06873" lon="3.04242">
        <ele>627.88</ele>
        <time>2017-04-20T09:01:51Z</time>
      </trkpt>
      <trkpt lat="44.06865" lon="3.04236">
        <ele>626.92</ele>
        <time>2017-04-20T09:02:04Z</time>
      </trkpt>
      <trkpt lat="44.06862" lon="3.04235">
        <ele>626.44</ele>
        <time>2017-04-20T09:02:07Z</time>
      </trkpt>
      <trkpt lat="44.06861" lon="3.04234">
        <ele>625.96</ele>
        <time>2017-04-20T09:02:08Z</time>
      </trkpt>
      <trkpt lat="44.0686" lon="3.04234">
        <ele>625.96</ele>
        <time>2017-04-20T09:02:09Z</time>
      </trkpt>
      <trkpt lat="44.06859" lon="3.04233">
        <ele>625.96</ele>
        <time>2017-04-20T09:02:10Z</time>
      </trkpt>
      <trkpt lat="44.06857" lon="3.04233">
        <ele>625.96</ele>
        <time>2017-04-20T09:02:11Z</time>
      </trkpt>
      <trkpt lat="44.06856" lon="3.04233">
        <ele>625.96</ele>
        <time>2017-04-20T09:02:12Z</time>
      </trkpt>
      <trkpt lat="44.06855" lon="3.04233">
        <ele>625.47</ele>
        <time>2017-04-20T09:02:13Z</time>
      </trkpt>
      <trkpt lat="44.06854" lon="3.04233">
        <ele>625.47</ele>
        <time>2017-04-20T09:02:14Z</time>
      </trkpt>
      <trkpt lat="44.06851" lon="3.04235">
        <ele>624.99</ele>
        <time>2017-04-20T09:02:17Z</time>
      </trkpt>
      <trkpt lat="44.0685" lon="3.04236">
        <ele>624.99</ele>
        <time>2017-04-20T09:02:18Z</time>
      </trkpt>
      <trkpt lat="44.06849" lon="3.04237">
        <ele>624.51</ele>
        <time>2017-04-20T09:02:19Z</time>
      </trkpt>
      <trkpt lat="44.06848" lon="3.04238">
        <ele>620.19</ele>
        <time>2017-04-20T09:02:20Z</time>
      </trkpt>
      <trkpt lat="44.06847" lon="3.04239">
        <ele>619.71</ele>
        <time>2017-04-20T09:02:21Z</time>
      </trkpt>
      <trkpt lat="44.06846" lon="3.0424">
        <ele>631.72</ele>
        <time>2017-04-20T09:02:22Z</time>
      </trkpt>
      <trkpt lat="44.06845" lon="3.0424">
        <ele>625.47</ele>
        <time>2017-04-20T09:02:23Z</time>
      </trkpt>
      <trkpt lat="44.06842" lon="3.04241">
        <ele>624.51</ele>
        <time>2017-04-20T09:02:25Z</time>
      </trkpt>
      <trkpt lat="44.06837" lon="3.04242">
        <ele>624.51</ele>
        <time>2017-04-20T09:02:29Z</time>
      </trkpt>
      <trkpt lat="44.06835" lon="3.04242">
        <ele>624.51</ele>
        <time>2017-04-20T09:02:30Z</time>
      </trkpt>
      <trkpt lat="44.0682" lon="3.04249">
        <ele>623.55</ele>
        <time>2017-04-20T09:02:46Z</time>
      </trkpt>
      <trkpt lat="44.06807" lon="3.04254">
        <ele>623.55</ele>
        <time>2017-04-20T09:02:59Z</time>
      </trkpt>
      <trkpt lat="44.06797" lon="3.04253">
        <ele>626.92</ele>
        <time>2017-04-20T09:03:11Z</time>
      </trkpt>
      <trkpt lat="44.06792" lon="3.04257">
        <ele>627.4</ele>
        <time>2017-04-20T09:03:17Z</time>
      </trkpt>
      <trkpt lat="44.06782" lon="3.04266">
        <ele>627.4</ele>
        <time>2017-04-20T09:03:31Z</time>
      </trkpt>
      <trkpt lat="44.06781" lon="3.04268">
        <ele>627.4</ele>
        <time>2017-04-20T09:03:52Z</time>
      </trkpt>
      <trkpt lat="44.06777" lon="3.04273">
        <ele>627.4</ele>
        <time>2017-04-20T09:04:11Z</time>
      </trkpt>
      <trkpt lat="44.0676" lon="3.04286">
        <ele>628.84</ele>
        <time>2017-04-20T09:04:28Z</time>
      </trkpt>
      <trkpt lat="44.06745" lon="3.04293">
        <ele>630.76</ele>
        <time>2017-04-20T09:04:44Z</time>
      </trkpt>
      <trkpt lat="44.06736" lon="3.04294">
        <ele>631.72</ele>
        <time>2017-04-20T09:04:52Z</time>
      </trkpt>
      <trkpt lat="44.06723" lon="3.04292">
        <ele>632.68</ele>
        <time>2017-04-20T09:05:04Z</time>
      </trkpt>
      <trkpt lat="44.06708" lon="3.04296">
        <ele>634.13</ele>
        <time>2017-04-20T09:05:20Z</time>
      </trkpt>
      <trkpt lat="44.06691" lon="3.04313">
        <ele>634.13</ele>
        <time>2017-04-20T09:05:36Z</time>
      </trkpt>
      <trkpt lat="44.0668" lon="3.04328">
        <ele>637.01</ele>
        <time>2017-04-20T09:05:52Z</time>
      </trkpt>
      <trkpt lat="44.06662" lon="3.04334">
        <ele>638.45</ele>
        <time>2017-04-20T09:06:06Z</time>
      </trkpt>
      <trkpt lat="44.06652" lon="3.04328">
        <ele>639.89</ele>
        <time>2017-04-20T09:06:17Z</time>
      </trkpt>
      <trkpt lat="44.06641" lon="3.04321">
        <ele>642.3</ele>
        <time>2017-04-20T09:06:32Z</time>
      </trkpt>
      <trkpt lat="44.06638" lon="3.04321">
        <ele>642.3</ele>
        <time>2017-04-20T09:06:50Z</time>
      </trkpt>
      <trkpt lat="44.06628" lon="3.04318">
        <ele>642.3</ele>
        <time>2017-04-20T09:07:07Z</time>
      </trkpt>
      <trkpt lat="44.06618" lon="3.04313">
        <ele>644.22</ele>
        <time>2017-04-20T09:07:20Z</time>
      </trkpt>
      <trkpt lat="44.06611" lon="3.04307">
        <ele>646.14</ele>
        <time>2017-04-20T09:07:32Z</time>
      </trkpt>
      <trkpt lat="44.06606" lon="3.04298">
        <ele>647.1</ele>
        <time>2017-04-20T09:07:42Z</time>
      </trkpt>
      <trkpt lat="44.06604" lon="3.04298">
        <ele>647.1</ele>
        <time>2017-04-20T09:07:43Z</time>
      </trkpt>
      <trkpt lat="44.06603" lon="3.04298">
        <ele>647.1</ele>
        <time>2017-04-20T09:07:44Z</time>
      </trkpt>
      <trkpt lat="44.06592" lon="3.04298">
        <ele>648.07</ele>
        <time>2017-04-20T09:07:58Z</time>
      </trkpt>
      <trkpt lat="44.06591" lon="3.04304">
        <ele>649.03</ele>
        <time>2017-04-20T09:08:12Z</time>
      </trkpt>
      <trkpt lat="44.06585" lon="3.04303">
        <ele>650.95</ele>
        <time>2017-04-20T09:08:27Z</time>
      </trkpt>
      <trkpt lat="44.06584" lon="3.04305">
        <ele>651.43</ele>
        <time>2017-04-20T09:08:53Z</time>
      </trkpt>
      <trkpt lat="44.06583" lon="3.04304">
        <ele>651.43</ele>
        <time>2017-04-20T09:09:18Z</time>
      </trkpt>
      <trkpt lat="44.0658" lon="3.0431">
        <ele>652.87</ele>
        <time>2017-04-20T09:09:33Z</time>
      </trkpt>
      <trkpt lat="44.06582" lon="3.04306">
        <ele>652.39</ele>
        <time>2017-04-20T09:09:46Z</time>
      </trkpt>
      <trkpt lat="44.06578" lon="3.04302">
        <ele>654.8</ele>
        <time>2017-04-20T09:10:00Z</time>
      </trkpt>
      <trkpt lat="44.06582" lon="3.04303">
        <ele>654.8</ele>
        <time>2017-04-20T09:10:24Z</time>
      </trkpt>
      <trkpt lat="44.0658" lon="3.04304">
        <ele>654.8</ele>
        <time>2017-04-20T09:10:50Z</time>
      </trkpt>
      <trkpt lat="44.06576" lon="3.04304">
        <ele>655.76</ele>
        <time>2017-04-20T09:11:11Z</time>
      </trkpt>
      <trkpt lat="44.06571" lon="3.04301">
        <ele>659.12</ele>
        <time>2017-04-20T09:11:22Z</time>
      </trkpt>
      <trkpt lat="44.06564" lon="3.04296">
        <ele>662.49</ele>
        <time>2017-04-20T09:11:34Z</time>
      </trkpt>
      <trkpt lat="44.06557" lon="3.04295">
        <ele>665.85</ele>
        <time>2017-04-20T09:11:52Z</time>
      </trkpt>
      <trkpt lat="44.06552" lon="3.04299">
        <ele>667.77</ele>
        <time>2017-04-20T09:12:05Z</time>
      </trkpt>
      <trkpt lat="44.06548" lon="3.04303">
        <ele>670.66</ele>
        <time>2017-04-20T09:12:22Z</time>
      </trkpt>
      <trkpt lat="44.06542" lon="3.04307">
        <ele>673.54</ele>
        <time>2017-04-20T09:12:38Z</time>
      </trkpt>
      <trkpt lat="44.06539" lon="3.04311">
        <ele>674.98</ele>
        <time>2017-04-20T09:12:52Z</time>
      </trkpt>
      <trkpt lat="44.06538" lon="3.04313">
        <ele>674.98</ele>
        <time>2017-04-20T09:13:09Z</time>
      </trkpt>
      <trkpt lat="44.06533" lon="3.04318">
        <ele>677.87</ele>
        <time>2017-04-20T09:13:21Z</time>
      </trkpt>
      <trkpt lat="44.06528" lon="3.04329">
        <ele>679.79</ele>
        <time>2017-04-20T09:13:37Z</time>
      </trkpt>
      <trkpt lat="44.06527" lon="3.04331">
        <ele>683.63</ele>
        <time>2017-04-20T09:13:53Z</time>
      </trkpt>
      <trkpt lat="44.06527" lon="3.0433">
        <ele>679.79</ele>
        <time>2017-04-20T09:13:54Z</time>
      </trkpt>
      <trkpt lat="44.06527" lon="3.04331">
        <ele>679.79</ele>
        <time>2017-04-20T09:14:13Z</time>
      </trkpt>
      <trkpt lat="44.06529" lon="3.04324">
        <ele>679.79</ele>
        <time>2017-04-20T09:14:28Z</time>
      </trkpt>
      <trkpt lat="44.06531" lon="3.0432">
        <ele>678.35</ele>
        <time>2017-04-20T09:14:44Z</time>
      </trkpt>
      <trkpt lat="44.06529" lon="3.04319">
        <ele>682.19</ele>
        <time>2017-04-20T09:14:59Z</time>
      </trkpt>
      <trkpt lat="44.06529" lon="3.04319">
        <ele>678.35</ele>
        <time>2017-04-20T09:15:00Z</time>
      </trkpt>
      <trkpt lat="44.06531" lon="3.0432">
        <ele>678.35</ele>
        <time>2017-04-20T09:15:29Z</time>
      </trkpt>
      <trkpt lat="44.06526" lon="3.04321">
        <ele>679.79</ele>
        <time>2017-04-20T09:15:40Z</time>
      </trkpt>
      <trkpt lat="44.06522" lon="3.04312">
        <ele>683.63</ele>
        <time>2017-04-20T09:15:56Z</time>
      </trkpt>
      <trkpt lat="44.06516" lon="3.04308">
        <ele>686.52</ele>
        <time>2017-04-20T09:16:13Z</time>
      </trkpt>
      <trkpt lat="44.0651" lon="3.043">
        <ele>688.92</ele>
        <time>2017-04-20T09:16:29Z</time>
      </trkpt>
      <trkpt lat="44.0651" lon="3.04298">
        <ele>685.56</ele>
        <time>2017-04-20T09:16:46Z</time>
      </trkpt>
      <trkpt lat="44.0651" lon="3.04298">
        <ele>692.77</ele>
        <time>2017-04-20T09:16:47Z</time>
      </trkpt>
      <trkpt lat="44.0651" lon="3.04298">
        <ele>688.92</ele>
        <time>2017-04-20T09:16:48Z</time>
      </trkpt>
      <trkpt lat="44.06508" lon="3.04294">
        <ele>688.92</ele>
        <time>2017-04-20T09:17:06Z</time>
      </trkpt>
      <trkpt lat="44.0651" lon="3.04293">
        <ele>688.92</ele>
        <time>2017-04-20T09:17:29Z</time>
      </trkpt>
      <trkpt lat="44.0651" lon="3.04294">
        <ele>688.92</ele>
        <time>2017-04-20T09:17:55Z</time>
      </trkpt>
      <trkpt lat="44.06509" lon="3.04293">
        <ele>688.92</ele>
        <time>2017-04-20T09:18:19Z</time>
      </trkpt>
      <trkpt lat="44.06505" lon="3.04292">
        <ele>690.36</ele>
        <time>2017-04-20T09:18:24Z</time>
      </trkpt>
      <trkpt lat="44.06499" lon="3.04294">
        <ele>693.25</ele>
        <time>2017-04-20T09:18:36Z</time>
      </trkpt>
      <trkpt lat="44.0649" lon="3.04295">
        <ele>696.61</ele>
        <time>2017-04-20T09:18:51Z</time>
      </trkpt>
      <trkpt lat="44.06483" lon="3.04293">
        <ele>699.5</ele>
        <time>2017-04-20T09:19:07Z</time>
      </trkpt>
      <trkpt lat="44.06478" lon="3.04304">
        <ele>701.9</ele>
        <time>2017-04-20T09:19:23Z</time>
      </trkpt>
      <trkpt lat="44.06468" lon="3.0431">
        <ele>704.78</ele>
        <time>2017-04-20T09:19:40Z</time>
      </trkpt>
      <trkpt lat="44.06459" lon="3.04312">
        <ele>705.75</ele>
        <time>2017-04-20T09:19:53Z</time>
      </trkpt>
      <trkpt lat="44.06448" lon="3.04317">
        <ele>706.71</ele>
        <time>2017-04-20T09:20:07Z</time>
      </trkpt>
      <trkpt lat="44.06446" lon="3.04309">
        <ele>706.71</ele>
        <time>2017-04-20T09:20:19Z</time>
      </trkpt>
      <trkpt lat="44.06445" lon="3.04307">
        <ele>705.26</ele>
        <time>2017-04-20T09:20:33Z</time>
      </trkpt>
      <trkpt lat="44.06448" lon="3.04313">
        <ele>705.75</ele>
        <time>2017-04-20T09:20:43Z</time>
      </trkpt>
      <trkpt lat="44.0645" lon="3.04318">
        <ele>705.75</ele>
        <time>2017-04-20T09:20:53Z</time>
      </trkpt>
      <trkpt lat="44.06449" lon="3.04318">
        <ele>706.23</ele>
        <time>2017-04-20T09:21:13Z</time>
      </trkpt>
      <trkpt lat="44.06447" lon="3.0432">
        <ele>706.23</ele>
        <time>2017-04-20T09:21:17Z</time>
      </trkpt>
      <trkpt lat="44.06439" lon="3.04324">
        <ele>706.23</ele>
        <time>2017-04-20T09:21:25Z</time>
      </trkpt>
      <trkpt lat="44.06432" lon="3.04326">
        <ele>707.19</ele>
        <time>2017-04-20T09:21:33Z</time>
      </trkpt>
      <trkpt lat="44.06427" lon="3.0433">
        <ele>708.15</ele>
        <time>2017-04-20T09:21:40Z</time>
      </trkpt>
      <trkpt lat="44.06414" lon="3.04345">
        <ele>708.63</ele>
        <time>2017-04-20T09:21:55Z</time>
      </trkpt>
      <trkpt lat="44.06403" lon="3.04342">
        <ele>711.03</ele>
        <time>2017-04-20T09:22:09Z</time>
      </trkpt>
      <trkpt lat="44.06392" lon="3.04347">
        <ele>712.95</ele>
        <time>2017-04-20T09:22:23Z</time>
      </trkpt>
      <trkpt lat="44.06383" lon="3.04356">
        <ele>716.32</ele>
        <time>2017-04-20T09:22:38Z</time>
      </trkpt>
      <trkpt lat="44.06377" lon="3.04363">
        <ele>718.24</ele>
        <time>2017-04-20T09:22:53Z</time>
      </trkpt>
      <trkpt lat="44.06372" lon="3.04371">
        <ele>719.2</ele>
        <time>2017-04-20T09:23:09Z</time>
      </trkpt>
      <trkpt lat="44.06364" lon="3.04377">
        <ele>721.61</ele>
        <time>2017-04-20T09:23:25Z</time>
      </trkpt>
      <trkpt lat="44.0636" lon="3.04393">
        <ele>723.53</ele>
        <time>2017-04-20T09:23:41Z</time>
      </trkpt>
      <trkpt lat="44.06358" lon="3.04397">
        <ele>723.53</ele>
        <time>2017-04-20T09:23:45Z</time>
      </trkpt>
      <trkpt lat="44.06351" lon="3.04406">
        <ele>725.45</ele>
        <time>2017-04-20T09:23:57Z</time>
      </trkpt>
      <trkpt lat="44.06343" lon="3.0442">
        <ele>726.89</ele>
        <time>2017-04-20T09:24:12Z</time>
      </trkpt>
      <trkpt lat="44.06343" lon="3.04421">
        <ele>727.37</ele>
        <time>2017-04-20T09:24:13Z</time>
      </trkpt>
      <trkpt lat="44.06335" lon="3.04431">
        <ele>729.78</ele>
        <time>2017-04-20T09:24:28Z</time>
      </trkpt>
      <trkpt lat="44.06332" lon="3.04437">
        <ele>730.26</ele>
        <time>2017-04-20T09:24:41Z</time>
      </trkpt>
      <trkpt lat="44.06323" lon="3.04447">
        <ele>732.18</ele>
        <time>2017-04-20T09:24:55Z</time>
      </trkpt>
      <trkpt lat="44.06321" lon="3.04449">
        <ele>727.37</ele>
        <time>2017-04-20T09:24:58Z</time>
      </trkpt>
      <trkpt lat="44.0632" lon="3.04449">
        <ele>729.3</ele>
        <time>2017-04-20T09:24:59Z</time>
      </trkpt>
      <trkpt lat="44.0632" lon="3.0445">
        <ele>741.31</ele>
        <time>2017-04-20T09:25:00Z</time>
      </trkpt>
      <trkpt lat="44.06319" lon="3.0445">
        <ele>733.62</ele>
        <time>2017-04-20T09:25:01Z</time>
      </trkpt>
      <trkpt lat="44.06318" lon="3.04448">
        <ele>733.62</ele>
        <time>2017-04-20T09:25:02Z</time>
      </trkpt>
      <trkpt lat="44.06316" lon="3.04447">
        <ele>734.58</ele>
        <time>2017-04-20T09:25:12Z</time>
      </trkpt>
      <trkpt lat="44.06311" lon="3.04458">
        <ele>735.55</ele>
        <time>2017-04-20T09:25:31Z</time>
      </trkpt>
      <trkpt lat="44.0631" lon="3.04466">
        <ele>737.47</ele>
        <time>2017-04-20T09:25:49Z</time>
      </trkpt>
      <trkpt lat="44.06306" lon="3.04464">
        <ele>738.91</ele>
        <time>2017-04-20T09:26:09Z</time>
      </trkpt>
      <trkpt lat="44.06305" lon="3.04457">
        <ele>739.87</ele>
        <time>2017-04-20T09:26:21Z</time>
      </trkpt>
      <trkpt lat="44.06306" lon="3.04455">
        <ele>740.35</ele>
        <time>2017-04-20T09:26:23Z</time>
      </trkpt>
      <trkpt lat="44.06306" lon="3.04453">
        <ele>740.35</ele>
        <time>2017-04-20T09:26:24Z</time>
      </trkpt>
      <trkpt lat="44.06308" lon="3.04448">
        <ele>741.31</ele>
        <time>2017-04-20T09:26:30Z</time>
      </trkpt>
      <trkpt lat="44.06309" lon="3.04442">
        <ele>741.31</ele>
        <time>2017-04-20T09:26:35Z</time>
      </trkpt>
      <trkpt lat="44.06311" lon="3.04435">
        <ele>741.79</ele>
        <time>2017-04-20T09:26:50Z</time>
      </trkpt>
      <trkpt lat="44.06312" lon="3.04428">
        <ele>741.79</ele>
        <time>2017-04-20T09:27:27Z</time>
      </trkpt>
      <trkpt lat="44.06312" lon="3.04426">
        <ele>741.79</ele>
        <time>2017-04-20T09:27:28Z</time>
      </trkpt>
      <trkpt lat="44.06311" lon="3.04415">
        <ele>741.79</ele>
        <time>2017-04-20T09:27:35Z</time>
      </trkpt>
      <trkpt lat="44.06309" lon="3.04415">
        <ele>742.76</ele>
        <time>2017-04-20T09:27:50Z</time>
      </trkpt>
      <trkpt lat="44.06306" lon="3.04417">
        <ele>742.76</ele>
        <time>2017-04-20T09:28:10Z</time>
      </trkpt>
      <trkpt lat="44.06306" lon="3.04418">
        <ele>743.72</ele>
        <time>2017-04-20T09:28:32Z</time>
      </trkpt>
      <trkpt lat="44.06306" lon="3.04421">
        <ele>743.72</ele>
        <time>2017-04-20T09:28:55Z</time>
      </trkpt>
      <trkpt lat="44.06299" lon="3.04431">
        <ele>745.64</ele>
        <time>2017-04-20T09:29:10Z</time>
      </trkpt>
      <trkpt lat="44.063" lon="3.04433">
        <ele>746.12</ele>
        <time>2017-04-20T09:29:27Z</time>
      </trkpt>
      <trkpt lat="44.063" lon="3.04434">
        <ele>746.12</ele>
        <time>2017-04-20T09:29:54Z</time>
      </trkpt>
      <trkpt lat="44.06296" lon="3.04437">
        <ele>746.6</ele>
        <time>2017-04-20T09:30:17Z</time>
      </trkpt>
      <trkpt lat="44.06294" lon="3.04447">
        <ele>748.52</ele>
        <time>2017-04-20T09:30:30Z</time>
      </trkpt>
      <trkpt lat="44.06292" lon="3.04451">
        <ele>749.49</ele>
        <time>2017-04-20T09:30:35Z</time>
      </trkpt>
      <trkpt lat="44.06287" lon="3.04465">
        <ele>751.41</ele>
        <time>2017-04-20T09:30:49Z</time>
      </trkpt>
      <trkpt lat="44.06279" lon="3.04475">
        <ele>754.29</ele>
        <time>2017-04-20T09:31:03Z</time>
      </trkpt>
      <trkpt lat="44.06276" lon="3.04487">
        <ele>755.25</ele>
        <time>2017-04-20T09:31:13Z</time>
      </trkpt>
      <trkpt lat="44.06269" lon="3.04508">
        <ele>755.73</ele>
        <time>2017-04-20T09:31:29Z</time>
      </trkpt>
      <trkpt lat="44.06267" lon="3.04515">
        <ele>756.21</ele>
        <time>2017-04-20T09:31:42Z</time>
      </trkpt>
      <trkpt lat="44.06263" lon="3.04529">
        <ele>756.69</ele>
        <time>2017-04-20T09:31:58Z</time>
      </trkpt>
      <trkpt lat="44.06259" lon="3.04549">
        <ele>757.18</ele>
        <time>2017-04-20T09:32:14Z</time>
      </trkpt>
      <trkpt lat="44.06254" lon="3.04564">
        <ele>758.62</ele>
        <time>2017-04-20T09:32:29Z</time>
      </trkpt>
      <trkpt lat="44.06251" lon="3.0458">
        <ele>759.58</ele>
        <time>2017-04-20T09:32:44Z</time>
      </trkpt>
      <trkpt lat="44.06248" lon="3.04593">
        <ele>760.54</ele>
        <time>2017-04-20T09:32:56Z</time>
      </trkpt>
      <trkpt lat="44.06243" lon="3.04609">
        <ele>761.02</ele>
        <time>2017-04-20T09:33:10Z</time>
      </trkpt>
      <trkpt lat="44.06239" lon="3.04628">
        <ele>761.5</ele>
        <time>2017-04-20T09:33:25Z</time>
      </trkpt>
      <trkpt lat="44.06235" lon="3.04645">
        <ele>762.46</ele>
        <time>2017-04-20T09:33:40Z</time>
      </trkpt>
      <trkpt lat="44.06233" lon="3.04665">
        <ele>762.94</ele>
        <time>2017-04-20T09:33:55Z</time>
      </trkpt>
      <trkpt lat="44.06226" lon="3.04678">
        <ele>765.35</ele>
        <time>2017-04-20T09:34:10Z</time>
      </trkpt>
      <trkpt lat="44.06216" lon="3.04693">
        <ele>766.31</ele>
        <time>2017-04-20T09:34:27Z</time>
      </trkpt>
      <trkpt lat="44.06207" lon="3.04709">
        <ele>767.27</ele>
        <time>2017-04-20T09:34:43Z</time>
      </trkpt>
      <trkpt lat="44.06198" lon="3.04722">
        <ele>768.71</ele>
        <time>2017-04-20T09:34:59Z</time>
      </trkpt>
      <trkpt lat="44.06189" lon="3.04735">
        <ele>770.63</ele>
        <time>2017-04-20T09:35:14Z</time>
      </trkpt>
      <trkpt lat="44.06186" lon="3.0474">
        <ele>770.63</ele>
        <time>2017-04-20T09:35:19Z</time>
      </trkpt>
      <trkpt lat="44.0618" lon="3.04751">
        <ele>772.08</ele>
        <time>2017-04-20T09:35:32Z</time>
      </trkpt>
      <trkpt lat="44.06171" lon="3.04765">
        <ele>773.52</ele>
        <time>2017-04-20T09:35:47Z</time>
      </trkpt>
      <trkpt lat="44.06169" lon="3.04767">
        <ele>774</ele>
        <time>2017-04-20T09:35:50Z</time>
      </trkpt>
      <trkpt lat="44.06162" lon="3.04779">
        <ele>774.96</ele>
        <time>2017-04-20T09:36:02Z</time>
      </trkpt>
      <trkpt lat="44.06156" lon="3.04798">
        <ele>773.04</ele>
        <time>2017-04-20T09:36:16Z</time>
      </trkpt>
      <trkpt lat="44.06155" lon="3.04799">
        <ele>780.25</ele>
        <time>2017-04-20T09:36:17Z</time>
      </trkpt>
      <trkpt lat="44.06155" lon="3.048">
        <ele>775.92</ele>
        <time>2017-04-20T09:36:18Z</time>
      </trkpt>
      <trkpt lat="44.06155" lon="3.04802">
        <ele>775.92</ele>
        <time>2017-04-20T09:36:20Z</time>
      </trkpt>
      <trkpt lat="44.06152" lon="3.04815">
        <ele>777.36</ele>
        <time>2017-04-20T09:36:31Z</time>
      </trkpt>
      <trkpt lat="44.0615" lon="3.04834">
        <ele>777.84</ele>
        <time>2017-04-20T09:36:45Z</time>
      </trkpt>
      <trkpt lat="44.06147" lon="3.04855">
        <ele>778.32</ele>
        <time>2017-04-20T09:37:00Z</time>
      </trkpt>
      <trkpt lat="44.0614" lon="3.04874">
        <ele>778.32</ele>
        <time>2017-04-20T09:37:14Z</time>
      </trkpt>
      <trkpt lat="44.06136" lon="3.04897">
        <ele>778.32</ele>
        <time>2017-04-20T09:37:29Z</time>
      </trkpt>
      <trkpt lat="44.06133" lon="3.04919">
        <ele>778.32</ele>
        <time>2017-04-20T09:37:43Z</time>
      </trkpt>
      <trkpt lat="44.06128" lon="3.04939">
        <ele>778.32</ele>
        <time>2017-04-20T09:37:58Z</time>
      </trkpt>
      <trkpt lat="44.06125" lon="3.0496">
        <ele>778.32</ele>
        <time>2017-04-20T09:38:11Z</time>
      </trkpt>
      <trkpt lat="44.06126" lon="3.04969">
        <ele>778.32</ele>
        <time>2017-04-20T09:38:17Z</time>
      </trkpt>
      <trkpt lat="44.06127" lon="3.04971">
        <ele>778.32</ele>
        <time>2017-04-20T09:38:18Z</time>
      </trkpt>
      <trkpt lat="44.06127" lon="3.04972">
        <ele>778.32</ele>
        <time>2017-04-20T09:38:19Z</time>
      </trkpt>
      <trkpt lat="44.06128" lon="3.04974">
        <ele>778.32</ele>
        <time>2017-04-20T09:38:20Z</time>
      </trkpt>
      <trkpt lat="44.06128" lon="3.04976">
        <ele>778.32</ele>
        <time>2017-04-20T09:38:21Z</time>
      </trkpt>
      <trkpt lat="44.06128" lon="3.04978">
        <ele>778.32</ele>
        <time>2017-04-20T09:38:22Z</time>
      </trkpt>
      <trkpt lat="44.06129" lon="3.04982">
        <ele>778.32</ele>
        <time>2017-04-20T09:38:25Z</time>
      </trkpt>
      <trkpt lat="44.06129" lon="3.04985">
        <ele>778.32</ele>
        <time>2017-04-20T09:38:28Z</time>
      </trkpt>
      <trkpt lat="44.06129" lon="3.04987">
        <ele>778.32</ele>
        <time>2017-04-20T09:38:29Z</time>
      </trkpt>
      <trkpt lat="44.06133" lon="3.0501">
        <ele>778.32</ele>
        <time>2017-04-20T09:38:43Z</time>
      </trkpt>
      <trkpt lat="44.06136" lon="3.05037">
        <ele>776.88</ele>
        <time>2017-04-20T09:38:59Z</time>
      </trkpt>
      <trkpt lat="44.06144" lon="3.05048">
        <ele>775.44</ele>
        <time>2017-04-20T09:39:11Z</time>
      </trkpt>
      <trkpt lat="44.06149" lon="3.05051">
        <ele>775.44</ele>
        <time>2017-04-20T09:39:17Z</time>
      </trkpt>
      <trkpt lat="44.0615" lon="3.05052">
        <ele>775.44</ele>
        <time>2017-04-20T09:39:18Z</time>
      </trkpt>
      <trkpt lat="44.06165" lon="3.05059">
        <ele>774</ele>
        <time>2017-04-20T09:39:33Z</time>
      </trkpt>
      <trkpt lat="44.06166" lon="3.05059">
        <ele>774</ele>
        <time>2017-04-20T09:39:34Z</time>
      </trkpt>
      <trkpt lat="44.06177" lon="3.05063">
        <ele>773.04</ele>
        <time>2017-04-20T09:39:46Z</time>
      </trkpt>
      <trkpt lat="44.06194" lon="3.05067">
        <ele>771.6</ele>
        <time>2017-04-20T09:40:01Z</time>
      </trkpt>
      <trkpt lat="44.0621" lon="3.05078">
        <ele>769.67</ele>
        <time>2017-04-20T09:40:20Z</time>
      </trkpt>
      <trkpt lat="44.06216" lon="3.05085">
        <ele>768.71</ele>
        <time>2017-04-20T09:40:35Z</time>
      </trkpt>
      <trkpt lat="44.06221" lon="3.05086">
        <ele>767.75</ele>
        <time>2017-04-20T09:40:48Z</time>
      </trkpt>
      <trkpt lat="44.06222" lon="3.05087">
        <ele>767.27</ele>
        <time>2017-04-20T09:41:02Z</time>
      </trkpt>
      <trkpt lat="44.06224" lon="3.05082">
        <ele>767.75</ele>
        <time>2017-04-20T09:41:17Z</time>
      </trkpt>
      <trkpt lat="44.06225" lon="3.05081">
        <ele>767.75</ele>
        <time>2017-04-20T09:41:51Z</time>
      </trkpt>
      <trkpt lat="44.06226" lon="3.05085">
        <ele>767.75</ele>
        <time>2017-04-20T09:42:07Z</time>
      </trkpt>
      <trkpt lat="44.06225" lon="3.05085">
        <ele>767.75</ele>
        <time>2017-04-20T09:42:39Z</time>
      </trkpt>
      <trkpt lat="44.06221" lon="3.0509">
        <ele>768.23</ele>
        <time>2017-04-20T09:42:52Z</time>
      </trkpt>
      <trkpt lat="44.06217" lon="3.0509">
        <ele>768.23</ele>
        <time>2017-04-20T09:43:05Z</time>
      </trkpt>
      <trkpt lat="44.06217" lon="3.05089">
        <ele>768.23</ele>
        <time>2017-04-20T09:43:29Z</time>
      </trkpt>
      <trkpt lat="44.06216" lon="3.0509">
        <ele>766.79</ele>
        <time>2017-04-20T09:43:51Z</time>
      </trkpt>
      <trkpt lat="44.06215" lon="3.05108">
        <ele>766.31</ele>
        <time>2017-04-20T09:44:07Z</time>
      </trkpt>
      <trkpt lat="44.06213" lon="3.05133">
        <ele>762.46</ele>
        <time>2017-04-20T09:44:21Z</time>
      </trkpt>
      <trkpt lat="44.06211" lon="3.05158">
        <ele>762.46</ele>
        <time>2017-04-20T09:44:34Z</time>
      </trkpt>
      <trkpt lat="44.06216" lon="3.05177">
        <ele>760.54</ele>
        <time>2017-04-20T09:44:49Z</time>
      </trkpt>
      <trkpt lat="44.06216" lon="3.05179">
        <ele>760.06</ele>
        <time>2017-04-20T09:44:50Z</time>
      </trkpt>
      <trkpt lat="44.06216" lon="3.0518">
        <ele>760.06</ele>
        <time>2017-04-20T09:44:51Z</time>
      </trkpt>
      <trkpt lat="44.06216" lon="3.05182">
        <ele>760.06</ele>
        <time>2017-04-20T09:44:52Z</time>
      </trkpt>
      <trkpt lat="44.06217" lon="3.05186">
        <ele>759.1</ele>
        <time>2017-04-20T09:44:59Z</time>
      </trkpt>
      <trkpt lat="44.06218" lon="3.05189">
        <ele>758.62</ele>
        <time>2017-04-20T09:45:01Z</time>
      </trkpt>
      <trkpt lat="44.06218" lon="3.05191">
        <ele>758.62</ele>
        <time>2017-04-20T09:45:02Z</time>
      </trkpt>
      <trkpt lat="44.06218" lon="3.05193">
        <ele>758.62</ele>
        <time>2017-04-20T09:45:03Z</time>
      </trkpt>
      <trkpt lat="44.06218" lon="3.05196">
        <ele>757.18</ele>
        <time>2017-04-20T09:45:04Z</time>
      </trkpt>
      <trkpt lat="44.06218" lon="3.05199">
        <ele>756.69</ele>
        <time>2017-04-20T09:45:05Z</time>
      </trkpt>
      <trkpt lat="44.06218" lon="3.05203">
        <ele>756.69</ele>
        <time>2017-04-20T09:45:06Z</time>
      </trkpt>
      <trkpt lat="44.0622" lon="3.05218">
        <ele>754.29</ele>
        <time>2017-04-20T09:45:12Z</time>
      </trkpt>
      <trkpt lat="44.06222" lon="3.05222">
        <ele>752.37</ele>
        <time>2017-04-20T09:45:25Z</time>
      </trkpt>
      <trkpt lat="44.06222" lon="3.05223">
        <ele>752.37</ele>
        <time>2017-04-20T09:45:26Z</time>
      </trkpt>
      <trkpt lat="44.06223" lon="3.05225">
        <ele>752.37</ele>
        <time>2017-04-20T09:45:27Z</time>
      </trkpt>
      <trkpt lat="44.06225" lon="3.05228">
        <ele>751.41</ele>
        <time>2017-04-20T09:45:30Z</time>
      </trkpt>
      <trkpt lat="44.06225" lon="3.05229">
        <ele>750.93</ele>
        <time>2017-04-20T09:45:31Z</time>
      </trkpt>
      <trkpt lat="44.06231" lon="3.05247">
        <ele>747.56</ele>
        <time>2017-04-20T09:45:44Z</time>
      </trkpt>
      <trkpt lat="44.06231" lon="3.05259">
        <ele>746.12</ele>
        <time>2017-04-20T09:45:52Z</time>
      </trkpt>
      <trkpt lat="44.06232" lon="3.0526">
        <ele>745.64</ele>
        <time>2017-04-20T09:45:53Z</time>
      </trkpt>
      <trkpt lat="44.06234" lon="3.05269">
        <ele>743.24</ele>
        <time>2017-04-20T09:46:03Z</time>
      </trkpt>
      <trkpt lat="44.06235" lon="3.0527">
        <ele>743.72</ele>
        <time>2017-04-20T09:46:04Z</time>
      </trkpt>
      <trkpt lat="44.06235" lon="3.05274">
        <ele>742.76</ele>
        <time>2017-04-20T09:46:06Z</time>
      </trkpt>
      <trkpt lat="44.06235" lon="3.05277">
        <ele>741.79</ele>
        <time>2017-04-20T09:46:09Z</time>
      </trkpt>
      <trkpt lat="44.06236" lon="3.05279">
        <ele>741.31</ele>
        <time>2017-04-20T09:46:10Z</time>
      </trkpt>
      <trkpt lat="44.06236" lon="3.05281">
        <ele>740.83</ele>
        <time>2017-04-20T09:46:11Z</time>
      </trkpt>
      <trkpt lat="44.06236" lon="3.05284">
        <ele>740.83</ele>
        <time>2017-04-20T09:46:13Z</time>
      </trkpt>
      <trkpt lat="44.06236" lon="3.05297">
        <ele>739.39</ele>
        <time>2017-04-20T09:46:23Z</time>
      </trkpt>
      <trkpt lat="44.06237" lon="3.05315">
        <ele>736.03</ele>
        <time>2017-04-20T09:46:35Z</time>
      </trkpt>
      <trkpt lat="44.06238" lon="3.05329">
        <ele>734.58</ele>
        <time>2017-04-20T09:46:44Z</time>
      </trkpt>
      <trkpt lat="44.06238" lon="3.0533">
        <ele>734.58</ele>
        <time>2017-04-20T09:46:45Z</time>
      </trkpt>
      <trkpt lat="44.06239" lon="3.05332">
        <ele>734.1</ele>
        <time>2017-04-20T09:46:46Z</time>
      </trkpt>
      <trkpt lat="44.06244" lon="3.05356">
        <ele>732.18</ele>
        <time>2017-04-20T09:47:01Z</time>
      </trkpt>
      <trkpt lat="44.06254" lon="3.05369">
        <ele>729.78</ele>
        <time>2017-04-20T09:47:15Z</time>
      </trkpt>
      <trkpt lat="44.06265" lon="3.05381">
        <ele>727.86</ele>
        <time>2017-04-20T09:47:29Z</time>
      </trkpt>
      <trkpt lat="44.06282" lon="3.05398">
        <ele>725.45</ele>
        <time>2017-04-20T09:47:46Z</time>
      </trkpt>
      <trkpt lat="44.06299" lon="3.05416">
        <ele>722.57</ele>
        <time>2017-04-20T09:48:04Z</time>
      </trkpt>
      <trkpt lat="44.06309" lon="3.05423">
        <ele>720.65</ele>
        <time>2017-04-20T09:48:17Z</time>
      </trkpt>
      <trkpt lat="44.06319" lon="3.05427">
        <ele>719.68</ele>
        <time>2017-04-20T09:48:31Z</time>
      </trkpt>
      <trkpt lat="44.06331" lon="3.05433">
        <ele>718.24</ele>
        <time>2017-04-20T09:48:45Z</time>
      </trkpt>
      <trkpt lat="44.06346" lon="3.05436">
        <ele>716.8</ele>
        <time>2017-04-20T09:49:00Z</time>
      </trkpt>
      <trkpt lat="44.06349" lon="3.05437">
        <ele>716.8</ele>
        <time>2017-04-20T09:49:02Z</time>
      </trkpt>
      <trkpt lat="44.06356" lon="3.05438">
        <ele>715.84</ele>
        <time>2017-04-20T09:49:09Z</time>
      </trkpt>
      <trkpt lat="44.06363" lon="3.05439">
        <ele>714.88</ele>
        <time>2017-04-20T09:49:17Z</time>
      </trkpt>
      <trkpt lat="44.06372" lon="3.05439">
        <ele>714.4</ele>
        <time>2017-04-20T09:49:30Z</time>
      </trkpt>
      <trkpt lat="44.0638" lon="3.05446">
        <ele>712.95</ele>
        <time>2017-04-20T09:49:44Z</time>
      </trkpt>
      <trkpt lat="44.06389" lon="3.05462">
        <ele>711.99</ele>
        <time>2017-04-20T09:49:57Z</time>
      </trkpt>
      <trkpt lat="44.06398" lon="3.05478">
        <ele>710.55</ele>
        <time>2017-04-20T09:50:11Z</time>
      </trkpt>
      <trkpt lat="44.06407" lon="3.05491">
        <ele>709.11</ele>
        <time>2017-04-20T09:50:23Z</time>
      </trkpt>
      <trkpt lat="44.06415" lon="3.05503">
        <ele>708.15</ele>
        <time>2017-04-20T09:50:33Z</time>
      </trkpt>
      <trkpt lat="44.06416" lon="3.05503">
        <ele>708.15</ele>
        <time>2017-04-20T09:50:34Z</time>
      </trkpt>
      <trkpt lat="44.06417" lon="3.05504">
        <ele>708.15</ele>
        <time>2017-04-20T09:50:35Z</time>
      </trkpt>
      <trkpt lat="44.06418" lon="3.05505">
        <ele>707.67</ele>
        <time>2017-04-20T09:50:36Z</time>
      </trkpt>
      <trkpt lat="44.0643" lon="3.05521">
        <ele>706.23</ele>
        <time>2017-04-20T09:50:52Z</time>
      </trkpt>
      <trkpt lat="44.06437" lon="3.05537">
        <ele>706.23</ele>
        <time>2017-04-20T09:51:07Z</time>
      </trkpt>
      <trkpt lat="44.06442" lon="3.05545">
        <ele>703.82</ele>
        <time>2017-04-20T09:51:20Z</time>
      </trkpt>
      <trkpt lat="44.06446" lon="3.05556">
        <ele>701.42</ele>
        <time>2017-04-20T09:51:34Z</time>
      </trkpt>
      <trkpt lat="44.06451" lon="3.05572">
        <ele>698.53</ele>
        <time>2017-04-20T09:51:48Z</time>
      </trkpt>
      <trkpt lat="44.06457" lon="3.05589">
        <ele>695.65</ele>
        <time>2017-04-20T09:52:04Z</time>
      </trkpt>
      <trkpt lat="44.06458" lon="3.0559">
        <ele>695.65</ele>
        <time>2017-04-20T09:52:05Z</time>
      </trkpt>
      <trkpt lat="44.0647" lon="3.05597">
        <ele>694.21</ele>
        <time>2017-04-20T09:52:18Z</time>
      </trkpt>
      <trkpt lat="44.06477" lon="3.05603">
        <ele>693.73</ele>
        <time>2017-04-20T09:52:26Z</time>
      </trkpt>
      <trkpt lat="44.0649" lon="3.05609">
        <ele>693.25</ele>
        <time>2017-04-20T09:52:41Z</time>
      </trkpt>
      <trkpt lat="44.06503" lon="3.05624">
        <ele>692.77</ele>
        <time>2017-04-20T09:52:57Z</time>
      </trkpt>
      <trkpt lat="44.06515" lon="3.05643">
        <ele>692.29</ele>
        <time>2017-04-20T09:53:13Z</time>
      </trkpt>
      <trkpt lat="44.06525" lon="3.05659">
        <ele>693.73</ele>
        <time>2017-04-20T09:53:27Z</time>
      </trkpt>
      <trkpt lat="44.06528" lon="3.05666">
        <ele>694.69</ele>
        <time>2017-04-20T09:53:34Z</time>
      </trkpt>
      <trkpt lat="44.06529" lon="3.05667">
        <ele>694.69</ele>
        <time>2017-04-20T09:53:35Z</time>
      </trkpt>
      <trkpt lat="44.06538" lon="3.05683">
        <ele>695.17</ele>
        <time>2017-04-20T09:53:50Z</time>
      </trkpt>
      <trkpt lat="44.06546" lon="3.05689">
        <ele>695.65</ele>
        <time>2017-04-20T09:54:07Z</time>
      </trkpt>
      <trkpt lat="44.06551" lon="3.05695">
        <ele>697.57</ele>
        <time>2017-04-20T09:54:20Z</time>
      </trkpt>
      <trkpt lat="44.06555" lon="3.05691">
        <ele>699.02</ele>
        <time>2017-04-20T09:54:33Z</time>
      </trkpt>
      <trkpt lat="44.0656" lon="3.05689">
        <ele>701.42</ele>
        <time>2017-04-20T09:54:48Z</time>
      </trkpt>
      <trkpt lat="44.06569" lon="3.05687">
        <ele>702.86</ele>
        <time>2017-04-20T09:55:03Z</time>
      </trkpt>
      <trkpt lat="44.0658" lon="3.05693">
        <ele>703.34</ele>
        <time>2017-04-20T09:55:17Z</time>
      </trkpt>
      <trkpt lat="44.06588" lon="3.05699">
        <ele>703.34</ele>
        <time>2017-04-20T09:55:30Z</time>
      </trkpt>
      <trkpt lat="44.06586" lon="3.05698">
        <ele>703.34</ele>
        <time>2017-04-20T09:55:52Z</time>
      </trkpt>
      <trkpt lat="44.06586" lon="3.05698">
        <ele>703.34</ele>
        <time>2017-04-20T09:56:21Z</time>
      </trkpt>
      <trkpt lat="44.0659" lon="3.05698">
        <ele>703.34</ele>
        <time>2017-04-20T09:56:34Z</time>
      </trkpt>
      <trkpt lat="44.06589" lon="3.05697">
        <ele>704.3</ele>
        <time>2017-04-20T09:56:54Z</time>
      </trkpt>
      <trkpt lat="44.06589" lon="3.05697">
        <ele>702.86</ele>
        <time>2017-04-20T09:57:02Z</time>
      </trkpt>
      <trkpt lat="44.06589" lon="3.05697">
        <ele>703.82</ele>
        <time>2017-04-20T09:57:17Z</time>
      </trkpt>
      <trkpt lat="44.06589" lon="3.05697">
        <ele>703.82</ele>
        <time>2017-04-20T09:57:18Z</time>
      </trkpt>
      <trkpt lat="44.06593" lon="3.05698">
        <ele>703.82</ele>
        <time>2017-04-20T09:57:37Z</time>
      </trkpt>
      <trkpt lat="44.06593" lon="3.05693">
        <ele>703.82</ele>
        <time>2017-04-20T09:57:57Z</time>
      </trkpt>
      <trkpt lat="44.06593" lon="3.05693">
        <ele>702.38</ele>
        <time>2017-04-20T09:58:02Z</time>
      </trkpt>
      <trkpt lat="44.06593" lon="3.05694">
        <ele>702.38</ele>
        <time>2017-04-20T09:58:32Z</time>
      </trkpt>
      <trkpt lat="44.06592" lon="3.05693">
        <ele>702.38</ele>
        <time>2017-04-20T09:58:58Z</time>
      </trkpt>
      <trkpt lat="44.0659" lon="3.05694">
        <ele>702.38</ele>
        <time>2017-04-20T09:59:16Z</time>
      </trkpt>
      <trkpt lat="44.06592" lon="3.05705">
        <ele>705.75</ele>
        <time>2017-04-20T09:59:32Z</time>
      </trkpt>
      <trkpt lat="44.06593" lon="3.0572">
        <ele>708.15</ele>
        <time>2017-04-20T09:59:47Z</time>
      </trkpt>
      <trkpt lat="44.06592" lon="3.05733">
        <ele>710.07</ele>
        <time>2017-04-20T09:59:58Z</time>
      </trkpt>
      <trkpt lat="44.06593" lon="3.0575">
        <ele>711.99</ele>
        <time>2017-04-20T10:00:12Z</time>
      </trkpt>
      <trkpt lat="44.06593" lon="3.05758">
        <ele>711.99</ele>
        <time>2017-04-20T10:00:18Z</time>
      </trkpt>
      <trkpt lat="44.06597" lon="3.05781">
        <ele>714.4</ele>
        <time>2017-04-20T10:00:36Z</time>
      </trkpt>
      <trkpt lat="44.06597" lon="3.05782">
        <ele>714.4</ele>
        <time>2017-04-20T10:00:37Z</time>
      </trkpt>
      <trkpt lat="44.06607" lon="3.05792">
        <ele>715.36</ele>
        <time>2017-04-20T10:00:51Z</time>
      </trkpt>
      <trkpt lat="44.06614" lon="3.05792">
        <ele>715.84</ele>
        <time>2017-04-20T10:00:59Z</time>
      </trkpt>
      <trkpt lat="44.06617" lon="3.0579">
        <ele>715.84</ele>
        <time>2017-04-20T10:01:02Z</time>
      </trkpt>
      <trkpt lat="44.06625" lon="3.05788">
        <ele>715.84</ele>
        <time>2017-04-20T10:01:14Z</time>
      </trkpt>
      <trkpt lat="44.06626" lon="3.05789">
        <ele>715.84</ele>
        <time>2017-04-20T10:01:15Z</time>
      </trkpt>
      <trkpt lat="44.06628" lon="3.05789">
        <ele>715.84</ele>
        <time>2017-04-20T10:01:17Z</time>
      </trkpt>
      <trkpt lat="44.06643" lon="3.05789">
        <ele>715.84</ele>
        <time>2017-04-20T10:01:31Z</time>
      </trkpt>
      <trkpt lat="44.06656" lon="3.05791">
        <ele>717.28</ele>
        <time>2017-04-20T10:01:43Z</time>
      </trkpt>
      <trkpt lat="44.06676" lon="3.05797">
        <ele>717.76</ele>
        <time>2017-04-20T10:02:02Z</time>
      </trkpt>
      <trkpt lat="44.06695" lon="3.05803">
        <ele>718.24</ele>
        <time>2017-04-20T10:02:20Z</time>
      </trkpt>
      <trkpt lat="44.0671" lon="3.05806">
        <ele>718.24</ele>
        <time>2017-04-20T10:02:34Z</time>
      </trkpt>
      <trkpt lat="44.06723" lon="3.05807">
        <ele>718.24</ele>
        <time>2017-04-20T10:02:49Z</time>
      </trkpt>
      <trkpt lat="44.0673" lon="3.05809">
        <ele>718.24</ele>
        <time>2017-04-20T10:02:57Z</time>
      </trkpt>
      <trkpt lat="44.06745" lon="3.05817">
        <ele>718.24</ele>
        <time>2017-04-20T10:03:11Z</time>
      </trkpt>
      <trkpt lat="44.06761" lon="3.05822">
        <ele>718.72</ele>
        <time>2017-04-20T10:03:24Z</time>
      </trkpt>
      <trkpt lat="44.06765" lon="3.05822">
        <ele>719.2</ele>
        <time>2017-04-20T10:03:28Z</time>
      </trkpt>
      <trkpt lat="44.06767" lon="3.05821">
        <ele>719.2</ele>
        <time>2017-04-20T10:03:29Z</time>
      </trkpt>
      <trkpt lat="44.06768" lon="3.0582">
        <ele>719.2</ele>
        <time>2017-04-20T10:03:30Z</time>
      </trkpt>
      <trkpt lat="44.0678" lon="3.0582">
        <ele>719.2</ele>
        <time>2017-04-20T10:03:42Z</time>
      </trkpt>
      <trkpt lat="44.06798" lon="3.05821">
        <ele>719.2</ele>
        <time>2017-04-20T10:03:58Z</time>
      </trkpt>
      <trkpt lat="44.06814" lon="3.05823">
        <ele>719.2</ele>
        <time>2017-04-20T10:04:12Z</time>
      </trkpt>
      <trkpt lat="44.06832" lon="3.05828">
        <ele>720.16</ele>
        <time>2017-04-20T10:04:29Z</time>
      </trkpt>
      <trkpt lat="44.0685" lon="3.05828">
        <ele>721.13</ele>
        <time>2017-04-20T10:04:46Z</time>
      </trkpt>
      <trkpt lat="44.06866" lon="3.05829">
        <ele>722.57</ele>
        <time>2017-04-20T10:05:03Z</time>
      </trkpt>
      <trkpt lat="44.06879" lon="3.05834">
        <ele>724.49</ele>
        <time>2017-04-20T10:05:17Z</time>
      </trkpt>
      <trkpt lat="44.06898" lon="3.05831">
        <ele>724.97</ele>
        <time>2017-04-20T10:05:34Z</time>
      </trkpt>
      <trkpt lat="44.06913" lon="3.05829">
        <ele>724.97</ele>
        <time>2017-04-20T10:05:49Z</time>
      </trkpt>
      <trkpt lat="44.06931" lon="3.05828">
        <ele>726.41</ele>
        <time>2017-04-20T10:06:06Z</time>
      </trkpt>
      <trkpt lat="44.06944" lon="3.05825">
        <ele>727.37</ele>
        <time>2017-04-20T10:06:18Z</time>
      </trkpt>
      <trkpt lat="44.0695" lon="3.05825">
        <ele>727.37</ele>
        <time>2017-04-20T10:06:24Z</time>
      </trkpt>
      <trkpt lat="44.0697" lon="3.05825">
        <ele>729.3</ele>
        <time>2017-04-20T10:06:41Z</time>
      </trkpt>
      <trkpt lat="44.06986" lon="3.05826">
        <ele>730.26</ele>
        <time>2017-04-20T10:06:56Z</time>
      </trkpt>
      <trkpt lat="44.06987" lon="3.05827">
        <ele>730.26</ele>
        <time>2017-04-20T10:06:57Z</time>
      </trkpt>
      <trkpt lat="44.07004" lon="3.05832">
        <ele>730.74</ele>
        <time>2017-04-20T10:07:13Z</time>
      </trkpt>
      <trkpt lat="44.07005" lon="3.05832">
        <ele>731.22</ele>
        <time>2017-04-20T10:07:14Z</time>
      </trkpt>
      <trkpt lat="44.0702" lon="3.05839">
        <ele>731.7</ele>
        <time>2017-04-20T10:07:29Z</time>
      </trkpt>
      <trkpt lat="44.07024" lon="3.05837">
        <ele>731.7</ele>
        <time>2017-04-20T10:07:34Z</time>
      </trkpt>
      <trkpt lat="44.07026" lon="3.05837">
        <ele>731.7</ele>
        <time>2017-04-20T10:07:36Z</time>
      </trkpt>
      <trkpt lat="44.07027" lon="3.05838">
        <ele>731.7</ele>
        <time>2017-04-20T10:07:37Z</time>
      </trkpt>
      <trkpt lat="44.07028" lon="3.05838">
        <ele>731.7</ele>
        <time>2017-04-20T10:07:38Z</time>
      </trkpt>
      <trkpt lat="44.07039" lon="3.05834">
        <ele>731.7</ele>
        <time>2017-04-20T10:07:51Z</time>
      </trkpt>
      <trkpt lat="44.07048" lon="3.05828">
        <ele>731.7</ele>
        <time>2017-04-20T10:08:03Z</time>
      </trkpt>
      <trkpt lat="44.07048" lon="3.0582">
        <ele>731.7</ele>
        <time>2017-04-20T10:08:15Z</time>
      </trkpt>
      <trkpt lat="44.0705" lon="3.05822">
        <ele>731.7</ele>
        <time>2017-04-20T10:08:30Z</time>
      </trkpt>
      <trkpt lat="44.0705" lon="3.05824">
        <ele>731.7</ele>
        <time>2017-04-20T10:08:47Z</time>
      </trkpt>
      <trkpt lat="44.07049" lon="3.05825">
        <ele>726.41</ele>
        <time>2017-04-20T10:08:51Z</time>
      </trkpt>
      <trkpt lat="44.0705" lon="3.05825">
        <ele>737.47</ele>
        <time>2017-04-20T10:08:52Z</time>
      </trkpt>
      <trkpt lat="44.0705" lon="3.05825">
        <ele>731.7</ele>
        <time>2017-04-20T10:08:53Z</time>
      </trkpt>
      <trkpt lat="44.07059" lon="3.0582">
        <ele>732.66</ele>
        <time>2017-04-20T10:09:06Z</time>
      </trkpt>
      <trkpt lat="44.0706" lon="3.05815">
        <ele>732.66</ele>
        <time>2017-04-20T10:09:25Z</time>
      </trkpt>
      <trkpt lat="44.07059" lon="3.05815">
        <ele>732.66</ele>
        <time>2017-04-20T10:09:47Z</time>
      </trkpt>
      <trkpt lat="44.07057" lon="3.0582">
        <ele>732.66</ele>
        <time>2017-04-20T10:10:03Z</time>
      </trkpt>
      <trkpt lat="44.07053" lon="3.05822">
        <ele>731.22</ele>
        <time>2017-04-20T10:10:15Z</time>
      </trkpt>
      <trkpt lat="44.07049" lon="3.05822">
        <ele>731.22</ele>
        <time>2017-04-20T10:10:30Z</time>
      </trkpt>
      <trkpt lat="44.0705" lon="3.05823">
        <ele>731.22</ele>
        <time>2017-04-20T10:10:46Z</time>
      </trkpt>
      <trkpt lat="44.0705" lon="3.05821">
        <ele>731.22</ele>
        <time>2017-04-20T10:11:00Z</time>
      </trkpt>
      <trkpt lat="44.07051" lon="3.05818">
        <ele>731.22</ele>
        <time>2017-04-20T10:11:23Z</time>
      </trkpt>
      <trkpt lat="44.07049" lon="3.05817">
        <ele>731.22</ele>
        <time>2017-04-20T10:11:37Z</time>
      </trkpt>
      <trkpt lat="44.07049" lon="3.05819">
        <ele>730.74</ele>
        <time>2017-04-20T10:11:49Z</time>
      </trkpt>
      <trkpt lat="44.07021" lon="3.05825">
        <ele>729.3</ele>
        <time>2017-04-20T10:58:02Z</time>
      </trkpt>
      <trkpt lat="44.07019" lon="3.05827">
        <ele>731.22</ele>
        <time>2017-04-20T10:58:18Z</time>
      </trkpt>
      <trkpt lat="44.07021" lon="3.05829">
        <ele>731.22</ele>
        <time>2017-04-20T10:58:31Z</time>
      </trkpt>
      <trkpt lat="44.07025" lon="3.05826">
        <ele>731.22</ele>
        <time>2017-04-20T10:58:46Z</time>
      </trkpt>
      <trkpt lat="44.07042" lon="3.05833">
        <ele>731.22</ele>
        <time>2017-04-20T10:59:03Z</time>
      </trkpt>
      <trkpt lat="44.07052" lon="3.05832">
        <ele>734.58</ele>
        <time>2017-04-20T10:59:18Z</time>
      </trkpt>
      <trkpt lat="44.07048" lon="3.05826">
        <ele>736.51</ele>
        <time>2017-04-20T10:59:41Z</time>
      </trkpt>
      <trkpt lat="44.07051" lon="3.05826">
        <ele>736.51</ele>
        <time>2017-04-20T10:59:54Z</time>
      </trkpt>
      <trkpt lat="44.07047" lon="3.05827">
        <ele>736.99</ele>
        <time>2017-04-20T11:00:21Z</time>
      </trkpt>
      <trkpt lat="44.07045" lon="3.05832">
        <ele>736.99</ele>
        <time>2017-04-20T11:00:27Z</time>
      </trkpt>
      <trkpt lat="44.07039" lon="3.05845">
        <ele>736.99</ele>
        <time>2017-04-20T11:00:40Z</time>
      </trkpt>
      <trkpt lat="44.07032" lon="3.05862">
        <ele>736.99</ele>
        <time>2017-04-20T11:00:55Z</time>
      </trkpt>
      <trkpt lat="44.07029" lon="3.05871">
        <ele>737.47</ele>
        <time>2017-04-20T11:01:05Z</time>
      </trkpt>
      <trkpt lat="44.0703" lon="3.05874">
        <ele>736.03</ele>
        <time>2017-04-20T11:01:08Z</time>
      </trkpt>
      <trkpt lat="44.0703" lon="3.05874">
        <ele>739.87</ele>
        <time>2017-04-20T11:01:09Z</time>
      </trkpt>
      <trkpt lat="44.07029" lon="3.05879">
        <ele>736.99</ele>
        <time>2017-04-20T11:01:15Z</time>
      </trkpt>
      <trkpt lat="44.07031" lon="3.05899">
        <ele>736.51</ele>
        <time>2017-04-20T11:01:30Z</time>
      </trkpt>
      <trkpt lat="44.07031" lon="3.05913">
        <ele>736.51</ele>
        <time>2017-04-20T11:01:39Z</time>
      </trkpt>
      <trkpt lat="44.07028" lon="3.05934">
        <ele>736.51</ele>
        <time>2017-04-20T11:01:54Z</time>
      </trkpt>
      <trkpt lat="44.07028" lon="3.05959">
        <ele>736.51</ele>
        <time>2017-04-20T11:02:09Z</time>
      </trkpt>
      <trkpt lat="44.07029" lon="3.05985">
        <ele>736.51</ele>
        <time>2017-04-20T11:02:25Z</time>
      </trkpt>
      <trkpt lat="44.0703" lon="3.0599">
        <ele>736.51</ele>
        <time>2017-04-20T11:02:28Z</time>
      </trkpt>
      <trkpt lat="44.0703" lon="3.05995">
        <ele>736.51</ele>
        <time>2017-04-20T11:02:31Z</time>
      </trkpt>
      <trkpt lat="44.07035" lon="3.06026">
        <ele>736.03</ele>
        <time>2017-04-20T11:02:50Z</time>
      </trkpt>
      <trkpt lat="44.0704" lon="3.06049">
        <ele>736.03</ele>
        <time>2017-04-20T11:03:05Z</time>
      </trkpt>
      <trkpt lat="44.07045" lon="3.06075">
        <ele>736.03</ele>
        <time>2017-04-20T11:03:21Z</time>
      </trkpt>
      <trkpt lat="44.0705" lon="3.06105">
        <ele>736.03</ele>
        <time>2017-04-20T11:03:39Z</time>
      </trkpt>
      <trkpt lat="44.07057" lon="3.06136">
        <ele>736.03</ele>
        <time>2017-04-20T11:03:58Z</time>
      </trkpt>
      <trkpt lat="44.07067" lon="3.06163">
        <ele>735.07</ele>
        <time>2017-04-20T11:04:15Z</time>
      </trkpt>
      <trkpt lat="44.07082" lon="3.0619">
        <ele>734.1</ele>
        <time>2017-04-20T11:04:34Z</time>
      </trkpt>
      <trkpt lat="44.07096" lon="3.06211">
        <ele>733.14</ele>
        <time>2017-04-20T11:04:51Z</time>
      </trkpt>
      <trkpt lat="44.07104" lon="3.06223">
        <ele>732.18</ele>
        <time>2017-04-20T11:05:00Z</time>
      </trkpt>
      <trkpt lat="44.07109" lon="3.06229">
        <ele>733.62</ele>
        <time>2017-04-20T11:05:05Z</time>
      </trkpt>
      <trkpt lat="44.07118" lon="3.06244">
        <ele>731.7</ele>
        <time>2017-04-20T11:05:17Z</time>
      </trkpt>
      <trkpt lat="44.07121" lon="3.06249">
        <ele>724.49</ele>
        <time>2017-04-20T11:05:20Z</time>
      </trkpt>
      <trkpt lat="44.07122" lon="3.0625">
        <ele>735.55</ele>
        <time>2017-04-20T11:05:21Z</time>
      </trkpt>
      <trkpt lat="44.07124" lon="3.06253">
        <ele>727.86</ele>
        <time>2017-04-20T11:05:22Z</time>
      </trkpt>
      <trkpt lat="44.07125" lon="3.06255">
        <ele>732.18</ele>
        <time>2017-04-20T11:05:23Z</time>
      </trkpt>
      <trkpt lat="44.07126" lon="3.06256">
        <ele>737.47</ele>
        <time>2017-04-20T11:05:24Z</time>
      </trkpt>
      <trkpt lat="44.07127" lon="3.06256">
        <ele>733.14</ele>
        <time>2017-04-20T11:05:25Z</time>
      </trkpt>
      <trkpt lat="44.07128" lon="3.06255">
        <ele>731.7</ele>
        <time>2017-04-20T11:05:26Z</time>
      </trkpt>
      <trkpt lat="44.07128" lon="3.06256">
        <ele>731.7</ele>
        <time>2017-04-20T11:05:27Z</time>
      </trkpt>
      <trkpt lat="44.07129" lon="3.06257">
        <ele>731.7</ele>
        <time>2017-04-20T11:05:28Z</time>
      </trkpt>
      <trkpt lat="44.0713" lon="3.06258">
        <ele>731.7</ele>
        <time>2017-04-20T11:05:29Z</time>
      </trkpt>
      <trkpt lat="44.0713" lon="3.06259">
        <ele>731.7</ele>
        <time>2017-04-20T11:05:30Z</time>
      </trkpt>
      <trkpt lat="44.07136" lon="3.0627">
        <ele>731.22</ele>
        <time>2017-04-20T11:05:38Z</time>
      </trkpt>
      <trkpt lat="44.07136" lon="3.06271">
        <ele>731.22</ele>
        <time>2017-04-20T11:05:39Z</time>
      </trkpt>
      <trkpt lat="44.07149" lon="3.06292">
        <ele>730.26</ele>
        <time>2017-04-20T11:05:55Z</time>
      </trkpt>
      <trkpt lat="44.07161" lon="3.06313">
        <ele>729.3</ele>
        <time>2017-04-20T11:06:11Z</time>
      </trkpt>
      <trkpt lat="44.07162" lon="3.06316">
        <ele>729.3</ele>
        <time>2017-04-20T11:06:13Z</time>
      </trkpt>
      <trkpt lat="44.07163" lon="3.06317">
        <ele>729.3</ele>
        <time>2017-04-20T11:06:14Z</time>
      </trkpt>
      <trkpt lat="44.07163" lon="3.06319">
        <ele>729.3</ele>
        <time>2017-04-20T11:06:15Z</time>
      </trkpt>
      <trkpt lat="44.07177" lon="3.06339">
        <ele>730.74</ele>
        <time>2017-04-20T11:06:32Z</time>
      </trkpt>
      <trkpt lat="44.0718" lon="3.06345">
        <ele>730.74</ele>
        <time>2017-04-20T11:06:37Z</time>
      </trkpt>
      <trkpt lat="44.07181" lon="3.06347">
        <ele>731.7</ele>
        <time>2017-04-20T11:06:38Z</time>
      </trkpt>
      <trkpt lat="44.0719" lon="3.06372">
        <ele>732.18</ele>
        <time>2017-04-20T11:06:55Z</time>
      </trkpt>
      <trkpt lat="44.072" lon="3.06392">
        <ele>730.74</ele>
        <time>2017-04-20T11:07:10Z</time>
      </trkpt>
      <trkpt lat="44.07204" lon="3.06404">
        <ele>728.34</ele>
        <time>2017-04-20T11:07:18Z</time>
      </trkpt>
      <trkpt lat="44.07205" lon="3.06405">
        <ele>736.03</ele>
        <time>2017-04-20T11:07:19Z</time>
      </trkpt>
      <trkpt lat="44.07205" lon="3.06405">
        <ele>734.58</ele>
        <time>2017-04-20T11:07:20Z</time>
      </trkpt>
      <trkpt lat="44.07206" lon="3.06406">
        <ele>733.14</ele>
        <time>2017-04-20T11:07:22Z</time>
      </trkpt>
      <trkpt lat="44.07207" lon="3.06407">
        <ele>733.14</ele>
        <time>2017-04-20T11:07:23Z</time>
      </trkpt>
      <trkpt lat="44.07208" lon="3.06408">
        <ele>732.66</ele>
        <time>2017-04-20T11:07:24Z</time>
      </trkpt>
      <trkpt lat="44.0721" lon="3.06411">
        <ele>732.66</ele>
        <time>2017-04-20T11:07:27Z</time>
      </trkpt>
      <trkpt lat="44.07211" lon="3.06412">
        <ele>732.66</ele>
        <time>2017-04-20T11:07:28Z</time>
      </trkpt>
      <trkpt lat="44.07221" lon="3.06432">
        <ele>732.66</ele>
        <time>2017-04-20T11:07:44Z</time>
      </trkpt>
      <trkpt lat="44.07228" lon="3.06445">
        <ele>732.66</ele>
        <time>2017-04-20T11:08:00Z</time>
      </trkpt>
      <trkpt lat="44.07229" lon="3.06446">
        <ele>732.66</ele>
        <time>2017-04-20T11:08:27Z</time>
      </trkpt>
      <trkpt lat="44.0724" lon="3.0646">
        <ele>732.18</ele>
        <time>2017-04-20T11:08:42Z</time>
      </trkpt>
      <trkpt lat="44.07257" lon="3.06478">
        <ele>731.7</ele>
        <time>2017-04-20T11:09:00Z</time>
      </trkpt>
      <trkpt lat="44.07261" lon="3.06482">
        <ele>731.7</ele>
        <time>2017-04-20T11:09:04Z</time>
      </trkpt>
      <trkpt lat="44.07268" lon="3.06494">
        <ele>730.74</ele>
        <time>2017-04-20T11:09:19Z</time>
      </trkpt>
      <trkpt lat="44.07269" lon="3.06495">
        <ele>730.74</ele>
        <time>2017-04-20T11:09:20Z</time>
      </trkpt>
      <trkpt lat="44.0727" lon="3.06496">
        <ele>730.26</ele>
        <time>2017-04-20T11:09:21Z</time>
      </trkpt>
      <trkpt lat="44.07275" lon="3.06499">
        <ele>729.78</ele>
        <time>2017-04-20T11:09:35Z</time>
      </trkpt>
      <trkpt lat="44.07289" lon="3.06513">
        <ele>727.86</ele>
        <time>2017-04-20T11:09:50Z</time>
      </trkpt>
      <trkpt lat="44.07301" lon="3.06532">
        <ele>725.45</ele>
        <time>2017-04-20T11:10:05Z</time>
      </trkpt>
      <trkpt lat="44.07309" lon="3.06556">
        <ele>722.57</ele>
        <time>2017-04-20T11:10:21Z</time>
      </trkpt>
      <trkpt lat="44.07313" lon="3.06583">
        <ele>720.65</ele>
        <time>2017-04-20T11:10:37Z</time>
      </trkpt>
      <trkpt lat="44.07313" lon="3.06605">
        <ele>719.2</ele>
        <time>2017-04-20T11:10:51Z</time>
      </trkpt>
      <trkpt lat="44.07313" lon="3.06636">
        <ele>717.28</ele>
        <time>2017-04-20T11:11:10Z</time>
      </trkpt>
      <trkpt lat="44.07315" lon="3.06648">
        <ele>716.32</ele>
        <time>2017-04-20T11:11:17Z</time>
      </trkpt>
      <trkpt lat="44.07315" lon="3.0665">
        <ele>716.32</ele>
        <time>2017-04-20T11:11:18Z</time>
      </trkpt>
      <trkpt lat="44.07319" lon="3.06663">
        <ele>715.84</ele>
        <time>2017-04-20T11:11:27Z</time>
      </trkpt>
      <trkpt lat="44.07321" lon="3.06671">
        <ele>715.36</ele>
        <time>2017-04-20T11:11:41Z</time>
      </trkpt>
      <trkpt lat="44.07323" lon="3.06686">
        <ele>714.4</ele>
        <time>2017-04-20T11:11:53Z</time>
      </trkpt>
      <trkpt lat="44.07327" lon="3.06714">
        <ele>713.44</ele>
        <time>2017-04-20T11:12:09Z</time>
      </trkpt>
      <trkpt lat="44.07333" lon="3.06737">
        <ele>712.47</ele>
        <time>2017-04-20T11:12:24Z</time>
      </trkpt>
      <trkpt lat="44.0735" lon="3.06756">
        <ele>712.47</ele>
        <time>2017-04-20T11:12:41Z</time>
      </trkpt>
      <trkpt lat="44.07362" lon="3.0678">
        <ele>712.47</ele>
        <time>2017-04-20T11:12:58Z</time>
      </trkpt>
      <trkpt lat="44.07371" lon="3.06797">
        <ele>712.47</ele>
        <time>2017-04-20T11:13:11Z</time>
      </trkpt>
      <trkpt lat="44.07382" lon="3.06812">
        <ele>713.44</ele>
        <time>2017-04-20T11:13:25Z</time>
      </trkpt>
      <trkpt lat="44.07392" lon="3.06825">
        <ele>713.92</ele>
        <time>2017-04-20T11:13:38Z</time>
      </trkpt>
      <trkpt lat="44.07409" lon="3.06842">
        <ele>713.44</ele>
        <time>2017-04-20T11:13:56Z</time>
      </trkpt>
      <trkpt lat="44.07423" lon="3.06859">
        <ele>712.47</ele>
        <time>2017-04-20T11:14:11Z</time>
      </trkpt>
      <trkpt lat="44.07427" lon="3.06866">
        <ele>711.99</ele>
        <time>2017-04-20T11:14:16Z</time>
      </trkpt>
      <trkpt lat="44.07428" lon="3.06867">
        <ele>711.99</ele>
        <time>2017-04-20T11:14:17Z</time>
      </trkpt>
      <trkpt lat="44.0743" lon="3.06868">
        <ele>711.99</ele>
        <time>2017-04-20T11:14:20Z</time>
      </trkpt>
      <trkpt lat="44.07431" lon="3.0687">
        <ele>711.99</ele>
        <time>2017-04-20T11:14:32Z</time>
      </trkpt>
      <trkpt lat="44.0743" lon="3.06877">
        <ele>711.99</ele>
        <time>2017-04-20T11:14:42Z</time>
      </trkpt>
      <trkpt lat="44.07434" lon="3.06878">
        <ele>711.51</ele>
        <time>2017-04-20T11:14:57Z</time>
      </trkpt>
      <trkpt lat="44.07437" lon="3.06881">
        <ele>711.03</ele>
        <time>2017-04-20T11:15:02Z</time>
      </trkpt>
      <trkpt lat="44.07447" lon="3.06902">
        <ele>709.11</ele>
        <time>2017-04-20T11:15:18Z</time>
      </trkpt>
      <trkpt lat="44.07454" lon="3.0692">
        <ele>708.63</ele>
        <time>2017-04-20T11:15:33Z</time>
      </trkpt>
      <trkpt lat="44.07468" lon="3.06927">
        <ele>708.15</ele>
        <time>2017-04-20T11:15:46Z</time>
      </trkpt>
      <trkpt lat="44.07477" lon="3.0692">
        <ele>708.15</ele>
        <time>2017-04-20T11:16:01Z</time>
      </trkpt>
      <trkpt lat="44.07477" lon="3.06917">
        <ele>709.11</ele>
        <time>2017-04-20T11:16:10Z</time>
      </trkpt>
      <trkpt lat="44.07477" lon="3.06915">
        <ele>708.15</ele>
        <time>2017-04-20T11:16:14Z</time>
      </trkpt>
      <trkpt lat="44.07478" lon="3.0691">
        <ele>707.67</ele>
        <time>2017-04-20T11:16:19Z</time>
      </trkpt>
      <trkpt lat="44.07478" lon="3.06908">
        <ele>707.67</ele>
        <time>2017-04-20T11:16:31Z</time>
      </trkpt>
      <trkpt lat="44.0748" lon="3.06904">
        <ele>707.19</ele>
        <time>2017-04-20T11:16:49Z</time>
      </trkpt>
      <trkpt lat="44.07479" lon="3.06904">
        <ele>707.19</ele>
        <time>2017-04-20T11:17:13Z</time>
      </trkpt>
      <trkpt lat="44.07477" lon="3.06908">
        <ele>707.19</ele>
        <time>2017-04-20T11:17:26Z</time>
      </trkpt>
      <trkpt lat="44.07478" lon="3.06912">
        <ele>707.19</ele>
        <time>2017-04-20T11:17:43Z</time>
      </trkpt>
      <trkpt lat="44.07478" lon="3.06918">
        <ele>708.63</ele>
        <time>2017-04-20T11:17:49Z</time>
      </trkpt>
      <trkpt lat="44.07477" lon="3.06919">
        <ele>709.59</ele>
        <time>2017-04-20T11:17:50Z</time>
      </trkpt>
      <trkpt lat="44.07476" lon="3.06919">
        <ele>709.59</ele>
        <time>2017-04-20T11:17:51Z</time>
      </trkpt>
      <trkpt lat="44.07476" lon="3.06925">
        <ele>708.15</ele>
        <time>2017-04-20T11:18:03Z</time>
      </trkpt>
      <trkpt lat="44.07477" lon="3.06925">
        <ele>708.15</ele>
        <time>2017-04-20T11:18:33Z</time>
      </trkpt>
      <trkpt lat="44.07484" lon="3.069">
        <ele>706.23</ele>
        <time>2017-04-20T11:18:44Z</time>
      </trkpt>
      <trkpt lat="44.07491" lon="3.06891">
        <ele>704.78</ele>
        <time>2017-04-20T11:18:52Z</time>
      </trkpt>
      <trkpt lat="44.07494" lon="3.06885">
        <ele>706.23</ele>
        <time>2017-04-20T11:18:58Z</time>
      </trkpt>
      <trkpt lat="44.07495" lon="3.06883">
        <ele>706.23</ele>
        <time>2017-04-20T11:18:59Z</time>
      </trkpt>
      <trkpt lat="44.07495" lon="3.0688">
        <ele>706.23</ele>
        <time>2017-04-20T11:19:00Z</time>
      </trkpt>
      <trkpt lat="44.07496" lon="3.06879">
        <ele>706.23</ele>
        <time>2017-04-20T11:19:01Z</time>
      </trkpt>
      <trkpt lat="44.07503" lon="3.06859">
        <ele>708.63</ele>
        <time>2017-04-20T11:19:16Z</time>
      </trkpt>
      <trkpt lat="44.07503" lon="3.06858">
        <ele>708.63</ele>
        <time>2017-04-20T11:19:17Z</time>
      </trkpt>
      <trkpt lat="44.07503" lon="3.06856">
        <ele>708.63</ele>
        <time>2017-04-20T11:19:18Z</time>
      </trkpt>
      <trkpt lat="44.07503" lon="3.06854">
        <ele>709.11</ele>
        <time>2017-04-20T11:19:19Z</time>
      </trkpt>
      <trkpt lat="44.07503" lon="3.06852">
        <ele>709.11</ele>
        <time>2017-04-20T11:19:20Z</time>
      </trkpt>
      <trkpt lat="44.07503" lon="3.06851">
        <ele>709.11</ele>
        <time>2017-04-20T11:19:21Z</time>
      </trkpt>
      <trkpt lat="44.07503" lon="3.06849">
        <ele>709.59</ele>
        <time>2017-04-20T11:19:22Z</time>
      </trkpt>
      <trkpt lat="44.07506" lon="3.06835">
        <ele>705.75</ele>
        <time>2017-04-20T11:19:30Z</time>
      </trkpt>
      <trkpt lat="44.07508" lon="3.06833">
        <ele>717.28</ele>
        <time>2017-04-20T11:19:31Z</time>
      </trkpt>
      <trkpt lat="44.07509" lon="3.0683">
        <ele>714.4</ele>
        <time>2017-04-20T11:19:32Z</time>
      </trkpt>
      <trkpt lat="44.0751" lon="3.06828">
        <ele>711.99</ele>
        <time>2017-04-20T11:19:34Z</time>
      </trkpt>
      <trkpt lat="44.07511" lon="3.06826">
        <ele>713.44</ele>
        <time>2017-04-20T11:19:39Z</time>
      </trkpt>
      <trkpt lat="44.07512" lon="3.06825">
        <ele>713.92</ele>
        <time>2017-04-20T11:19:40Z</time>
      </trkpt>
      <trkpt lat="44.07512" lon="3.06824">
        <ele>713.92</ele>
        <time>2017-04-20T11:19:41Z</time>
      </trkpt>
      <trkpt lat="44.07512" lon="3.06822">
        <ele>714.4</ele>
        <time>2017-04-20T11:19:42Z</time>
      </trkpt>
      <trkpt lat="44.07513" lon="3.0682">
        <ele>714.4</ele>
        <time>2017-04-20T11:19:43Z</time>
      </trkpt>
      <trkpt lat="44.07516" lon="3.06809">
        <ele>714.88</ele>
        <time>2017-04-20T11:19:49Z</time>
      </trkpt>
      <trkpt lat="44.07517" lon="3.06807">
        <ele>714.88</ele>
        <time>2017-04-20T11:19:50Z</time>
      </trkpt>
      <trkpt lat="44.07518" lon="3.06806">
        <ele>714.88</ele>
        <time>2017-04-20T11:19:51Z</time>
      </trkpt>
      <trkpt lat="44.07519" lon="3.06805">
        <ele>714.88</ele>
        <time>2017-04-20T11:19:52Z</time>
      </trkpt>
      <trkpt lat="44.0752" lon="3.06803">
        <ele>714.88</ele>
        <time>2017-04-20T11:19:53Z</time>
      </trkpt>
      <trkpt lat="44.07537" lon="3.0679">
        <ele>714.88</ele>
        <time>2017-04-20T11:20:07Z</time>
      </trkpt>
      <trkpt lat="44.07558" lon="3.06782">
        <ele>714.4</ele>
        <time>2017-04-20T11:20:23Z</time>
      </trkpt>
      <trkpt lat="44.07569" lon="3.06779">
        <ele>713.92</ele>
        <time>2017-04-20T11:20:31Z</time>
      </trkpt>
      <trkpt lat="44.07596" lon="3.06786">
        <ele>710.07</ele>
        <time>2017-04-20T11:20:51Z</time>
      </trkpt>
      <trkpt lat="44.07614" lon="3.068">
        <ele>709.11</ele>
        <time>2017-04-20T11:21:07Z</time>
      </trkpt>
      <trkpt lat="44.07633" lon="3.06817">
        <ele>709.11</ele>
        <time>2017-04-20T11:21:24Z</time>
      </trkpt>
      <trkpt lat="44.0764" lon="3.06819">
        <ele>710.55</ele>
        <time>2017-04-20T11:21:29Z</time>
      </trkpt>
      <trkpt lat="44.07659" lon="3.06822">
        <ele>711.51</ele>
        <time>2017-04-20T11:21:45Z</time>
      </trkpt>
      <trkpt lat="44.07676" lon="3.06816">
        <ele>713.92</ele>
        <time>2017-04-20T11:22:00Z</time>
      </trkpt>
      <trkpt lat="44.07693" lon="3.06795">
        <ele>716.32</ele>
        <time>2017-04-20T11:22:20Z</time>
      </trkpt>
      <trkpt lat="44.07706" lon="3.06776">
        <ele>717.76</ele>
        <time>2017-04-20T11:22:36Z</time>
      </trkpt>
      <trkpt lat="44.07722" lon="3.06764">
        <ele>719.2</ele>
        <time>2017-04-20T11:22:52Z</time>
      </trkpt>
      <trkpt lat="44.07739" lon="3.06758">
        <ele>721.61</ele>
        <time>2017-04-20T11:23:09Z</time>
      </trkpt>
      <trkpt lat="44.07743" lon="3.06756">
        <ele>722.09</ele>
        <time>2017-04-20T11:23:13Z</time>
      </trkpt>
      <trkpt lat="44.07753" lon="3.06751">
        <ele>722.57</ele>
        <time>2017-04-20T11:23:23Z</time>
      </trkpt>
      <trkpt lat="44.07754" lon="3.0675">
        <ele>722.57</ele>
        <time>2017-04-20T11:23:24Z</time>
      </trkpt>
      <trkpt lat="44.07769" lon="3.06748">
        <ele>723.53</ele>
        <time>2017-04-20T11:23:38Z</time>
      </trkpt>
      <trkpt lat="44.07772" lon="3.06748">
        <ele>723.53</ele>
        <time>2017-04-20T11:23:42Z</time>
      </trkpt>
      <trkpt lat="44.07785" lon="3.06758">
        <ele>725.45</ele>
        <time>2017-04-20T11:23:57Z</time>
      </trkpt>
      <trkpt lat="44.07791" lon="3.06763">
        <ele>725.93</ele>
        <time>2017-04-20T11:24:04Z</time>
      </trkpt>
      <trkpt lat="44.07804" lon="3.06768">
        <ele>727.86</ele>
        <time>2017-04-20T11:24:18Z</time>
      </trkpt>
      <trkpt lat="44.07819" lon="3.06769">
        <ele>729.3</ele>
        <time>2017-04-20T11:24:31Z</time>
      </trkpt>
      <trkpt lat="44.07823" lon="3.06769">
        <ele>729.78</ele>
        <time>2017-04-20T11:24:35Z</time>
      </trkpt>
      <trkpt lat="44.07836" lon="3.06772">
        <ele>730.74</ele>
        <time>2017-04-20T11:24:48Z</time>
      </trkpt>
      <trkpt lat="44.07851" lon="3.0678">
        <ele>732.18</ele>
        <time>2017-04-20T11:25:03Z</time>
      </trkpt>
      <trkpt lat="44.07865" lon="3.06793">
        <ele>734.58</ele>
        <time>2017-04-20T11:25:19Z</time>
      </trkpt>
      <trkpt lat="44.07867" lon="3.06795">
        <ele>734.1</ele>
        <time>2017-04-20T11:25:21Z</time>
      </trkpt>
      <trkpt lat="44.07869" lon="3.06799">
        <ele>730.74</ele>
        <time>2017-04-20T11:25:24Z</time>
      </trkpt>
      <trkpt lat="44.07869" lon="3.06801">
        <ele>733.14</ele>
        <time>2017-04-20T11:25:25Z</time>
      </trkpt>
      <trkpt lat="44.07871" lon="3.06806">
        <ele>742.76</ele>
        <time>2017-04-20T11:25:27Z</time>
      </trkpt>
      <trkpt lat="44.07872" lon="3.0681">
        <ele>735.07</ele>
        <time>2017-04-20T11:25:28Z</time>
      </trkpt>
      <trkpt lat="44.07872" lon="3.0681">
        <ele>735.07</ele>
        <time>2017-04-20T11:25:29Z</time>
      </trkpt>
      <trkpt lat="44.07872" lon="3.0681">
        <ele>735.07</ele>
        <time>2017-04-20T11:25:31Z</time>
      </trkpt>
      <trkpt lat="44.07872" lon="3.06811">
        <ele>735.07</ele>
        <time>2017-04-20T11:25:32Z</time>
      </trkpt>
      <trkpt lat="44.07875" lon="3.06814">
        <ele>735.07</ele>
        <time>2017-04-20T11:25:36Z</time>
      </trkpt>
      <trkpt lat="44.07878" lon="3.0682">
        <ele>736.51</ele>
        <time>2017-04-20T11:25:41Z</time>
      </trkpt>
      <trkpt lat="44.07886" lon="3.06834">
        <ele>737.47</ele>
        <time>2017-04-20T11:25:53Z</time>
      </trkpt>
      <trkpt lat="44.07886" lon="3.06836">
        <ele>737.47</ele>
        <time>2017-04-20T11:25:54Z</time>
      </trkpt>
      <trkpt lat="44.07889" lon="3.06841">
        <ele>738.43</ele>
        <time>2017-04-20T11:26:07Z</time>
      </trkpt>
      <trkpt lat="44.07889" lon="3.06849">
        <ele>738.43</ele>
        <time>2017-04-20T11:26:24Z</time>
      </trkpt>
      <trkpt lat="44.07891" lon="3.06845">
        <ele>738.43</ele>
        <time>2017-04-20T11:26:38Z</time>
      </trkpt>
      <trkpt lat="44.07892" lon="3.06843">
        <ele>738.43</ele>
        <time>2017-04-20T11:26:39Z</time>
      </trkpt>
      <trkpt lat="44.07893" lon="3.06843">
        <ele>738.43</ele>
        <time>2017-04-20T11:26:40Z</time>
      </trkpt>
      <trkpt lat="44.07901" lon="3.06841">
        <ele>738.43</ele>
        <time>2017-04-20T11:26:55Z</time>
      </trkpt>
      <trkpt lat="44.07901" lon="3.06842">
        <ele>738.43</ele>
        <time>2017-04-20T11:27:16Z</time>
      </trkpt>
      <trkpt lat="44.07901" lon="3.06847">
        <ele>738.43</ele>
        <time>2017-04-20T11:27:25Z</time>
      </trkpt>
      <trkpt lat="44.07904" lon="3.06849">
        <ele>738.43</ele>
        <time>2017-04-20T11:27:38Z</time>
      </trkpt>
      <trkpt lat="44.07901" lon="3.06851">
        <ele>737.95</ele>
        <time>2017-04-20T11:27:58Z</time>
      </trkpt>
      <trkpt lat="44.07901" lon="3.06851">
        <ele>738.43</ele>
        <time>2017-04-20T11:28:27Z</time>
      </trkpt>
      <trkpt lat="44.07905" lon="3.06848">
        <ele>738.43</ele>
        <time>2017-04-20T11:28:44Z</time>
      </trkpt>
      <trkpt lat="44.07906" lon="3.06851">
        <ele>738.43</ele>
        <time>2017-04-20T11:29:08Z</time>
      </trkpt>
      <trkpt lat="44.07906" lon="3.0685">
        <ele>736.99</ele>
        <time>2017-04-20T11:29:29Z</time>
      </trkpt>
      <trkpt lat="44.07906" lon="3.0685">
        <ele>736.99</ele>
        <time>2017-04-20T11:29:30Z</time>
      </trkpt>
      <trkpt lat="44.07904" lon="3.0685">
        <ele>736.99</ele>
        <time>2017-04-20T11:29:56Z</time>
      </trkpt>
      <trkpt lat="44.07905" lon="3.06852">
        <ele>736.99</ele>
        <time>2017-04-20T11:30:18Z</time>
      </trkpt>
      <trkpt lat="44.07903" lon="3.06852">
        <ele>736.99</ele>
        <time>2017-04-20T11:30:37Z</time>
      </trkpt>
      <trkpt lat="44.07895" lon="3.0686">
        <ele>737.95</ele>
        <time>2017-04-20T11:30:51Z</time>
      </trkpt>
      <trkpt lat="44.07891" lon="3.06867">
        <ele>738.43</ele>
        <time>2017-04-20T11:31:00Z</time>
      </trkpt>
      <trkpt lat="44.07883" lon="3.06882">
        <ele>739.39</ele>
        <time>2017-04-20T11:31:14Z</time>
      </trkpt>
      <trkpt lat="44.07882" lon="3.06902">
        <ele>739.39</ele>
        <time>2017-04-20T11:31:26Z</time>
      </trkpt>
      <trkpt lat="44.07886" lon="3.06925">
        <ele>740.35</ele>
        <time>2017-04-20T11:31:42Z</time>
      </trkpt>
      <trkpt lat="44.07889" lon="3.06943">
        <ele>739.39</ele>
        <time>2017-04-20T11:31:55Z</time>
      </trkpt>
      <trkpt lat="44.0789" lon="3.06963">
        <ele>737.95</ele>
        <time>2017-04-20T11:32:09Z</time>
      </trkpt>
      <trkpt lat="44.0789" lon="3.06991">
        <ele>736.03</ele>
        <time>2017-04-20T11:32:28Z</time>
      </trkpt>
      <trkpt lat="44.07892" lon="3.0701">
        <ele>735.07</ele>
        <time>2017-04-20T11:32:42Z</time>
      </trkpt>
      <trkpt lat="44.07897" lon="3.07033">
        <ele>735.07</ele>
        <time>2017-04-20T11:32:58Z</time>
      </trkpt>
      <trkpt lat="44.07903" lon="3.07044">
        <ele>735.07</ele>
        <time>2017-04-20T11:33:06Z</time>
      </trkpt>
      <trkpt lat="44.07911" lon="3.07065">
        <ele>734.58</ele>
        <time>2017-04-20T11:33:22Z</time>
      </trkpt>
      <trkpt lat="44.07915" lon="3.07086">
        <ele>734.58</ele>
        <time>2017-04-20T11:33:35Z</time>
      </trkpt>
      <trkpt lat="44.07916" lon="3.07091">
        <ele>734.58</ele>
        <time>2017-04-20T11:33:51Z</time>
      </trkpt>
      <trkpt lat="44.07915" lon="3.07113">
        <ele>736.03</ele>
        <time>2017-04-20T11:34:07Z</time>
      </trkpt>
      <trkpt lat="44.07915" lon="3.07133">
        <ele>738.43</ele>
        <time>2017-04-20T11:34:23Z</time>
      </trkpt>
      <trkpt lat="44.07918" lon="3.07143">
        <ele>739.39</ele>
        <time>2017-04-20T11:34:32Z</time>
      </trkpt>
      <trkpt lat="44.07926" lon="3.07162">
        <ele>740.35</ele>
        <time>2017-04-20T11:34:47Z</time>
      </trkpt>
      <trkpt lat="44.07937" lon="3.07185">
        <ele>740.83</ele>
        <time>2017-04-20T11:35:04Z</time>
      </trkpt>
      <trkpt lat="44.07941" lon="3.07193">
        <ele>739.87</ele>
        <time>2017-04-20T11:35:10Z</time>
      </trkpt>
      <trkpt lat="44.07941" lon="3.07197">
        <ele>744.2</ele>
        <time>2017-04-20T11:35:13Z</time>
      </trkpt>
      <trkpt lat="44.07941" lon="3.07198">
        <ele>740.83</ele>
        <time>2017-04-20T11:35:14Z</time>
      </trkpt>
      <trkpt lat="44.07948" lon="3.07207">
        <ele>740.83</ele>
        <time>2017-04-20T11:35:22Z</time>
      </trkpt>
      <trkpt lat="44.07951" lon="3.07212">
        <ele>742.28</ele>
        <time>2017-04-20T11:35:26Z</time>
      </trkpt>
      <trkpt lat="44.07964" lon="3.07228">
        <ele>743.24</ele>
        <time>2017-04-20T11:35:41Z</time>
      </trkpt>
      <trkpt lat="44.07975" lon="3.07243">
        <ele>744.2</ele>
        <time>2017-04-20T11:35:56Z</time>
      </trkpt>
      <trkpt lat="44.07989" lon="3.07256">
        <ele>745.64</ele>
        <time>2017-04-20T11:36:11Z</time>
      </trkpt>
      <trkpt lat="44.0799" lon="3.07257">
        <ele>746.12</ele>
        <time>2017-04-20T11:36:13Z</time>
      </trkpt>
      <trkpt lat="44.07995" lon="3.0727">
        <ele>746.6</ele>
        <time>2017-04-20T11:36:28Z</time>
      </trkpt>
      <trkpt lat="44.07996" lon="3.07275">
        <ele>746.6</ele>
        <time>2017-04-20T11:36:43Z</time>
      </trkpt>
      <trkpt lat="44.07999" lon="3.07287">
        <ele>747.08</ele>
        <time>2017-04-20T11:37:10Z</time>
      </trkpt>
      <trkpt lat="44.08001" lon="3.07299">
        <ele>747.56</ele>
        <time>2017-04-20T11:37:26Z</time>
      </trkpt>
      <trkpt lat="44.08003" lon="3.07316">
        <ele>749.49</ele>
        <time>2017-04-20T11:37:41Z</time>
      </trkpt>
      <trkpt lat="44.08006" lon="3.0733">
        <ele>751.41</ele>
        <time>2017-04-20T11:37:53Z</time>
      </trkpt>
      <trkpt lat="44.08022" lon="3.07344">
        <ele>752.85</ele>
        <time>2017-04-20T11:38:11Z</time>
      </trkpt>
      <trkpt lat="44.08036" lon="3.07359">
        <ele>752.85</ele>
        <time>2017-04-20T11:38:26Z</time>
      </trkpt>
      <trkpt lat="44.08047" lon="3.07378">
        <ele>753.33</ele>
        <time>2017-04-20T11:38:42Z</time>
      </trkpt>
      <trkpt lat="44.08053" lon="3.07376">
        <ele>753.33</ele>
        <time>2017-04-20T11:38:55Z</time>
      </trkpt>
      <trkpt lat="44.08051" lon="3.07382">
        <ele>753.33</ele>
        <time>2017-04-20T11:39:15Z</time>
      </trkpt>
      <trkpt lat="44.08056" lon="3.07401">
        <ele>753.33</ele>
        <time>2017-04-20T11:39:30Z</time>
      </trkpt>
      <trkpt lat="44.08058" lon="3.07403">
        <ele>753.33</ele>
        <time>2017-04-20T11:39:32Z</time>
      </trkpt>
      <trkpt lat="44.08065" lon="3.07404">
        <ele>752.37</ele>
        <time>2017-04-20T11:39:39Z</time>
      </trkpt>
      <trkpt lat="44.08066" lon="3.07406">
        <ele>752.37</ele>
        <time>2017-04-20T11:39:47Z</time>
      </trkpt>
      <trkpt lat="44.08066" lon="3.07432">
        <ele>750.93</ele>
        <time>2017-04-20T11:40:02Z</time>
      </trkpt>
      <trkpt lat="44.08074" lon="3.07454">
        <ele>749.49</ele>
        <time>2017-04-20T11:40:16Z</time>
      </trkpt>
      <trkpt lat="44.08077" lon="3.07466">
        <ele>750.45</ele>
        <time>2017-04-20T11:40:23Z</time>
      </trkpt>
      <trkpt lat="44.08084" lon="3.07491">
        <ele>752.85</ele>
        <time>2017-04-20T11:40:41Z</time>
      </trkpt>
      <trkpt lat="44.08087" lon="3.07517">
        <ele>755.73</ele>
        <time>2017-04-20T11:40:59Z</time>
      </trkpt>
      <trkpt lat="44.08095" lon="3.07535">
        <ele>757.18</ele>
        <time>2017-04-20T11:41:14Z</time>
      </trkpt>
      <trkpt lat="44.08097" lon="3.07545">
        <ele>758.62</ele>
        <time>2017-04-20T11:41:20Z</time>
      </trkpt>
      <trkpt lat="44.08099" lon="3.07554">
        <ele>758.62</ele>
        <time>2017-04-20T11:41:26Z</time>
      </trkpt>
      <trkpt lat="44.08101" lon="3.0756">
        <ele>758.62</ele>
        <time>2017-04-20T11:41:31Z</time>
      </trkpt>
      <trkpt lat="44.08106" lon="3.07587">
        <ele>760.54</ele>
        <time>2017-04-20T11:41:52Z</time>
      </trkpt>
      <trkpt lat="44.08108" lon="3.07605">
        <ele>762.46</ele>
        <time>2017-04-20T11:42:07Z</time>
      </trkpt>
      <trkpt lat="44.08113" lon="3.07623">
        <ele>764.87</ele>
        <time>2017-04-20T11:42:23Z</time>
      </trkpt>
      <trkpt lat="44.08112" lon="3.07631">
        <ele>765.35</ele>
        <time>2017-04-20T11:42:37Z</time>
      </trkpt>
      <trkpt lat="44.08112" lon="3.0763">
        <ele>765.35</ele>
        <time>2017-04-20T11:42:52Z</time>
      </trkpt>
      <trkpt lat="44.08112" lon="3.07631">
        <ele>765.35</ele>
        <time>2017-04-20T11:43:10Z</time>
      </trkpt>
      <trkpt lat="44.08112" lon="3.07629">
        <ele>765.35</ele>
        <time>2017-04-20T11:43:34Z</time>
      </trkpt>
      <trkpt lat="44.08112" lon="3.0763">
        <ele>765.35</ele>
        <time>2017-04-20T11:43:36Z</time>
      </trkpt>
      <trkpt lat="44.08108" lon="3.0764">
        <ele>765.35</ele>
        <time>2017-04-20T11:43:44Z</time>
      </trkpt>
      <trkpt lat="44.08109" lon="3.07643">
        <ele>765.83</ele>
        <time>2017-04-20T11:43:46Z</time>
      </trkpt>
      <trkpt lat="44.0811" lon="3.07646">
        <ele>766.31</ele>
        <time>2017-04-20T11:43:49Z</time>
      </trkpt>
      <trkpt lat="44.08112" lon="3.07647">
        <ele>766.79</ele>
        <time>2017-04-20T11:43:51Z</time>
      </trkpt>
      <trkpt lat="44.08116" lon="3.07648">
        <ele>766.79</ele>
        <time>2017-04-20T11:43:55Z</time>
      </trkpt>
      <trkpt lat="44.0812" lon="3.07651">
        <ele>767.27</ele>
        <time>2017-04-20T11:44:00Z</time>
      </trkpt>
      <trkpt lat="44.08123" lon="3.07655">
        <ele>767.75</ele>
        <time>2017-04-20T11:44:04Z</time>
      </trkpt>
      <trkpt lat="44.08126" lon="3.0766">
        <ele>768.23</ele>
        <time>2017-04-20T11:44:08Z</time>
      </trkpt>
      <trkpt lat="44.08133" lon="3.07684">
        <ele>769.67</ele>
        <time>2017-04-20T11:44:25Z</time>
      </trkpt>
      <trkpt lat="44.08138" lon="3.07701">
        <ele>772.08</ele>
        <time>2017-04-20T11:44:41Z</time>
      </trkpt>
      <trkpt lat="44.08144" lon="3.07718">
        <ele>773.04</ele>
        <time>2017-04-20T11:44:54Z</time>
      </trkpt>
      <trkpt lat="44.08152" lon="3.07738">
        <ele>774.48</ele>
        <time>2017-04-20T11:45:10Z</time>
      </trkpt>
      <trkpt lat="44.08157" lon="3.07755">
        <ele>776.4</ele>
        <time>2017-04-20T11:45:24Z</time>
      </trkpt>
      <trkpt lat="44.08162" lon="3.07776">
        <ele>778.81</ele>
        <time>2017-04-20T11:45:41Z</time>
      </trkpt>
      <trkpt lat="44.08168" lon="3.07793">
        <ele>780.25</ele>
        <time>2017-04-20T11:45:55Z</time>
      </trkpt>
      <trkpt lat="44.08175" lon="3.0781">
        <ele>782.17</ele>
        <time>2017-04-20T11:46:08Z</time>
      </trkpt>
      <trkpt lat="44.08183" lon="3.07827">
        <ele>783.13</ele>
        <time>2017-04-20T11:46:21Z</time>
      </trkpt>
      <trkpt lat="44.08189" lon="3.07845">
        <ele>783.61</ele>
        <time>2017-04-20T11:46:35Z</time>
      </trkpt>
      <trkpt lat="44.08195" lon="3.07863">
        <ele>785.05</ele>
        <time>2017-04-20T11:46:48Z</time>
      </trkpt>
      <trkpt lat="44.08203" lon="3.07885">
        <ele>786.02</ele>
        <time>2017-04-20T11:47:04Z</time>
      </trkpt>
      <trkpt lat="44.08209" lon="3.07899">
        <ele>786.5</ele>
        <time>2017-04-20T11:47:16Z</time>
      </trkpt>
      <trkpt lat="44.08213" lon="3.07904">
        <ele>786.98</ele>
        <time>2017-04-20T11:47:29Z</time>
      </trkpt>
      <trkpt lat="44.08213" lon="3.07908">
        <ele>786.98</ele>
        <time>2017-04-20T11:47:32Z</time>
      </trkpt>
      <trkpt lat="44.08213" lon="3.07911">
        <ele>786.98</ele>
        <time>2017-04-20T11:47:34Z</time>
      </trkpt>
      <trkpt lat="44.08216" lon="3.07939">
        <ele>786.98</ele>
        <time>2017-04-20T11:47:51Z</time>
      </trkpt>
      <trkpt lat="44.08206" lon="3.07955">
        <ele>787.46</ele>
        <time>2017-04-20T11:48:06Z</time>
      </trkpt>
      <trkpt lat="44.08205" lon="3.07959">
        <ele>788.42</ele>
        <time>2017-04-20T11:48:09Z</time>
      </trkpt>
      <trkpt lat="44.08207" lon="3.07989">
        <ele>788.42</ele>
        <time>2017-04-20T11:48:25Z</time>
      </trkpt>
      <trkpt lat="44.08205" lon="3.0801">
        <ele>789.38</ele>
        <time>2017-04-20T11:48:39Z</time>
      </trkpt>
      <trkpt lat="44.08205" lon="3.08032">
        <ele>791.3</ele>
        <time>2017-04-20T11:48:53Z</time>
      </trkpt>
      <trkpt lat="44.08205" lon="3.08049">
        <ele>792.26</ele>
        <time>2017-04-20T11:49:05Z</time>
      </trkpt>
      <trkpt lat="44.08199" lon="3.08056">
        <ele>793.22</ele>
        <time>2017-04-20T11:49:14Z</time>
      </trkpt>
      <trkpt lat="44.08198" lon="3.08057">
        <ele>793.71</ele>
        <time>2017-04-20T11:49:16Z</time>
      </trkpt>
      <trkpt lat="44.08192" lon="3.08083">
        <ele>795.15</ele>
        <time>2017-04-20T11:49:33Z</time>
      </trkpt>
      <trkpt lat="44.08185" lon="3.08094">
        <ele>796.11</ele>
        <time>2017-04-20T11:49:45Z</time>
      </trkpt>
      <trkpt lat="44.08178" lon="3.08112">
        <ele>798.03</ele>
        <time>2017-04-20T11:50:00Z</time>
      </trkpt>
      <trkpt lat="44.08171" lon="3.0813">
        <ele>798.51</ele>
        <time>2017-04-20T11:50:14Z</time>
      </trkpt>
      <trkpt lat="44.0817" lon="3.08138">
        <ele>798.99</ele>
        <time>2017-04-20T11:50:20Z</time>
      </trkpt>
      <trkpt lat="44.0817" lon="3.08152">
        <ele>799.47</ele>
        <time>2017-04-20T11:50:30Z</time>
      </trkpt>
      <trkpt lat="44.08172" lon="3.08156">
        <ele>799.95</ele>
        <time>2017-04-20T11:50:33Z</time>
      </trkpt>
      <trkpt lat="44.08173" lon="3.08166">
        <ele>800.44</ele>
        <time>2017-04-20T11:50:40Z</time>
      </trkpt>
      <trkpt lat="44.08169" lon="3.08173">
        <ele>800.44</ele>
        <time>2017-04-20T11:50:52Z</time>
      </trkpt>
      <trkpt lat="44.08168" lon="3.0818">
        <ele>800.44</ele>
        <time>2017-04-20T11:51:04Z</time>
      </trkpt>
      <trkpt lat="44.08168" lon="3.082">
        <ele>801.4</ele>
        <time>2017-04-20T11:51:18Z</time>
      </trkpt>
      <trkpt lat="44.0817" lon="3.08221">
        <ele>801.88</ele>
        <time>2017-04-20T11:51:33Z</time>
      </trkpt>
      <trkpt lat="44.08162" lon="3.08239">
        <ele>801.88</ele>
        <time>2017-04-20T11:51:49Z</time>
      </trkpt>
      <trkpt lat="44.0816" lon="3.08243">
        <ele>801.88</ele>
        <time>2017-04-20T11:51:52Z</time>
      </trkpt>
      <trkpt lat="44.08153" lon="3.08262">
        <ele>802.84</ele>
        <time>2017-04-20T11:52:06Z</time>
      </trkpt>
      <trkpt lat="44.08147" lon="3.08286">
        <ele>800.92</ele>
        <time>2017-04-20T11:52:22Z</time>
      </trkpt>
      <trkpt lat="44.08141" lon="3.08303">
        <ele>799.47</ele>
        <time>2017-04-20T11:52:35Z</time>
      </trkpt>
      <trkpt lat="44.08139" lon="3.08305">
        <ele>804.28</ele>
        <time>2017-04-20T11:52:37Z</time>
      </trkpt>
      <trkpt lat="44.08139" lon="3.08306">
        <ele>799.95</ele>
        <time>2017-04-20T11:52:38Z</time>
      </trkpt>
      <trkpt lat="44.08135" lon="3.08318">
        <ele>798.99</ele>
        <time>2017-04-20T11:52:48Z</time>
      </trkpt>
      <trkpt lat="44.08125" lon="3.0834">
        <ele>798.51</ele>
        <time>2017-04-20T11:53:04Z</time>
      </trkpt>
      <trkpt lat="44.08115" lon="3.08361">
        <ele>797.55</ele>
        <time>2017-04-20T11:53:18Z</time>
      </trkpt>
      <trkpt lat="44.08107" lon="3.08376">
        <ele>796.59</ele>
        <time>2017-04-20T11:53:31Z</time>
      </trkpt>
      <trkpt lat="44.081" lon="3.08395">
        <ele>795.15</ele>
        <time>2017-04-20T11:53:44Z</time>
      </trkpt>
      <trkpt lat="44.08092" lon="3.08416">
        <ele>794.19</ele>
        <time>2017-04-20T11:53:57Z</time>
      </trkpt>
      <trkpt lat="44.08092" lon="3.08418">
        <ele>794.19</ele>
        <time>2017-04-20T11:53:58Z</time>
      </trkpt>
      <trkpt lat="44.0808" lon="3.08438">
        <ele>793.71</ele>
        <time>2017-04-20T11:54:14Z</time>
      </trkpt>
      <trkpt lat="44.08079" lon="3.08443">
        <ele>793.22</ele>
        <time>2017-04-20T11:54:18Z</time>
      </trkpt>
      <trkpt lat="44.08068" lon="3.0847">
        <ele>792.26</ele>
        <time>2017-04-20T11:54:36Z</time>
      </trkpt>
      <trkpt lat="44.08061" lon="3.08495">
        <ele>792.26</ele>
        <time>2017-04-20T11:54:52Z</time>
      </trkpt>
      <trkpt lat="44.0806" lon="3.08519">
        <ele>791.3</ele>
        <time>2017-04-20T11:55:06Z</time>
      </trkpt>
      <trkpt lat="44.08058" lon="3.08543">
        <ele>789.86</ele>
        <time>2017-04-20T11:55:20Z</time>
      </trkpt>
      <trkpt lat="44.08057" lon="3.08567">
        <ele>788.9</ele>
        <time>2017-04-20T11:55:34Z</time>
      </trkpt>
      <trkpt lat="44.08061" lon="3.08586">
        <ele>787.94</ele>
        <time>2017-04-20T11:55:49Z</time>
      </trkpt>
      <trkpt lat="44.08063" lon="3.08605">
        <ele>786.5</ele>
        <time>2017-04-20T11:56:00Z</time>
      </trkpt>
      <trkpt lat="44.08064" lon="3.08628">
        <ele>783.61</ele>
        <time>2017-04-20T11:56:14Z</time>
      </trkpt>
      <trkpt lat="44.08062" lon="3.08652">
        <ele>782.17</ele>
        <time>2017-04-20T11:56:29Z</time>
      </trkpt>
      <trkpt lat="44.08056" lon="3.08668">
        <ele>781.21</ele>
        <time>2017-04-20T11:56:42Z</time>
      </trkpt>
      <trkpt lat="44.08054" lon="3.08673">
        <ele>780.73</ele>
        <time>2017-04-20T11:56:47Z</time>
      </trkpt>
      <trkpt lat="44.08046" lon="3.08693">
        <ele>779.77</ele>
        <time>2017-04-20T11:57:02Z</time>
      </trkpt>
      <trkpt lat="44.08043" lon="3.08706">
        <ele>778.81</ele>
        <time>2017-04-20T11:57:12Z</time>
      </trkpt>
      <trkpt lat="44.08043" lon="3.08716">
        <ele>777.36</ele>
        <time>2017-04-20T11:57:19Z</time>
      </trkpt>
      <trkpt lat="44.08036" lon="3.08732">
        <ele>775.92</ele>
        <time>2017-04-20T11:57:32Z</time>
      </trkpt>
      <trkpt lat="44.08025" lon="3.0875">
        <ele>774.48</ele>
        <time>2017-04-20T11:57:47Z</time>
      </trkpt>
      <trkpt lat="44.08023" lon="3.08752">
        <ele>774.48</ele>
        <time>2017-04-20T11:57:49Z</time>
      </trkpt>
      <trkpt lat="44.08018" lon="3.08763">
        <ele>773.52</ele>
        <time>2017-04-20T11:57:58Z</time>
      </trkpt>
      <trkpt lat="44.08016" lon="3.08765">
        <ele>773.04</ele>
        <time>2017-04-20T11:58:00Z</time>
      </trkpt>
      <trkpt lat="44.08012" lon="3.08785">
        <ele>770.15</ele>
        <time>2017-04-20T11:58:15Z</time>
      </trkpt>
      <trkpt lat="44.08012" lon="3.08786">
        <ele>770.15</ele>
        <time>2017-04-20T11:58:16Z</time>
      </trkpt>
      <trkpt lat="44.08009" lon="3.08803">
        <ele>766.79</ele>
        <time>2017-04-20T11:58:29Z</time>
      </trkpt>
      <trkpt lat="44.08007" lon="3.08804">
        <ele>771.11</ele>
        <time>2017-04-20T11:58:31Z</time>
      </trkpt>
      <trkpt lat="44.08007" lon="3.08805">
        <ele>767.27</ele>
        <time>2017-04-20T11:58:32Z</time>
      </trkpt>
      <trkpt lat="44.0801" lon="3.08823">
        <ele>764.87</ele>
        <time>2017-04-20T11:58:46Z</time>
      </trkpt>
      <trkpt lat="44.0801" lon="3.08837">
        <ele>761.98</ele>
        <time>2017-04-20T11:59:00Z</time>
      </trkpt>
      <trkpt lat="44.08009" lon="3.08851">
        <ele>759.1</ele>
        <time>2017-04-20T11:59:14Z</time>
      </trkpt>
      <trkpt lat="44.08012" lon="3.0886">
        <ele>757.18</ele>
        <time>2017-04-20T11:59:28Z</time>
      </trkpt>
      <trkpt lat="44.08009" lon="3.08867">
        <ele>756.69</ele>
        <time>2017-04-20T11:59:47Z</time>
      </trkpt>
      <trkpt lat="44.07998" lon="3.08889">
        <ele>755.25</ele>
        <time>2017-04-20T12:00:05Z</time>
      </trkpt>
      <trkpt lat="44.07987" lon="3.08911">
        <ele>753.33</ele>
        <time>2017-04-20T12:00:22Z</time>
      </trkpt>
      <trkpt lat="44.07977" lon="3.08926">
        <ele>751.89</ele>
        <time>2017-04-20T12:00:35Z</time>
      </trkpt>
      <trkpt lat="44.07969" lon="3.08946">
        <ele>750.93</ele>
        <time>2017-04-20T12:00:49Z</time>
      </trkpt>
      <trkpt lat="44.07961" lon="3.08966">
        <ele>749.49</ele>
        <time>2017-04-20T12:01:05Z</time>
      </trkpt>
      <trkpt lat="44.07953" lon="3.08989">
        <ele>749</ele>
        <time>2017-04-20T12:01:20Z</time>
      </trkpt>
      <trkpt lat="44.07947" lon="3.09013">
        <ele>747.56</ele>
        <time>2017-04-20T12:01:37Z</time>
      </trkpt>
      <trkpt lat="44.07939" lon="3.0904">
        <ele>745.64</ele>
        <time>2017-04-20T12:01:53Z</time>
      </trkpt>
      <trkpt lat="44.07935" lon="3.09051">
        <ele>744.2</ele>
        <time>2017-04-20T12:02:00Z</time>
      </trkpt>
      <trkpt lat="44.07933" lon="3.09053">
        <ele>749.49</ele>
        <time>2017-04-20T12:02:02Z</time>
      </trkpt>
      <trkpt lat="44.07933" lon="3.09054">
        <ele>744.68</ele>
        <time>2017-04-20T12:02:03Z</time>
      </trkpt>
      <trkpt lat="44.07928" lon="3.09072">
        <ele>743.72</ele>
        <time>2017-04-20T12:02:14Z</time>
      </trkpt>
      <trkpt lat="44.07919" lon="3.09095">
        <ele>743.24</ele>
        <time>2017-04-20T12:02:30Z</time>
      </trkpt>
      <trkpt lat="44.07917" lon="3.09097">
        <ele>742.28</ele>
        <time>2017-04-20T12:02:32Z</time>
      </trkpt>
      <trkpt lat="44.07905" lon="3.09117">
        <ele>742.76</ele>
        <time>2017-04-20T12:02:48Z</time>
      </trkpt>
      <trkpt lat="44.07894" lon="3.09133">
        <ele>740.83</ele>
        <time>2017-04-20T12:03:00Z</time>
      </trkpt>
      <trkpt lat="44.07892" lon="3.09135">
        <ele>743.24</ele>
        <time>2017-04-20T12:03:02Z</time>
      </trkpt>
      <trkpt lat="44.07891" lon="3.09136">
        <ele>743.24</ele>
        <time>2017-04-20T12:03:03Z</time>
      </trkpt>
      <trkpt lat="44.07891" lon="3.09137">
        <ele>740.83</ele>
        <time>2017-04-20T12:03:04Z</time>
      </trkpt>
      <trkpt lat="44.07884" lon="3.09148">
        <ele>740.35</ele>
        <time>2017-04-20T12:03:12Z</time>
      </trkpt>
      <trkpt lat="44.07874" lon="3.09156">
        <ele>739.87</ele>
        <time>2017-04-20T12:03:25Z</time>
      </trkpt>
      <trkpt lat="44.0787" lon="3.09162">
        <ele>739.87</ele>
        <time>2017-04-20T12:03:42Z</time>
      </trkpt>
      <trkpt lat="44.07871" lon="3.09171">
        <ele>737.95</ele>
        <time>2017-04-20T12:04:00Z</time>
      </trkpt>
      <trkpt lat="44.07869" lon="3.09179">
        <ele>736.03</ele>
        <time>2017-04-20T12:04:12Z</time>
      </trkpt>
      <trkpt lat="44.07875" lon="3.09183">
        <ele>735.07</ele>
        <time>2017-04-20T12:04:28Z</time>
      </trkpt>
      <trkpt lat="44.07877" lon="3.09188">
        <ele>734.58</ele>
        <time>2017-04-20T12:04:47Z</time>
      </trkpt>
      <trkpt lat="44.07875" lon="3.0919">
        <ele>734.1</ele>
        <time>2017-04-20T12:05:04Z</time>
      </trkpt>
      <trkpt lat="44.0788" lon="3.0919">
        <ele>732.18</ele>
        <time>2017-04-20T12:05:21Z</time>
      </trkpt>
      <trkpt lat="44.07881" lon="3.09198">
        <ele>728.82</ele>
        <time>2017-04-20T12:05:35Z</time>
      </trkpt>
      <trkpt lat="44.07885" lon="3.09198">
        <ele>728.82</ele>
        <time>2017-04-20T12:05:41Z</time>
      </trkpt>
      <trkpt lat="44.07896" lon="3.09199">
        <ele>728.34</ele>
        <time>2017-04-20T12:05:57Z</time>
      </trkpt>
      <trkpt lat="44.07898" lon="3.09202">
        <ele>723.53</ele>
        <time>2017-04-20T12:06:10Z</time>
      </trkpt>
      <trkpt lat="44.07897" lon="3.09202">
        <ele>732.18</ele>
        <time>2017-04-20T12:06:11Z</time>
      </trkpt>
      <trkpt lat="44.07897" lon="3.09203">
        <ele>726.89</ele>
        <time>2017-04-20T12:06:12Z</time>
      </trkpt>
      <trkpt lat="44.07894" lon="3.09214">
        <ele>724.97</ele>
        <time>2017-04-20T12:06:26Z</time>
      </trkpt>
      <trkpt lat="44.07893" lon="3.09216">
        <ele>724.01</ele>
        <time>2017-04-20T12:06:29Z</time>
      </trkpt>
      <trkpt lat="44.07894" lon="3.09218">
        <ele>722.57</ele>
        <time>2017-04-20T12:06:32Z</time>
      </trkpt>
      <trkpt lat="44.07895" lon="3.09235">
        <ele>721.13</ele>
        <time>2017-04-20T12:06:44Z</time>
      </trkpt>
      <trkpt lat="44.07898" lon="3.0923">
        <ele>722.09</ele>
        <time>2017-04-20T12:06:59Z</time>
      </trkpt>
      <trkpt lat="44.07902" lon="3.09228">
        <ele>721.13</ele>
        <time>2017-04-20T12:07:17Z</time>
      </trkpt>
      <trkpt lat="44.07912" lon="3.09234">
        <ele>720.16</ele>
        <time>2017-04-20T12:07:32Z</time>
      </trkpt>
      <trkpt lat="44.07913" lon="3.09233">
        <ele>720.16</ele>
        <time>2017-04-20T12:07:41Z</time>
      </trkpt>
      <trkpt lat="44.07908" lon="3.0923">
        <ele>715.36</ele>
        <time>2017-04-20T12:07:48Z</time>
      </trkpt>
      <trkpt lat="44.07908" lon="3.0923">
        <ele>726.41</ele>
        <time>2017-04-20T12:07:49Z</time>
      </trkpt>
      <trkpt lat="44.07908" lon="3.09229">
        <ele>720.65</ele>
        <time>2017-04-20T12:07:50Z</time>
      </trkpt>
      <trkpt lat="44.07904" lon="3.09223">
        <ele>720.65</ele>
        <time>2017-04-20T12:08:09Z</time>
      </trkpt>
      <trkpt lat="44.07903" lon="3.09221">
        <ele>720.65</ele>
        <time>2017-04-20T12:08:34Z</time>
      </trkpt>
      <trkpt lat="44.07904" lon="3.09218">
        <ele>720.65</ele>
        <time>2017-04-20T12:08:50Z</time>
      </trkpt>
      <trkpt lat="44.07915" lon="3.09216">
        <ele>717.76</ele>
        <time>2017-04-20T12:09:03Z</time>
      </trkpt>
      <trkpt lat="44.07922" lon="3.09221">
        <ele>715.36</ele>
        <time>2017-04-20T12:09:19Z</time>
      </trkpt>
      <trkpt lat="44.07933" lon="3.09221">
        <ele>712.95</ele>
        <time>2017-04-20T12:09:32Z</time>
      </trkpt>
      <trkpt lat="44.07947" lon="3.09217">
        <ele>711.99</ele>
        <time>2017-04-20T12:09:46Z</time>
      </trkpt>
      <trkpt lat="44.07949" lon="3.09217">
        <ele>711.51</ele>
        <time>2017-04-20T12:09:47Z</time>
      </trkpt>
      <trkpt lat="44.07963" lon="3.09213">
        <ele>709.11</ele>
        <time>2017-04-20T12:10:02Z</time>
      </trkpt>
      <trkpt lat="44.07969" lon="3.09211">
        <ele>707.67</ele>
        <time>2017-04-20T12:10:15Z</time>
      </trkpt>
      <trkpt lat="44.07974" lon="3.09207">
        <ele>705.75</ele>
        <time>2017-04-20T12:10:30Z</time>
      </trkpt>
      <trkpt lat="44.0798" lon="3.09204">
        <ele>702.86</ele>
        <time>2017-04-20T12:10:42Z</time>
      </trkpt>
      <trkpt lat="44.07982" lon="3.09203">
        <ele>701.42</ele>
        <time>2017-04-20T12:10:54Z</time>
      </trkpt>
      <trkpt lat="44.07987" lon="3.09203">
        <ele>699.5</ele>
        <time>2017-04-20T12:11:07Z</time>
      </trkpt>
      <trkpt lat="44.0799" lon="3.09201">
        <ele>698.53</ele>
        <time>2017-04-20T12:11:20Z</time>
      </trkpt>
      <trkpt lat="44.07993" lon="3.092">
        <ele>696.13</ele>
        <time>2017-04-20T12:11:37Z</time>
      </trkpt>
      <trkpt lat="44.07995" lon="3.09199">
        <ele>696.13</ele>
        <time>2017-04-20T12:12:01Z</time>
      </trkpt>
      <trkpt lat="44.07998" lon="3.09198">
        <ele>696.13</ele>
        <time>2017-04-20T12:12:21Z</time>
      </trkpt>
      <trkpt lat="44.07999" lon="3.09198">
        <ele>694.69</ele>
        <time>2017-04-20T12:12:23Z</time>
      </trkpt>
      <trkpt lat="44.08006" lon="3.09196">
        <ele>691.33</ele>
        <time>2017-04-20T12:12:35Z</time>
      </trkpt>
      <trkpt lat="44.08007" lon="3.09196">
        <ele>690.84</ele>
        <time>2017-04-20T12:12:37Z</time>
      </trkpt>
      <trkpt lat="44.08011" lon="3.09197">
        <ele>689.4</ele>
        <time>2017-04-20T12:12:43Z</time>
      </trkpt>
      <trkpt lat="44.08014" lon="3.09193">
        <ele>687</ele>
        <time>2017-04-20T12:12:55Z</time>
      </trkpt>
      <trkpt lat="44.08019" lon="3.09188">
        <ele>684.6</ele>
        <time>2017-04-20T12:13:05Z</time>
      </trkpt>
      <trkpt lat="44.08025" lon="3.09184">
        <ele>682.67</ele>
        <time>2017-04-20T12:13:25Z</time>
      </trkpt>
      <trkpt lat="44.08031" lon="3.09174">
        <ele>680.27</ele>
        <time>2017-04-20T12:13:36Z</time>
      </trkpt>
      <trkpt lat="44.08033" lon="3.09159">
        <ele>678.35</ele>
        <time>2017-04-20T12:13:50Z</time>
      </trkpt>
      <trkpt lat="44.08035" lon="3.09145">
        <ele>677.87</ele>
        <time>2017-04-20T12:14:01Z</time>
      </trkpt>
      <trkpt lat="44.08043" lon="3.09123">
        <ele>677.39</ele>
        <time>2017-04-20T12:14:15Z</time>
      </trkpt>
      <trkpt lat="44.08052" lon="3.09102">
        <ele>673.54</ele>
        <time>2017-04-20T12:14:30Z</time>
      </trkpt>
      <trkpt lat="44.0806" lon="3.09085">
        <ele>670.66</ele>
        <time>2017-04-20T12:14:44Z</time>
      </trkpt>
      <trkpt lat="44.08069" lon="3.09069">
        <ele>667.29</ele>
        <time>2017-04-20T12:14:56Z</time>
      </trkpt>
      <trkpt lat="44.08076" lon="3.09054">
        <ele>664.41</ele>
        <time>2017-04-20T12:15:10Z</time>
      </trkpt>
      <trkpt lat="44.08084" lon="3.09043">
        <ele>661.52</ele>
        <time>2017-04-20T12:15:21Z</time>
      </trkpt>
      <trkpt lat="44.08093" lon="3.09033">
        <ele>658.16</ele>
        <time>2017-04-20T12:15:33Z</time>
      </trkpt>
      <trkpt lat="44.08096" lon="3.09031">
        <ele>660.08</ele>
        <time>2017-04-20T12:15:36Z</time>
      </trkpt>
      <trkpt lat="44.08098" lon="3.09029">
        <ele>657.68</ele>
        <time>2017-04-20T12:15:39Z</time>
      </trkpt>
      <trkpt lat="44.08106" lon="3.09026">
        <ele>654.31</ele>
        <time>2017-04-20T12:15:50Z</time>
      </trkpt>
      <trkpt lat="44.08114" lon="3.09021">
        <ele>650.95</ele>
        <time>2017-04-20T12:16:02Z</time>
      </trkpt>
      <trkpt lat="44.08123" lon="3.09006">
        <ele>648.07</ele>
        <time>2017-04-20T12:16:15Z</time>
      </trkpt>
      <trkpt lat="44.08129" lon="3.08997">
        <ele>646.14</ele>
        <time>2017-04-20T12:16:23Z</time>
      </trkpt>
      <trkpt lat="44.08141" lon="3.08985">
        <ele>642.3</ele>
        <time>2017-04-20T12:16:36Z</time>
      </trkpt>
      <trkpt lat="44.08149" lon="3.08978">
        <ele>638.93</ele>
        <time>2017-04-20T12:16:49Z</time>
      </trkpt>
      <trkpt lat="44.08157" lon="3.0897">
        <ele>636.05</ele>
        <time>2017-04-20T12:17:01Z</time>
      </trkpt>
      <trkpt lat="44.08166" lon="3.08958">
        <ele>633.17</ele>
        <time>2017-04-20T12:17:16Z</time>
      </trkpt>
      <trkpt lat="44.08174" lon="3.08945">
        <ele>630.28</ele>
        <time>2017-04-20T12:17:29Z</time>
      </trkpt>
      <trkpt lat="44.08185" lon="3.08931">
        <ele>626.92</ele>
        <time>2017-04-20T12:17:43Z</time>
      </trkpt>
      <trkpt lat="44.08196" lon="3.08917">
        <ele>624.03</ele>
        <time>2017-04-20T12:17:59Z</time>
      </trkpt>
      <trkpt lat="44.08201" lon="3.08907">
        <ele>622.59</ele>
        <time>2017-04-20T12:18:07Z</time>
      </trkpt>
      <trkpt lat="44.08212" lon="3.08891">
        <ele>619.71</ele>
        <time>2017-04-20T12:18:21Z</time>
      </trkpt>
      <trkpt lat="44.08222" lon="3.08875">
        <ele>617.3</ele>
        <time>2017-04-20T12:18:35Z</time>
      </trkpt>
      <trkpt lat="44.08223" lon="3.08874">
        <ele>617.3</ele>
        <time>2017-04-20T12:18:36Z</time>
      </trkpt>
      <trkpt lat="44.08232" lon="3.08859">
        <ele>614.9</ele>
        <time>2017-04-20T12:18:48Z</time>
      </trkpt>
      <trkpt lat="44.08243" lon="3.08845">
        <ele>612.5</ele>
        <time>2017-04-20T12:19:03Z</time>
      </trkpt>
      <trkpt lat="44.08256" lon="3.08832">
        <ele>609.61</ele>
        <time>2017-04-20T12:19:18Z</time>
      </trkpt>
      <trkpt lat="44.08268" lon="3.08818">
        <ele>607.69</ele>
        <time>2017-04-20T12:19:33Z</time>
      </trkpt>
      <trkpt lat="44.08278" lon="3.08806">
        <ele>604.81</ele>
        <time>2017-04-20T12:19:48Z</time>
      </trkpt>
      <trkpt lat="44.08288" lon="3.08793">
        <ele>601.92</ele>
        <time>2017-04-20T12:20:05Z</time>
      </trkpt>
      <trkpt lat="44.08299" lon="3.0878">
        <ele>599.52</ele>
        <time>2017-04-20T12:20:21Z</time>
      </trkpt>
      <trkpt lat="44.08308" lon="3.08769">
        <ele>596.15</ele>
        <time>2017-04-20T12:20:36Z</time>
      </trkpt>
      <trkpt lat="44.08318" lon="3.08756">
        <ele>593.75</ele>
        <time>2017-04-20T12:20:52Z</time>
      </trkpt>
      <trkpt lat="44.08325" lon="3.08747">
        <ele>589.91</ele>
        <time>2017-04-20T12:21:08Z</time>
      </trkpt>
      <trkpt lat="44.08326" lon="3.08746">
        <ele>591.35</ele>
        <time>2017-04-20T12:21:09Z</time>
      </trkpt>
      <trkpt lat="44.08327" lon="3.08744">
        <ele>591.83</ele>
        <time>2017-04-20T12:21:12Z</time>
      </trkpt>
      <trkpt lat="44.08326" lon="3.08742">
        <ele>591.35</ele>
        <time>2017-04-20T12:21:14Z</time>
      </trkpt>
      <trkpt lat="44.08334" lon="3.08725">
        <ele>588.95</ele>
        <time>2017-04-20T12:21:31Z</time>
      </trkpt>
      <trkpt lat="44.08344" lon="3.08715">
        <ele>587.02</ele>
        <time>2017-04-20T12:21:45Z</time>
      </trkpt>
      <trkpt lat="44.08352" lon="3.08708">
        <ele>585.1</ele>
        <time>2017-04-20T12:21:58Z</time>
      </trkpt>
      <trkpt lat="44.08358" lon="3.08697">
        <ele>582.22</ele>
        <time>2017-04-20T12:22:09Z</time>
      </trkpt>
      <trkpt lat="44.08366" lon="3.08688">
        <ele>580.29</ele>
        <time>2017-04-20T12:22:22Z</time>
      </trkpt>
      <trkpt lat="44.08375" lon="3.08678">
        <ele>577.89</ele>
        <time>2017-04-20T12:22:35Z</time>
      </trkpt>
      <trkpt lat="44.08379" lon="3.08676">
        <ele>577.41</ele>
        <time>2017-04-20T12:22:39Z</time>
      </trkpt>
      <trkpt lat="44.08388" lon="3.08662">
        <ele>575.01</ele>
        <time>2017-04-20T12:22:53Z</time>
      </trkpt>
      <trkpt lat="44.08395" lon="3.08649">
        <ele>572.6</ele>
        <time>2017-04-20T12:23:08Z</time>
      </trkpt>
      <trkpt lat="44.08402" lon="3.08634">
        <ele>570.2</ele>
        <time>2017-04-20T12:23:22Z</time>
      </trkpt>
      <trkpt lat="44.0841" lon="3.08619">
        <ele>567.32</ele>
        <time>2017-04-20T12:23:38Z</time>
      </trkpt>
      <trkpt lat="44.08411" lon="3.08618">
        <ele>567.32</ele>
        <time>2017-04-20T12:23:39Z</time>
      </trkpt>
      <trkpt lat="44.08412" lon="3.08615">
        <ele>566.83</ele>
        <time>2017-04-20T12:23:41Z</time>
      </trkpt>
      <trkpt lat="44.08419" lon="3.08599">
        <ele>564.43</ele>
        <time>2017-04-20T12:23:55Z</time>
      </trkpt>
      <trkpt lat="44.08427" lon="3.08582">
        <ele>562.51</ele>
        <time>2017-04-20T12:24:09Z</time>
      </trkpt>
      <trkpt lat="44.08435" lon="3.08569">
        <ele>560.11</ele>
        <time>2017-04-20T12:24:23Z</time>
      </trkpt>
      <trkpt lat="44.08445" lon="3.08558">
        <ele>558.18</ele>
        <time>2017-04-20T12:24:36Z</time>
      </trkpt>
      <trkpt lat="44.08454" lon="3.08545">
        <ele>555.3</ele>
        <time>2017-04-20T12:24:52Z</time>
      </trkpt>
      <trkpt lat="44.08461" lon="3.08537">
        <ele>552.41</ele>
        <time>2017-04-20T12:25:04Z</time>
      </trkpt>
      <trkpt lat="44.08473" lon="3.08527">
        <ele>550.97</ele>
        <time>2017-04-20T12:25:18Z</time>
      </trkpt>
      <trkpt lat="44.08481" lon="3.08519">
        <ele>547.61</ele>
        <time>2017-04-20T12:25:30Z</time>
      </trkpt>
      <trkpt lat="44.08483" lon="3.08517">
        <ele>547.61</ele>
        <time>2017-04-20T12:25:34Z</time>
      </trkpt>
      <trkpt lat="44.08494" lon="3.08507">
        <ele>544.72</ele>
        <time>2017-04-20T12:25:49Z</time>
      </trkpt>
      <trkpt lat="44.08501" lon="3.08501">
        <ele>543.28</ele>
        <time>2017-04-20T12:25:59Z</time>
      </trkpt>
      <trkpt lat="44.08511" lon="3.08496">
        <ele>540.88</ele>
        <time>2017-04-20T12:26:13Z</time>
      </trkpt>
      <trkpt lat="44.08519" lon="3.08491">
        <ele>535.11</ele>
        <time>2017-04-20T12:26:25Z</time>
      </trkpt>
      <trkpt lat="44.08519" lon="3.0849">
        <ele>540.88</ele>
        <time>2017-04-20T12:26:26Z</time>
      </trkpt>
      <trkpt lat="44.08522" lon="3.08487">
        <ele>537.51</ele>
        <time>2017-04-20T12:26:29Z</time>
      </trkpt>
      <trkpt lat="44.08534" lon="3.08479">
        <ele>535.11</ele>
        <time>2017-04-20T12:26:46Z</time>
      </trkpt>
      <trkpt lat="44.08545" lon="3.0847">
        <ele>533.19</ele>
        <time>2017-04-20T12:27:03Z</time>
      </trkpt>
      <trkpt lat="44.08553" lon="3.08461">
        <ele>530.79</ele>
        <time>2017-04-20T12:27:17Z</time>
      </trkpt>
      <trkpt lat="44.08559" lon="3.08457">
        <ele>528.38</ele>
        <time>2017-04-20T12:27:31Z</time>
      </trkpt>
      <trkpt lat="44.08567" lon="3.08448">
        <ele>525.5</ele>
        <time>2017-04-20T12:27:45Z</time>
      </trkpt>
      <trkpt lat="44.08576" lon="3.08442">
        <ele>523.09</ele>
        <time>2017-04-20T12:28:00Z</time>
      </trkpt>
      <trkpt lat="44.08581" lon="3.08436">
        <ele>521.65</ele>
        <time>2017-04-20T12:28:13Z</time>
      </trkpt>
      <trkpt lat="44.08588" lon="3.08428">
        <ele>519.25</ele>
        <time>2017-04-20T12:28:28Z</time>
      </trkpt>
      <trkpt lat="44.08595" lon="3.08421">
        <ele>516.85</ele>
        <time>2017-04-20T12:28:41Z</time>
      </trkpt>
      <trkpt lat="44.08601" lon="3.08417">
        <ele>514.92</ele>
        <time>2017-04-20T12:28:49Z</time>
      </trkpt>
      <trkpt lat="44.0861" lon="3.08406">
        <ele>513</ele>
        <time>2017-04-20T12:29:02Z</time>
      </trkpt>
      <trkpt lat="44.08619" lon="3.08411">
        <ele>510.6</ele>
        <time>2017-04-20T12:29:17Z</time>
      </trkpt>
      <trkpt lat="44.08624" lon="3.08426">
        <ele>507.71</ele>
        <time>2017-04-20T12:29:32Z</time>
      </trkpt>
      <trkpt lat="44.08626" lon="3.08426">
        <ele>507.23</ele>
        <time>2017-04-20T12:29:35Z</time>
      </trkpt>
      <trkpt lat="44.08636" lon="3.08428">
        <ele>504.83</ele>
        <time>2017-04-20T12:29:48Z</time>
      </trkpt>
      <trkpt lat="44.08652" lon="3.08432">
        <ele>502.43</ele>
        <time>2017-04-20T12:30:03Z</time>
      </trkpt>
      <trkpt lat="44.0866" lon="3.08441">
        <ele>499.54</ele>
        <time>2017-04-20T12:30:16Z</time>
      </trkpt>
      <trkpt lat="44.08665" lon="3.08447">
        <ele>498.1</ele>
        <time>2017-04-20T12:30:24Z</time>
      </trkpt>
      <trkpt lat="44.08669" lon="3.08452">
        <ele>494.26</ele>
        <time>2017-04-20T12:30:28Z</time>
      </trkpt>
      <trkpt lat="44.08669" lon="3.08454">
        <ele>502.91</ele>
        <time>2017-04-20T12:30:29Z</time>
      </trkpt>
      <trkpt lat="44.0867" lon="3.08455">
        <ele>497.62</ele>
        <time>2017-04-20T12:30:30Z</time>
      </trkpt>
      <trkpt lat="44.08675" lon="3.08461">
        <ele>497.14</ele>
        <time>2017-04-20T12:30:40Z</time>
      </trkpt>
      <trkpt lat="44.08676" lon="3.08462">
        <ele>496.66</ele>
        <time>2017-04-20T12:30:41Z</time>
      </trkpt>
      <trkpt lat="44.08677" lon="3.08463">
        <ele>496.66</ele>
        <time>2017-04-20T12:30:42Z</time>
      </trkpt>
      <trkpt lat="44.08683" lon="3.08474">
        <ele>495.22</ele>
        <time>2017-04-20T12:30:51Z</time>
      </trkpt>
      <trkpt lat="44.08684" lon="3.08475">
        <ele>495.22</ele>
        <time>2017-04-20T12:30:52Z</time>
      </trkpt>
      <trkpt lat="44.08687" lon="3.0848">
        <ele>496.66</ele>
        <time>2017-04-20T12:30:59Z</time>
      </trkpt>
      <trkpt lat="44.08688" lon="3.08483">
        <ele>495.22</ele>
        <time>2017-04-20T12:31:01Z</time>
      </trkpt>
      <trkpt lat="44.08694" lon="3.08485">
        <ele>494.74</ele>
        <time>2017-04-20T12:31:14Z</time>
      </trkpt>
      <trkpt lat="44.087" lon="3.08478">
        <ele>494.26</ele>
        <time>2017-04-20T12:31:29Z</time>
      </trkpt>
      <trkpt lat="44.08708" lon="3.08473">
        <ele>493.29</ele>
        <time>2017-04-20T12:31:41Z</time>
      </trkpt>
      <trkpt lat="44.08714" lon="3.08462">
        <ele>491.85</ele>
        <time>2017-04-20T12:31:52Z</time>
      </trkpt>
      <trkpt lat="44.08715" lon="3.08458">
        <ele>493.29</ele>
        <time>2017-04-20T12:31:56Z</time>
      </trkpt>
      <trkpt lat="44.08716" lon="3.08453">
        <ele>492.33</ele>
        <time>2017-04-20T12:32:08Z</time>
      </trkpt>
      <trkpt lat="44.0872" lon="3.08443">
        <ele>492.33</ele>
        <time>2017-04-20T12:32:21Z</time>
      </trkpt>
      <trkpt lat="44.08723" lon="3.08418">
        <ele>490.41</ele>
        <time>2017-04-20T12:32:38Z</time>
      </trkpt>
      <trkpt lat="44.0872" lon="3.08399">
        <ele>489.45</ele>
        <time>2017-04-20T12:32:52Z</time>
      </trkpt>
      <trkpt lat="44.08718" lon="3.08399">
        <ele>489.45</ele>
        <time>2017-04-20T12:33:04Z</time>
      </trkpt>
      <trkpt lat="44.08718" lon="3.08402">
        <ele>489.45</ele>
        <time>2017-04-20T12:33:19Z</time>
      </trkpt>
      <trkpt lat="44.08722" lon="3.08417">
        <ele>489.45</ele>
        <time>2017-04-20T12:33:35Z</time>
      </trkpt>
      <trkpt lat="44.08722" lon="3.08423">
        <ele>489.45</ele>
        <time>2017-04-20T12:33:39Z</time>
      </trkpt>
      <trkpt lat="44.08722" lon="3.08426">
        <ele>490.89</ele>
        <time>2017-04-20T12:33:41Z</time>
      </trkpt>
      <trkpt lat="44.08719" lon="3.08447">
        <ele>491.37</ele>
        <time>2017-04-20T12:33:57Z</time>
      </trkpt>
      <trkpt lat="44.08717" lon="3.08451">
        <ele>491.37</ele>
        <time>2017-04-20T12:34:17Z</time>
      </trkpt>
      <trkpt lat="44.0871" lon="3.0847">
        <ele>492.81</ele>
        <time>2017-04-20T12:34:33Z</time>
      </trkpt>
      <trkpt lat="44.08703" lon="3.08482">
        <ele>493.29</ele>
        <time>2017-04-20T12:34:48Z</time>
      </trkpt>
      <trkpt lat="44.08693" lon="3.08491">
        <ele>494.26</ele>
        <time>2017-04-20T12:35:04Z</time>
      </trkpt>
      <trkpt lat="44.08692" lon="3.08494">
        <ele>494.74</ele>
        <time>2017-04-20T12:35:18Z</time>
      </trkpt>
      <trkpt lat="44.08696" lon="3.08489">
        <ele>494.74</ele>
        <time>2017-04-20T12:35:24Z</time>
      </trkpt>
      <trkpt lat="44.08702" lon="3.08482">
        <ele>493.29</ele>
        <time>2017-04-20T12:35:31Z</time>
      </trkpt>
      <trkpt lat="44.08712" lon="3.08467">
        <ele>492.81</ele>
        <time>2017-04-20T12:35:44Z</time>
      </trkpt>
      <trkpt lat="44.08718" lon="3.08456">
        <ele>491.37</ele>
        <time>2017-04-20T12:35:58Z</time>
      </trkpt>
      <trkpt lat="44.08718" lon="3.08457">
        <ele>491.37</ele>
        <time>2017-04-20T12:36:20Z</time>
      </trkpt>
      <trkpt lat="44.08719" lon="3.08451">
        <ele>491.37</ele>
        <time>2017-04-20T12:36:24Z</time>
      </trkpt>
      <trkpt lat="44.08723" lon="3.08423">
        <ele>489.93</ele>
        <time>2017-04-20T12:36:41Z</time>
      </trkpt>
      <trkpt lat="44.08716" lon="3.0839">
        <ele>488.01</ele>
        <time>2017-04-20T12:37:00Z</time>
      </trkpt>
      <trkpt lat="44.08709" lon="3.0838">
        <ele>487.05</ele>
        <time>2017-04-20T12:37:14Z</time>
      </trkpt>
      <trkpt lat="44.08692" lon="3.08358">
        <ele>485.12</ele>
        <time>2017-04-20T12:37:29Z</time>
      </trkpt>
      <trkpt lat="44.0868" lon="3.08334">
        <ele>483.68</ele>
        <time>2017-04-20T12:37:44Z</time>
      </trkpt>
      <trkpt lat="44.08673" lon="3.08311">
        <ele>487.53</ele>
        <time>2017-04-20T12:37:56Z</time>
      </trkpt>
      <trkpt lat="44.08673" lon="3.0831">
        <ele>487.53</ele>
        <time>2017-04-20T12:37:57Z</time>
      </trkpt>
      <trkpt lat="44.08672" lon="3.08309">
        <ele>483.68</ele>
        <time>2017-04-20T12:37:58Z</time>
      </trkpt>
      <trkpt lat="44.08671" lon="3.08306">
        <ele>483.68</ele>
        <time>2017-04-20T12:37:59Z</time>
      </trkpt>
      <trkpt lat="44.08668" lon="3.08272">
        <ele>486.08</ele>
        <time>2017-04-20T12:38:17Z</time>
      </trkpt>
      <trkpt lat="44.08665" lon="3.08259">
        <ele>488.49</ele>
        <time>2017-04-20T12:38:24Z</time>
      </trkpt>
      <trkpt lat="44.08663" lon="3.08255">
        <ele>487.53</ele>
        <time>2017-04-20T12:38:27Z</time>
      </trkpt>
      <trkpt lat="44.08662" lon="3.08239">
        <ele>489.45</ele>
        <time>2017-04-20T12:38:41Z</time>
      </trkpt>
      <trkpt lat="44.08661" lon="3.08234">
        <ele>489.45</ele>
        <time>2017-04-20T12:39:15Z</time>
      </trkpt>
      <trkpt lat="44.08653" lon="3.08219">
        <ele>490.89</ele>
        <time>2017-04-20T12:39:27Z</time>
      </trkpt>
      <trkpt lat="44.08652" lon="3.08217">
        <ele>491.37</ele>
        <time>2017-04-20T12:39:28Z</time>
      </trkpt>
      <trkpt lat="44.08645" lon="3.0819">
        <ele>493.29</ele>
        <time>2017-04-20T12:39:45Z</time>
      </trkpt>
      <trkpt lat="44.08643" lon="3.08175">
        <ele>493.77</ele>
        <time>2017-04-20T12:39:52Z</time>
      </trkpt>
      <trkpt lat="44.08637" lon="3.08149">
        <ele>493.77</ele>
        <time>2017-04-20T12:40:07Z</time>
      </trkpt>
      <trkpt lat="44.08632" lon="3.08122">
        <ele>494.26</ele>
        <time>2017-04-20T12:40:23Z</time>
      </trkpt>
      <trkpt lat="44.08634" lon="3.08097">
        <ele>495.22</ele>
        <time>2017-04-20T12:40:37Z</time>
      </trkpt>
      <trkpt lat="44.08634" lon="3.08088">
        <ele>495.22</ele>
        <time>2017-04-20T12:40:42Z</time>
      </trkpt>
      <trkpt lat="44.08635" lon="3.08086">
        <ele>495.22</ele>
        <time>2017-04-20T12:40:43Z</time>
      </trkpt>
      <trkpt lat="44.08642" lon="3.08054">
        <ele>496.18</ele>
        <time>2017-04-20T12:40:58Z</time>
      </trkpt>
      <trkpt lat="44.08643" lon="3.08027">
        <ele>496.66</ele>
        <time>2017-04-20T12:41:13Z</time>
      </trkpt>
      <trkpt lat="44.08644" lon="3.08024">
        <ele>496.66</ele>
        <time>2017-04-20T12:41:15Z</time>
      </trkpt>
      <trkpt lat="44.08645" lon="3.08014">
        <ele>496.66</ele>
        <time>2017-04-20T12:41:30Z</time>
      </trkpt>
      <trkpt lat="44.08645" lon="3.0801">
        <ele>496.66</ele>
        <time>2017-04-20T12:41:46Z</time>
      </trkpt>
      <trkpt lat="44.08648" lon="3.08004">
        <ele>496.66</ele>
        <time>2017-04-20T12:42:03Z</time>
      </trkpt>
      <trkpt lat="44.08646" lon="3.07995">
        <ele>496.66</ele>
        <time>2017-04-20T12:42:15Z</time>
      </trkpt>
      <trkpt lat="44.08647" lon="3.07994">
        <ele>496.66</ele>
        <time>2017-04-20T12:42:16Z</time>
      </trkpt>
      <trkpt lat="44.08647" lon="3.07991">
        <ele>496.66</ele>
        <time>2017-04-20T12:42:18Z</time>
      </trkpt>
      <trkpt lat="44.08654" lon="3.07973">
        <ele>496.66</ele>
        <time>2017-04-20T12:42:34Z</time>
      </trkpt>
      <trkpt lat="44.08656" lon="3.07974">
        <ele>496.66</ele>
        <time>2017-04-20T12:42:52Z</time>
      </trkpt>
      <trkpt lat="44.08655" lon="3.0796">
        <ele>497.14</ele>
        <time>2017-04-20T12:43:10Z</time>
      </trkpt>
      <trkpt lat="44.08655" lon="3.07939">
        <ele>497.62</ele>
        <time>2017-04-20T12:43:26Z</time>
      </trkpt>
      <trkpt lat="44.08656" lon="3.07918">
        <ele>498.1</ele>
        <time>2017-04-20T12:43:41Z</time>
      </trkpt>
      <trkpt lat="44.08656" lon="3.07897">
        <ele>499.54</ele>
        <time>2017-04-20T12:43:56Z</time>
      </trkpt>
      <trkpt lat="44.08655" lon="3.07878">
        <ele>500.02</ele>
        <time>2017-04-20T12:44:10Z</time>
      </trkpt>
      <trkpt lat="44.08653" lon="3.0786">
        <ele>501.95</ele>
        <time>2017-04-20T12:44:25Z</time>
      </trkpt>
      <trkpt lat="44.08652" lon="3.07857">
        <ele>502.43</ele>
        <time>2017-04-20T12:44:36Z</time>
      </trkpt>
      <trkpt lat="44.08645" lon="3.07845">
        <ele>502.43</ele>
        <time>2017-04-20T12:44:46Z</time>
      </trkpt>
      <trkpt lat="44.08632" lon="3.0783">
        <ele>501.46</ele>
        <time>2017-04-20T12:45:00Z</time>
      </trkpt>
      <trkpt lat="44.0863" lon="3.07828">
        <ele>502.43</ele>
        <time>2017-04-20T12:45:03Z</time>
      </trkpt>
      <trkpt lat="44.0862" lon="3.07816">
        <ele>502.43</ele>
        <time>2017-04-20T12:45:16Z</time>
      </trkpt>
      <trkpt lat="44.08617" lon="3.07809">
        <ele>502.43</ele>
        <time>2017-04-20T12:45:31Z</time>
      </trkpt>
      <trkpt lat="44.08612" lon="3.078">
        <ele>502.43</ele>
        <time>2017-04-20T12:45:43Z</time>
      </trkpt>
      <trkpt lat="44.08609" lon="3.07796">
        <ele>502.43</ele>
        <time>2017-04-20T12:46:00Z</time>
      </trkpt>
      <trkpt lat="44.08605" lon="3.07792">
        <ele>501.95</ele>
        <time>2017-04-20T12:46:19Z</time>
      </trkpt>
      <trkpt lat="44.08595" lon="3.07775">
        <ele>504.35</ele>
        <time>2017-04-20T12:46:33Z</time>
      </trkpt>
      <trkpt lat="44.08585" lon="3.07757">
        <ele>506.27</ele>
        <time>2017-04-20T12:46:47Z</time>
      </trkpt>
      <trkpt lat="44.08584" lon="3.07749">
        <ele>507.23</ele>
        <time>2017-04-20T12:46:53Z</time>
      </trkpt>
      <trkpt lat="44.08584" lon="3.07747">
        <ele>507.23</ele>
        <time>2017-04-20T12:46:54Z</time>
      </trkpt>
      <trkpt lat="44.08584" lon="3.07745">
        <ele>507.23</ele>
        <time>2017-04-20T12:46:55Z</time>
      </trkpt>
      <trkpt lat="44.08584" lon="3.07743">
        <ele>507.23</ele>
        <time>2017-04-20T12:46:56Z</time>
      </trkpt>
      <trkpt lat="44.08584" lon="3.07741">
        <ele>507.23</ele>
        <time>2017-04-20T12:46:57Z</time>
      </trkpt>
      <trkpt lat="44.08587" lon="3.07726">
        <ele>507.23</ele>
        <time>2017-04-20T12:47:10Z</time>
      </trkpt>
      <trkpt lat="44.086" lon="3.07697">
        <ele>505.79</ele>
        <time>2017-04-20T12:47:27Z</time>
      </trkpt>
      <trkpt lat="44.08608" lon="3.07673">
        <ele>504.35</ele>
        <time>2017-04-20T12:47:43Z</time>
      </trkpt>
      <trkpt lat="44.08611" lon="3.0765">
        <ele>504.35</ele>
        <time>2017-04-20T12:47:56Z</time>
      </trkpt>
      <trkpt lat="44.08613" lon="3.07631">
        <ele>505.31</ele>
        <time>2017-04-20T12:48:08Z</time>
      </trkpt>
      <trkpt lat="44.08614" lon="3.07628">
        <ele>505.31</ele>
        <time>2017-04-20T12:48:10Z</time>
      </trkpt>
      <trkpt lat="44.08607" lon="3.07607">
        <ele>508.19</ele>
        <time>2017-04-20T12:48:26Z</time>
      </trkpt>
      <trkpt lat="44.08605" lon="3.07596">
        <ele>508.67</ele>
        <time>2017-04-20T12:48:39Z</time>
      </trkpt>
      <trkpt lat="44.08603" lon="3.07588">
        <ele>508.67</ele>
        <time>2017-04-20T12:48:47Z</time>
      </trkpt>
      <trkpt lat="44.08599" lon="3.0757">
        <ele>510.12</ele>
        <time>2017-04-20T12:49:01Z</time>
      </trkpt>
      <trkpt lat="44.08598" lon="3.07569">
        <ele>510.12</ele>
        <time>2017-04-20T12:49:02Z</time>
      </trkpt>
      <trkpt lat="44.0859" lon="3.07552">
        <ele>512.04</ele>
        <time>2017-04-20T12:49:17Z</time>
      </trkpt>
      <trkpt lat="44.08587" lon="3.07545">
        <ele>513.48</ele>
        <time>2017-04-20T12:49:23Z</time>
      </trkpt>
      <trkpt lat="44.08578" lon="3.07531">
        <ele>514.92</ele>
        <time>2017-04-20T12:49:38Z</time>
      </trkpt>
      <trkpt lat="44.08571" lon="3.07521">
        <ele>516.37</ele>
        <time>2017-04-20T12:49:51Z</time>
      </trkpt>
      <trkpt lat="44.08565" lon="3.07507">
        <ele>517.81</ele>
        <time>2017-04-20T12:50:04Z</time>
      </trkpt>
      <trkpt lat="44.0856" lon="3.07492">
        <ele>519.73</ele>
        <time>2017-04-20T12:50:17Z</time>
      </trkpt>
      <trkpt lat="44.08555" lon="3.07475">
        <ele>519.25</ele>
        <time>2017-04-20T12:50:33Z</time>
      </trkpt>
      <trkpt lat="44.08555" lon="3.0746">
        <ele>518.29</ele>
        <time>2017-04-20T12:50:48Z</time>
      </trkpt>
      <trkpt lat="44.08553" lon="3.07448">
        <ele>518.29</ele>
        <time>2017-04-20T12:51:03Z</time>
      </trkpt>
      <trkpt lat="44.08552" lon="3.07438">
        <ele>518.29</ele>
        <time>2017-04-20T12:51:12Z</time>
      </trkpt>
      <trkpt lat="44.08552" lon="3.07436">
        <ele>518.29</ele>
        <time>2017-04-20T12:51:13Z</time>
      </trkpt>
      <trkpt lat="44.0855" lon="3.0741">
        <ele>514.44</ele>
        <time>2017-04-20T12:51:30Z</time>
      </trkpt>
      <trkpt lat="44.0855" lon="3.07408">
        <ele>517.81</ele>
        <time>2017-04-20T12:51:31Z</time>
      </trkpt>
      <trkpt lat="44.08551" lon="3.07406">
        <ele>513.48</ele>
        <time>2017-04-20T12:51:33Z</time>
      </trkpt>
      <trkpt lat="44.08551" lon="3.07405">
        <ele>518.29</ele>
        <time>2017-04-20T12:51:34Z</time>
      </trkpt>
      <trkpt lat="44.08551" lon="3.07403">
        <ele>517.33</ele>
        <time>2017-04-20T12:51:35Z</time>
      </trkpt>
      <trkpt lat="44.08551" lon="3.07401">
        <ele>515.88</ele>
        <time>2017-04-20T12:51:36Z</time>
      </trkpt>
      <trkpt lat="44.08551" lon="3.07399">
        <ele>515.88</ele>
        <time>2017-04-20T12:51:37Z</time>
      </trkpt>
      <trkpt lat="44.08551" lon="3.07397">
        <ele>515.88</ele>
        <time>2017-04-20T12:51:38Z</time>
      </trkpt>
      <trkpt lat="44.0855" lon="3.07396">
        <ele>515.88</ele>
        <time>2017-04-20T12:51:39Z</time>
      </trkpt>
      <trkpt lat="44.0855" lon="3.07394">
        <ele>515.88</ele>
        <time>2017-04-20T12:51:40Z</time>
      </trkpt>
      <trkpt lat="44.0855" lon="3.07392">
        <ele>515.88</ele>
        <time>2017-04-20T12:51:41Z</time>
      </trkpt>
      <trkpt lat="44.08548" lon="3.07363">
        <ele>515.4</ele>
        <time>2017-04-20T12:51:58Z</time>
      </trkpt>
      <trkpt lat="44.08545" lon="3.07344">
        <ele>514.92</ele>
        <time>2017-04-20T12:52:13Z</time>
      </trkpt>
      <trkpt lat="44.08544" lon="3.07334">
        <ele>514.92</ele>
        <time>2017-04-20T12:52:30Z</time>
      </trkpt>
      <trkpt lat="44.08544" lon="3.07306">
        <ele>513.48</ele>
        <time>2017-04-20T12:52:47Z</time>
      </trkpt>
      <trkpt lat="44.08544" lon="3.07292">
        <ele>512.04</ele>
        <time>2017-04-20T12:52:55Z</time>
      </trkpt>
      <trkpt lat="44.08544" lon="3.0729">
        <ele>511.56</ele>
        <time>2017-04-20T12:52:56Z</time>
      </trkpt>
      <trkpt lat="44.08543" lon="3.0729">
        <ele>513.48</ele>
        <time>2017-04-20T12:52:57Z</time>
      </trkpt>
      <trkpt lat="44.08541" lon="3.07289">
        <ele>516.37</ele>
        <time>2017-04-20T12:52:58Z</time>
      </trkpt>
      <trkpt lat="44.08541" lon="3.07288">
        <ele>513.48</ele>
        <time>2017-04-20T12:52:59Z</time>
      </trkpt>
      <trkpt lat="44.08542" lon="3.07287">
        <ele>513.48</ele>
        <time>2017-04-20T12:53:00Z</time>
      </trkpt>
      <trkpt lat="44.08539" lon="3.07271">
        <ele>512.04</ele>
        <time>2017-04-20T12:53:12Z</time>
      </trkpt>
      <trkpt lat="44.08538" lon="3.07264">
        <ele>511.08</ele>
        <time>2017-04-20T12:53:17Z</time>
      </trkpt>
      <trkpt lat="44.08535" lon="3.07242">
        <ele>509.64</ele>
        <time>2017-04-20T12:53:32Z</time>
      </trkpt>
      <trkpt lat="44.0853" lon="3.07216">
        <ele>507.71</ele>
        <time>2017-04-20T12:53:49Z</time>
      </trkpt>
      <trkpt lat="44.08526" lon="3.07194">
        <ele>505.31</ele>
        <time>2017-04-20T12:54:04Z</time>
      </trkpt>
      <trkpt lat="44.08519" lon="3.07176">
        <ele>504.35</ele>
        <time>2017-04-20T12:54:16Z</time>
      </trkpt>
      <trkpt lat="44.08519" lon="3.07175">
        <ele>503.87</ele>
        <time>2017-04-20T12:54:17Z</time>
      </trkpt>
      <trkpt lat="44.08519" lon="3.07173">
        <ele>503.87</ele>
        <time>2017-04-20T12:54:18Z</time>
      </trkpt>
      <trkpt lat="44.08513" lon="3.07148">
        <ele>501.46</ele>
        <time>2017-04-20T12:54:33Z</time>
      </trkpt>
      <trkpt lat="44.08508" lon="3.07129">
        <ele>500.5</ele>
        <time>2017-04-20T12:54:46Z</time>
      </trkpt>
      <trkpt lat="44.08499" lon="3.07107">
        <ele>499.06</ele>
        <time>2017-04-20T12:55:01Z</time>
      </trkpt>
      <trkpt lat="44.08494" lon="3.07094">
        <ele>497.62</ele>
        <time>2017-04-20T12:55:14Z</time>
      </trkpt>
      <trkpt lat="44.08488" lon="3.07071">
        <ele>496.66</ele>
        <time>2017-04-20T12:55:30Z</time>
      </trkpt>
      <trkpt lat="44.08484" lon="3.07052">
        <ele>494.26</ele>
        <time>2017-04-20T12:55:44Z</time>
      </trkpt>
      <trkpt lat="44.08478" lon="3.07038">
        <ele>492.81</ele>
        <time>2017-04-20T12:55:55Z</time>
      </trkpt>
      <trkpt lat="44.08476" lon="3.07034">
        <ele>491.85</ele>
        <time>2017-04-20T12:55:58Z</time>
      </trkpt>
      <trkpt lat="44.08467" lon="3.07018">
        <ele>489.93</ele>
        <time>2017-04-20T12:56:11Z</time>
      </trkpt>
      <trkpt lat="44.08457" lon="3.07005">
        <ele>488.49</ele>
        <time>2017-04-20T12:56:23Z</time>
      </trkpt>
      <trkpt lat="44.0845" lon="3.06993">
        <ele>487.05</ele>
        <time>2017-04-20T12:56:34Z</time>
      </trkpt>
      <trkpt lat="44.08447" lon="3.06989">
        <ele>485.6</ele>
        <time>2017-04-20T12:56:39Z</time>
      </trkpt>
      <trkpt lat="44.0844" lon="3.06975">
        <ele>482.24</ele>
        <time>2017-04-20T12:56:51Z</time>
      </trkpt>
      <trkpt lat="44.08439" lon="3.06971">
        <ele>484.64</ele>
        <time>2017-04-20T12:56:54Z</time>
      </trkpt>
      <trkpt lat="44.08438" lon="3.06966">
        <ele>482.72</ele>
        <time>2017-04-20T12:56:57Z</time>
      </trkpt>
      <trkpt lat="44.08436" lon="3.06947">
        <ele>480.32</ele>
        <time>2017-04-20T12:57:09Z</time>
      </trkpt>
      <trkpt lat="44.08436" lon="3.06944">
        <ele>484.16</ele>
        <time>2017-04-20T12:57:11Z</time>
      </trkpt>
      <trkpt lat="44.08435" lon="3.06943">
        <ele>480.32</ele>
        <time>2017-04-20T12:57:12Z</time>
      </trkpt>
      <trkpt lat="44.08436" lon="3.06937">
        <ele>479.84</ele>
        <time>2017-04-20T12:57:16Z</time>
      </trkpt>
      <trkpt lat="44.08438" lon="3.06917">
        <ele>477.43</ele>
        <time>2017-04-20T12:57:30Z</time>
      </trkpt>
      <trkpt lat="44.08439" lon="3.06899">
        <ele>475.99</ele>
        <time>2017-04-20T12:57:43Z</time>
      </trkpt>
      <trkpt lat="44.08436" lon="3.06878">
        <ele>473.59</ele>
        <time>2017-04-20T12:57:59Z</time>
      </trkpt>
      <trkpt lat="44.08435" lon="3.06859">
        <ele>472.14</ele>
        <time>2017-04-20T12:58:12Z</time>
      </trkpt>
      <trkpt lat="44.08434" lon="3.06847">
        <ele>470.7</ele>
        <time>2017-04-20T12:58:21Z</time>
      </trkpt>
      <trkpt lat="44.08434" lon="3.06845">
        <ele>470.22</ele>
        <time>2017-04-20T12:58:22Z</time>
      </trkpt>
      <trkpt lat="44.08434" lon="3.06844">
        <ele>470.22</ele>
        <time>2017-04-20T12:58:23Z</time>
      </trkpt>
      <trkpt lat="44.08434" lon="3.06842">
        <ele>469.74</ele>
        <time>2017-04-20T12:58:24Z</time>
      </trkpt>
      <trkpt lat="44.08434" lon="3.06841">
        <ele>469.74</ele>
        <time>2017-04-20T12:58:25Z</time>
      </trkpt>
      <trkpt lat="44.08434" lon="3.06839">
        <ele>469.26</ele>
        <time>2017-04-20T12:58:26Z</time>
      </trkpt>
      <trkpt lat="44.08436" lon="3.06817">
        <ele>466.86</ele>
        <time>2017-04-20T12:58:40Z</time>
      </trkpt>
      <trkpt lat="44.08446" lon="3.06793">
        <ele>464.45</ele>
        <time>2017-04-20T12:58:56Z</time>
      </trkpt>
      <trkpt lat="44.08456" lon="3.06769">
        <ele>461.57</ele>
        <time>2017-04-20T12:59:13Z</time>
      </trkpt>
      <trkpt lat="44.08459" lon="3.06749">
        <ele>459.65</ele>
        <time>2017-04-20T12:59:26Z</time>
      </trkpt>
      <trkpt lat="44.08462" lon="3.06725">
        <ele>456.76</ele>
        <time>2017-04-20T12:59:41Z</time>
      </trkpt>
      <trkpt lat="44.08462" lon="3.0671">
        <ele>453.4</ele>
        <time>2017-04-20T12:59:49Z</time>
      </trkpt>
      <trkpt lat="44.08462" lon="3.06708">
        <ele>458.21</ele>
        <time>2017-04-20T12:59:50Z</time>
      </trkpt>
      <trkpt lat="44.08461" lon="3.06706">
        <ele>453.88</ele>
        <time>2017-04-20T12:59:51Z</time>
      </trkpt>
      <trkpt lat="44.0846" lon="3.06705">
        <ele>456.28</ele>
        <time>2017-04-20T12:59:52Z</time>
      </trkpt>
      <trkpt lat="44.08461" lon="3.06701">
        <ele>453.88</ele>
        <time>2017-04-20T12:59:55Z</time>
      </trkpt>
      <trkpt lat="44.0846" lon="3.06684">
        <ele>452.44</ele>
        <time>2017-04-20T13:00:08Z</time>
      </trkpt>
      <trkpt lat="44.0846" lon="3.06669">
        <ele>451.48</ele>
        <time>2017-04-20T13:00:17Z</time>
      </trkpt>
      <trkpt lat="44.0846" lon="3.06668">
        <ele>451.48</ele>
        <time>2017-04-20T13:00:18Z</time>
      </trkpt>
      <trkpt lat="44.0846" lon="3.06647">
        <ele>449.07</ele>
        <time>2017-04-20T13:00:32Z</time>
      </trkpt>
      <trkpt lat="44.08461" lon="3.06628">
        <ele>446.19</ele>
        <time>2017-04-20T13:00:46Z</time>
      </trkpt>
      <trkpt lat="44.08463" lon="3.06619">
        <ele>445.71</ele>
        <time>2017-04-20T13:00:55Z</time>
      </trkpt>
      <trkpt lat="44.08463" lon="3.06617">
        <ele>444.27</ele>
        <time>2017-04-20T13:00:57Z</time>
      </trkpt>
      <trkpt lat="44.08466" lon="3.06598">
        <ele>441.38</ele>
        <time>2017-04-20T13:01:12Z</time>
      </trkpt>
      <trkpt lat="44.08473" lon="3.06579">
        <ele>438.02</ele>
        <time>2017-04-20T13:01:27Z</time>
      </trkpt>
      <trkpt lat="44.08481" lon="3.0656">
        <ele>435.61</ele>
        <time>2017-04-20T13:01:41Z</time>
      </trkpt>
      <trkpt lat="44.0849" lon="3.06543">
        <ele>433.69</ele>
        <time>2017-04-20T13:01:54Z</time>
      </trkpt>
      <trkpt lat="44.08493" lon="3.06538">
        <ele>432.73</ele>
        <time>2017-04-20T13:01:59Z</time>
      </trkpt>
      <trkpt lat="44.08494" lon="3.06537">
        <ele>432.73</ele>
        <time>2017-04-20T13:02:00Z</time>
      </trkpt>
      <trkpt lat="44.08504" lon="3.06518">
        <ele>430.33</ele>
        <time>2017-04-20T13:02:15Z</time>
      </trkpt>
      <trkpt lat="44.08512" lon="3.06499">
        <ele>427.92</ele>
        <time>2017-04-20T13:02:30Z</time>
      </trkpt>
      <trkpt lat="44.0852" lon="3.06474">
        <ele>427.44</ele>
        <time>2017-04-20T13:02:49Z</time>
      </trkpt>
      <trkpt lat="44.08521" lon="3.06471">
        <ele>427.44</ele>
        <time>2017-04-20T13:03:03Z</time>
      </trkpt>
      <trkpt lat="44.08521" lon="3.06473">
        <ele>426.48</ele>
        <time>2017-04-20T13:03:16Z</time>
      </trkpt>
      <trkpt lat="44.08521" lon="3.06473">
        <ele>427.44</ele>
        <time>2017-04-20T13:03:28Z</time>
      </trkpt>
      <trkpt lat="44.08522" lon="3.06473">
        <ele>423.6</ele>
        <time>2017-04-20T13:03:37Z</time>
      </trkpt>
      <trkpt lat="44.08522" lon="3.06474">
        <ele>432.73</ele>
        <time>2017-04-20T13:03:39Z</time>
      </trkpt>
      <trkpt lat="44.08521" lon="3.06476">
        <ele>427.44</ele>
        <time>2017-04-20T13:03:40Z</time>
      </trkpt>
      <trkpt lat="44.08523" lon="3.06472">
        <ele>427.44</ele>
        <time>2017-04-20T13:04:01Z</time>
      </trkpt>
      <trkpt lat="44.0852" lon="3.06472">
        <ele>427.44</ele>
        <time>2017-04-20T13:04:22Z</time>
      </trkpt>
      <trkpt lat="44.08518" lon="3.06469">
        <ele>426</ele>
        <time>2017-04-20T13:04:47Z</time>
      </trkpt>
      <trkpt lat="44.08518" lon="3.06467">
        <ele>425.52</ele>
        <time>2017-04-20T13:04:50Z</time>
      </trkpt>
      <trkpt lat="44.08518" lon="3.06466">
        <ele>425.52</ele>
        <time>2017-04-20T13:04:51Z</time>
      </trkpt>
      <trkpt lat="44.08519" lon="3.06453">
        <ele>422.64</ele>
        <time>2017-04-20T13:05:00Z</time>
      </trkpt>
      <trkpt lat="44.08522" lon="3.06435">
        <ele>419.27</ele>
        <time>2017-04-20T13:05:13Z</time>
      </trkpt>
      <trkpt lat="44.08523" lon="3.0643">
        <ele>418.79</ele>
        <time>2017-04-20T13:05:16Z</time>
      </trkpt>
      <trkpt lat="44.08523" lon="3.06429">
        <ele>418.31</ele>
        <time>2017-04-20T13:05:17Z</time>
      </trkpt>
      <trkpt lat="44.08528" lon="3.06411">
        <ele>414.95</ele>
        <time>2017-04-20T13:05:31Z</time>
      </trkpt>
      <trkpt lat="44.08532" lon="3.06396">
        <ele>412.06</ele>
        <time>2017-04-20T13:05:44Z</time>
      </trkpt>
      <trkpt lat="44.08536" lon="3.06381">
        <ele>409.18</ele>
        <time>2017-04-20T13:05:56Z</time>
      </trkpt>
      <trkpt lat="44.08542" lon="3.06365">
        <ele>405.81</ele>
        <time>2017-04-20T13:06:09Z</time>
      </trkpt>
      <trkpt lat="44.08546" lon="3.06348">
        <ele>404.37</ele>
        <time>2017-04-20T13:06:20Z</time>
      </trkpt>
      <trkpt lat="44.08545" lon="3.06344">
        <ele>403.41</ele>
        <time>2017-04-20T13:06:23Z</time>
      </trkpt>
      <trkpt lat="44.08534" lon="3.06333">
        <ele>401.49</ele>
        <time>2017-04-20T13:06:38Z</time>
      </trkpt>
      <trkpt lat="44.08536" lon="3.06326">
        <ele>399.57</ele>
        <time>2017-04-20T13:06:51Z</time>
      </trkpt>
      <trkpt lat="44.08543" lon="3.06315">
        <ele>397.64</ele>
        <time>2017-04-20T13:07:02Z</time>
      </trkpt>
      <trkpt lat="44.0855" lon="3.06301">
        <ele>395.72</ele>
        <time>2017-04-20T13:07:14Z</time>
      </trkpt>
      <trkpt lat="44.08545" lon="3.06292">
        <ele>394.76</ele>
        <time>2017-04-20T13:07:26Z</time>
      </trkpt>
      <trkpt lat="44.08543" lon="3.06289">
        <ele>394.76</ele>
        <time>2017-04-20T13:07:29Z</time>
      </trkpt>
      <trkpt lat="44.08543" lon="3.06277">
        <ele>393.8</ele>
        <time>2017-04-20T13:07:45Z</time>
      </trkpt>
      <trkpt lat="44.08537" lon="3.06272">
        <ele>390.91</ele>
        <time>2017-04-20T13:08:00Z</time>
      </trkpt>
      <trkpt lat="44.08529" lon="3.06275">
        <ele>389.47</ele>
        <time>2017-04-20T13:08:12Z</time>
      </trkpt>
      <trkpt lat="44.08528" lon="3.06275">
        <ele>388.99</ele>
        <time>2017-04-20T13:08:13Z</time>
      </trkpt>
      <trkpt lat="44.08513" lon="3.06271">
        <ele>387.55</ele>
        <time>2017-04-20T13:08:29Z</time>
      </trkpt>
      <trkpt lat="44.08499" lon="3.06262">
        <ele>384.66</ele>
        <time>2017-04-20T13:08:46Z</time>
      </trkpt>
      <trkpt lat="44.08498" lon="3.0626">
        <ele>384.66</ele>
        <time>2017-04-20T13:08:47Z</time>
      </trkpt>
      <trkpt lat="44.08497" lon="3.06259">
        <ele>384.66</ele>
        <time>2017-04-20T13:08:48Z</time>
      </trkpt>
      <trkpt lat="44.08497" lon="3.06257">
        <ele>384.18</ele>
        <time>2017-04-20T13:08:49Z</time>
      </trkpt>
      <trkpt lat="44.0849" lon="3.06233">
        <ele>382.26</ele>
        <time>2017-04-20T13:09:04Z</time>
      </trkpt>
      <trkpt lat="44.08489" lon="3.0623">
        <ele>382.26</ele>
        <time>2017-04-20T13:09:06Z</time>
      </trkpt>
      <trkpt lat="44.08493" lon="3.06223">
        <ele>381.78</ele>
        <time>2017-04-20T13:09:11Z</time>
      </trkpt>
      <trkpt lat="44.08501" lon="3.06211">
        <ele>380.82</ele>
        <time>2017-04-20T13:09:21Z</time>
      </trkpt>
      <trkpt lat="44.08503" lon="3.06207">
        <ele>380.82</ele>
        <time>2017-04-20T13:09:24Z</time>
      </trkpt>
      <trkpt lat="44.08506" lon="3.06203">
        <ele>380.82</ele>
        <time>2017-04-20T13:09:29Z</time>
      </trkpt>
      <trkpt lat="44.08514" lon="3.06184">
        <ele>379.86</ele>
        <time>2017-04-20T13:09:43Z</time>
      </trkpt>
      <trkpt lat="44.08515" lon="3.06182">
        <ele>379.86</ele>
        <time>2017-04-20T13:09:44Z</time>
      </trkpt>
      <trkpt lat="44.0852" lon="3.0617">
        <ele>379.86</ele>
        <time>2017-04-20T13:09:56Z</time>
      </trkpt>
      <trkpt lat="44.0852" lon="3.06167">
        <ele>379.86</ele>
        <time>2017-04-20T13:10:01Z</time>
      </trkpt>
      <trkpt lat="44.08521" lon="3.06157">
        <ele>378.9</ele>
        <time>2017-04-20T13:10:13Z</time>
      </trkpt>
      <trkpt lat="44.08522" lon="3.06152">
        <ele>378.9</ele>
        <time>2017-04-20T13:10:40Z</time>
      </trkpt>
      <trkpt lat="44.0852" lon="3.06147">
        <ele>377.94</ele>
        <time>2017-04-20T13:10:57Z</time>
      </trkpt>
      <trkpt lat="44.08523" lon="3.06152">
        <ele>379.38</ele>
        <time>2017-04-20T13:11:10Z</time>
      </trkpt>
      <trkpt lat="44.08526" lon="3.06149">
        <ele>379.38</ele>
        <time>2017-04-20T13:11:14Z</time>
      </trkpt>
      <trkpt lat="44.08532" lon="3.06154">
        <ele>379.38</ele>
        <time>2017-04-20T13:11:25Z</time>
      </trkpt>
      <trkpt lat="44.0853" lon="3.06154">
        <ele>379.38</ele>
        <time>2017-04-20T13:11:38Z</time>
      </trkpt>
      <trkpt lat="44.08532" lon="3.06156">
        <ele>379.38</ele>
        <time>2017-04-20T13:11:59Z</time>
      </trkpt>
    </trkseg>
  </trk>
</gpx>